[[{"header":{"parameterUnit":"m.s-1","parameterCategory":1,"la1":30.6,"la2":28.766,"lo1":-90.7593,"lo2":-88.6598,"dy":0.0162,"dx":0.0183,"nx":116,"ny":114,"refTime":"2023-03-09T18:00:00:Z","depth":0,"parameterNumber":2,"parameterNumberName":"U-component_of_WINDS"},"data":[0.0,0.0,0.0,0.0,0.0,0.0,0.0,0.0,0.0,0.0,0.0,0.0,0.0,0.0,0.0,0.0,0.0,0.0,0.0,0.0,0.0,0.0,0.0,0.0,0.0,0.0,0.0,0.0,0.0,0.0,0.0,0.0,0.0,0.0,0.0,0.0,0.0,0.0,0.0,0.0,0.0,0.0,0.0,0.0,0.0,0.0,0.0,0.0,0.0,0.0,0.0,0.0,0.0,0.0,0.0,0.0,0.0,0.0,0.0,0.0,0.0,0.0,0.0,0.0,0.0,0.0,0.0,0.0,0.0,0.0,0.0,0.0,0.0,0.0,0.0,0.0,0.0,0.0,0.0,0.0,0.0,0.0,0.0,0.0,0.0,0.0,0.0,0.0,0.0,0.0,0.0,0.0,0.0,0.0,0.0,0.0,0.0,0.0,0.0,0.0,0.0,0.0,0.0,0.0,0.0,0.0,0.0,0.0,0.0,0.0,0.0,0.0,0.0,0.0,0.0,0.0,0.0,0.0,0.0,0.0,0.0,0.0,0.0,0.0,0.0,0.0,0.0,0.0,0.0,0.0,0.0,0.0,0.0,0.0,0.0,0.0,0.0,0.0,0.0,0.0,0.0,0.0,0.0,0.0,0.0,0.0,0.0,0.0,0.0,0.0,0.0,0.0,0.0,0.0,0.0,0.0,0.0,0.0,0.0,0.0,0.0,0.0,0.0,0.0,0.0,0.0,0.0,0.0,0.0,0.0,0.0,0.0,0.0,0.0,0.0,0.0,0.0,0.0,0.0,0.0,0.0,0.0,0.0,0.0,0.0,0.0,0.0,0.0,0.0,0.0,0.0,0.0,0.0,0.0,0.0,0.0,0.0,0.0,0.0,0.0,0.0,0.0,0.0,0.0,0.0,0.0,0.0,0.0,0.0,0.0,0.0,0.0,0.0,0.0,0.0,0.0,0.0,0.0,0.0,0.0,0.0,0.0,0.0,0.0,0.0,0.0,0.0,0.0,0.0,0.0,0.0,0.0,0.0,0.0,0.0,0.0,0.0,0.0,0.0,0.0,0.0,0.0,0.0,0.0,0.0,0.0,0.0,0.0,0.0,0.0,0.0,0.0,0.0,0.0,0.0,0.0,0.0,0.0,0.0,0.0,0.0,0.0,0.0,0.0,0.0,0.0,0.0,0.0,0.0,0.0,0.0,0.0,0.0,0.0,0.0,0.0,0.0,0.0,0.0,0.0,0.0,0.0,0.0,0.0,0.0,0.0,0.0,0.0,0.0,0.0,0.0,0.0,0.0,0.0,0.0,0.0,0.0,0.0,0.0,0.0,0.0,0.0,0.0,0.0,0.0,0.0,0.0,0.0,0.0,0.0,0.0,0.0,0.0,0.0,0.0,0.0,0.0,0.0,0.0,0.0,0.0,0.0,0.0,0.0,0.0,0.0,0.0,0.0,0.0,0.0,0.0,0.0,0.0,0.0,0.0,0.0,0.0,0.0,0.0,0.0,0.0,0.0,0.0,0.0,0.0,0.0,0.0,0.0,0.0,0.0,0.0,0.0,0.0,0.0,0.0,0.0,0.0,0.0,0.0,0.0,0.0,0.0,0.0,0.0,0.0,0.0,0.0,0.0,0.0,0.0,0.0,0.0,0.0,0.0,0.0,0.0,0.0,0.0,0.0,0.0,0.0,0.0,0.0,0.0,0.0,0.0,0.0,0.0,0.0,0.0,0.0,0.0,0.0,0.0,0.0,0.0,0.0,0.0,0.0,0.0,0.0,0.0,0.0,0.0,0.0,0.0,0.0,0.0,0.0,0.0,0.0,0.0,0.0,0.0,0.0,0.0,0.0,0.0,0.0,0.0,0.0,0.0,0.0,0.0,0.0,0.0,0.0,0.0,0.0,0.0,0.0,0.0,0.0,0.0,0.0,0.0,0.0,0.0,0.0,0.0,0.0,0.0,0.0,0.0,0.0,0.0,0.0,0.0,0.0,0.0,0.0,0.0,0.0,0.0,0.0,0.0,0.0,0.0,0.0,0.0,0.0,0.0,0.0,0.0,0.0,0.0,0.0,0.0,0.0,0.0,0.0,0.0,0.0,0.0,0.0,0.0,0.0,0.0,0.0,0.0,0.0,0.0,0.0,0.0,0.0,0.0,0.0,0.0,0.0,0.0,0.0,0.0,0.0,0.0,0.0,0.0,0.0,0.0,0.0,0.0,0.0,0.0,0.0,0.0,0.0,0.0,0.0,0.0,0.0,0.0,0.0,0.0,0.0,0.0,0.0,0.0,0.0,0.0,0.0,0.0,0.0,0.0,0.0,0.0,0.0,0.0,0.0,0.0,0.0,0.0,0.0,0.0,0.0,0.0,0.0,0.0,0.0,0.0,0.0,0.0,0.0,0.0,0.0,0.0,0.0,0.0,0.0,0.0,0.0,0.0,0.0,0.0,0.0,0.0,0.0,0.0,0.0,0.0,0.0,0.0,0.0,0.0,0.0,0.0,0.0,0.0,0.0,0.0,0.0,0.0,0.0,0.0,0.0,0.0,0.0,0.0,0.0,0.0,0.0,0.0,0.0,0.0,0.0,0.0,0.0,0.0,0.0,0.0,0.0,0.0,0.0,0.0,0.0,0.0,0.0,0.0,0.0,0.0,0.0,0.0,0.0,0.0,0.0,0.0,0.0,0.0,0.0,0.0,0.0,0.0,0.0,0.0,0.0,0.0,0.0,0.0,0.0,0.0,0.0,0.0,0.0,0.0,0.0,0.0,0.0,0.0,0.0,0.0,0.0,0.0,0.0,0.0,0.0,0.0,0.0,0.0,0.0,0.0,0.0,0.0,0.0,0.0,0.0,0.0,0.0,0.0,0.0,0.0,0.0,0.0,0.0,0.0,0.0,0.0,0.0,0.0,0.0,0.0,0.0,0.0,0.0,0.0,0.0,0.0,0.0,0.0,0.0,0.0,0.0,0.0,0.0,0.0,0.0,0.0,0.0,0.0,0.0,0.0,0.0,0.0,0.0,0.0,0.0,0.0,0.0,0.0,0.0,0.0,0.0,0.0,0.0,0.0,0.0,0.0,0.0,0.0,0.0,0.0,0.0,0.0,0.0,0.0,0.0,0.0,0.0,0.0,0.0,0.0,0.0,0.0,0.0,0.0,0.0,0.0,0.0,0.0,0.0,0.0,0.0,0.0,0.0,0.0,0.0,0.0,0.0,0.0,0.0,0.0,0.0,0.0,0.0,0.0,0.0,0.0,0.0,0.0,0.0,0.0,0.0,0.0,0.0,0.0,0.0,0.0,0.0,0.0,0.0,0.0,0.0,0.0,0.0,0.0,0.0,0.0,0.0,0.0,0.0,0.0,0.0,0.0,0.0,0.0,0.0,0.0,0.0,0.0,0.0,0.0,0.0,0.0,0.0,0.0,0.0,0.0,0.0,0.0,0.0,0.0,0.0,0.0,0.0,0.0,0.0,0.0,0.0,0.0,0.0,0.0,0.0,0.0,0.0,0.0,0.0,0.0,0.0,0.0,0.0,0.0,0.0,0.0,0.0,0.0,0.0,0.0,0.0,0.0,0.0,0.0,0.0,0.0,0.0,0.0,0.0,0.0,0.0,0.0,0.0,0.0,0.0,0.0,0.0,0.0,0.0,0.0,0.0,0.0,0.0,0.0,0.0,0.0,0.0,0.0,0.0,0.0,0.0,0.0,0.0,0.0,0.0,0.0,0.0,0.0,0.0,0.0,0.0,0.0,0.0,0.0,0.0,0.0,0.0,0.0,0.0,0.0,0.0,0.0,0.0,0.0,0.0,0.0,0.0,0.0,0.0,0.0,0.0,0.0,0.0,0.0,0.0,0.0,0.0,0.0,0.0,0.0,0.0,0.0,0.0,0.0,0.0,0.0,0.0,0.0,0.0,0.0,0.0,0.0,0.0,0.0,0.0,0.0,0.0,0.0,0.0,0.0,0.0,0.0,0.0,0.0,0.0,0.0,0.0,0.0,0.0,0.0,0.0,0.0,0.0,0.0,0.0,0.0,0.0,0.0,0.0,0.0,0.0,0.0,0.0,0.0,0.0,0.0,0.0,0.0,0.0,0.0,0.0,0.0,0.0,0.0,0.0,0.0,0.0,0.0,0.0,0.0,0.0,0.0,0.0,0.0,0.0,0.0,0.0,0.0,0.0,0.0,0.0,0.0,0.0,0.0,0.0,0.0,0.0,0.0,0.0,0.0,0.0,0.0,0.0,0.0,0.0,0.0,0.0,0.0,0.0,0.0,0.0,0.0,0.0,0.0,0.0,0.0,0.0,0.0,0.0,0.0,0.0,0.0,0.0,0.0,0.0,0.0,0.0,0.0,0.0,0.0,0.0,0.0,0.0,0.0,0.0,0.0,0.0,0.0,0.0,0.0,0.0,0.0,0.0,0.0,0.0,0.0,0.0,0.0,0.0,0.0,0.0,0.0,0.0,0.0,0.0,0.0,0.0,0.0,0.0,0.0,0.0,0.0,0.0,0.0,0.0,0.0,0.0,0.0,0.0,0.0,0.0,0.0,0.0,0.0,0.0,0.0,0.0,0.0,0.0,0.0,0.0,0.0,0.0,0.0,0.0,0.0,0.0,0.0,0.0,0.0,0.0,0.0,0.0,0.0,0.0,0.0,0.0,0.0,0.0,0.0,0.0,0.0,0.0,0.0,0.0,0.0,0.0,0.0,0.0,0.0,0.0,0.0,0.0,0.0,0.0,0.0,0.0,0.0,0.0,0.0,0.0,0.0,0.0,0.0,0.0,0.0,0.0,0.0,0.0,0.0,0.0,0.0,0.0,0.0,0.0,0.0,0.0,0.0,0.0,0.0,0.0,0.0,0.0,0.0,0.0,0.0,0.0,0.0,0.0,0.0,0.0,0.0,0.0,0.0,0.0,0.0,0.0,0.0,0.0,0.0,0.0,0.0,0.0,0.0,0.0,0.0,0.0,0.0,0.0,0.0,0.0,0.0,0.0,0.0,0.0,0.0,0.0,0.0,0.0,0.0,0.0,0.0,0.0,0.0,0.0,0.0,0.0,0.0,0.0,0.0,0.0,0.0,0.0,0.0,0.0,0.0,0.0,0.0,0.0,0.0,0.0,0.0,0.0,0.0,0.0,0.0,0.0,0.0,0.0,0.0,0.0,0.0,0.0,0.0,0.0,0.0,0.0,0.0,0.0,0.0,0.0,0.0,0.0,0.0,0.0,0.0,0.0,0.0,0.0,0.0,0.0,0.0,0.0,0.0,0.0,0.0,0.0,0.0,0.0,0.0,0.0,0.0,0.0,0.0,0.0,0.0,0.0,0.0,0.0,0.0,0.0,0.0,0.0,0.0,0.0,0.0,0.0,0.0,0.0,0.0,0.0,0.0,0.0,0.0,0.0,0.0,0.0,0.0,0.0,0.0,0.0,0.0,0.0,0.0,0.0,0.0,0.0,0.0,0.0,0.0,0.0,0.0,0.0,0.0,0.0,0.0,0.0,0.0,0.0,0.0,0.0,0.0,0.0,0.0,0.0,0.0,0.0,0.0,0.0,0.0,0.0,0.0,0.0,0.0,0.0,0.0,0.0,0.0,0.0,0.0,0.0,0.0,0.0,0.0,0.0,0.0,0.0,0.0,0.0,0.0,0.0,0.0,0.0,0.0,0.0,0.0,0.0,0.0,0.0,0.0,0.0,0.0,0.0,0.0,0.0,0.0,0.0,0.0,0.0,0.0,0.0,0.0,0.0,0.0,0.0,0.0,0.0,0.0,0.0,0.0,0.0,0.0,0.0,0.0,0.0,0.0,0.0,0.0,0.0,0.0,0.0,0.0,0.0,0.0,0.0,0.0,0.0,0.0,0.0,0.0,0.0,0.0,0.0,0.0,0.0,0.0,0.0,0.0,0.0,0.0,0.0,0.0,0.0,0.0,0.0,0.0,0.0,0.0,0.0,0.0,0.0,0.0,0.0,0.0,0.0,0.0,0.0,0.0,0.0,0.0,0.0,0.0,0.0,0.0,0.0,0.0,0.0,0.0,0.0,0.0,0.0,0.0,0.0,0.0,0.0,0.0,0.0,0.0,0.0,0.0,0.0,0.0,0.0,0.0,0.0,0.0,6.2944,6.2734,0.0,0.0,0.0,0.0,0.0,0.0,0.0,0.0,0.0,0.0,0.0,0.0,0.0,0.0,0.0,0.0,0.0,0.0,0.0,0.0,0.0,0.0,0.0,0.0,0.0,0.0,0.0,0.0,0.0,0.0,0.0,0.0,0.0,0.0,0.0,0.0,0.0,0.0,0.0,0.0,0.0,0.0,0.0,0.0,0.0,0.0,0.0,0.0,0.0,0.0,0.0,0.0,0.0,0.0,0.0,0.0,0.0,0.0,0.0,0.0,0.0,0.0,0.0,0.0,0.0,0.0,0.0,0.0,0.0,0.0,0.0,0.0,0.0,0.0,0.0,0.0,0.0,0.0,0.0,0.0,0.0,0.0,0.0,0.0,0.0,0.0,0.0,0.0,0.0,0.0,0.0,0.0,0.0,0.0,0.0,0.0,0.0,0.0,0.0,0.0,0.0,0.0,0.0,0.0,0.0,0.0,0.0,0.0,0.0,0.0,0.0,0.0,0.0,0.0,6.3709,6.3634,0.0,0.0,0.0,0.0,0.0,0.0,0.0,0.0,0.0,0.0,0.0,0.0,0.0,0.0,0.0,0.0,0.0,0.0,0.0,0.0,0.0,0.0,0.0,0.0,0.0,0.0,0.0,0.0,0.0,0.0,0.0,0.0,0.0,0.0,0.0,0.0,0.0,0.0,0.0,0.0,0.0,0.0,0.0,0.0,0.0,0.0,0.0,0.0,0.0,0.0,0.0,0.0,0.0,0.0,0.0,0.0,0.0,0.0,0.0,0.0,0.0,0.0,0.0,0.0,0.0,0.0,0.0,0.0,0.0,0.0,0.0,0.0,0.0,0.0,0.0,0.0,0.0,0.0,0.0,0.0,0.0,0.0,0.0,0.0,0.0,0.0,0.0,0.0,0.0,0.0,0.0,0.0,0.0,0.0,0.0,0.0,0.0,0.0,0.0,0.0,0.0,0.0,0.0,0.0,0.0,0.0,0.0,0.0,6.4318,6.4042,6.4042,6.4161,6.4239,6.4253,6.4514,6.4584,6.4479,6.4645,0.0,0.0,0.0,0.0,0.0,0.0,0.0,0.0,0.0,0.0,0.0,0.0,0.0,0.0,0.0,0.0,0.0,0.0,0.0,0.0,0.0,0.0,0.0,0.0,0.0,0.0,0.0,0.0,0.0,0.0,0.0,0.0,0.0,0.0,0.0,0.0,0.0,0.0,5.7886,5.7886,5.7772,5.7581,0.0,0.0,0.0,0.0,0.0,0.0,0.0,0.0,0.0,0.0,0.0,0.0,0.0,0.0,0.0,0.0,0.0,0.0,0.0,0.0,0.0,0.0,0.0,0.0,0.0,0.0,0.0,0.0,0.0,0.0,0.0,0.0,0.0,0.0,0.0,0.0,0.0,0.0,0.0,0.0,0.0,0.0,0.0,0.0,6.3229,6.257,0.0,0.0,0.0,0.0,0.0,0.0,0.0,0.0,0.0,0.0,0.0,0.0,0.0,6.4342,6.3994,6.3781,6.377,6.3965,6.4633,6.4947,6.4947,6.5648,6.5959,6.5961,6.6003,0.0,6.5256,6.6111,0.0,0.0,0.0,0.0,0.0,0.0,0.0,0.0,0.0,0.0,0.0,0.0,0.0,0.0,0.0,0.0,0.0,0.0,0.0,0.0,0.0,0.0,0.0,0.0,0.0,0.0,0.0,0.0,0.0,0.0,0.0,0.0,0.0,0.0,0.0,0.0,5.838,5.8842,5.9307,5.9307,5.9307,5.9303,5.9797,5.9224,5.8039,5.8418,0.0,0.0,0.0,0.0,0.0,0.0,0.0,0.0,0.0,0.0,0.0,0.0,0.0,0.0,0.0,0.0,0.0,0.0,0.0,0.0,0.0,0.0,0.0,0.0,0.0,0.0,0.0,0.0,0.0,0.0,0.0,0.0,0.0,0.0,0.0,0.0,0.0,0.0,0.0,6.3458,6.3586,6.3025,6.3796,6.3974,0.0,0.0,0.0,0.0,0.0,0.0,0.0,0.0,0.0,6.3781,6.4367,6.4618,6.4362,6.4791,6.5002,6.4966,6.5363,6.5559,6.5598,6.6373,6.676,6.6768,6.7348,6.7443,6.7147,6.6826,6.6697,6.6702,0.0,0.0,0.0,0.0,6.6796,6.6796,0.0,0.0,0.0,0.0,0.0,0.0,0.0,0.0,0.0,0.0,0.0,0.0,0.0,0.0,0.0,5.5396,0.0,0.0,0.0,0.0,0.0,0.0,0.0,0.0,0.0,0.0,0.0,0.0,5.9335,5.9759,6.0415,6.0415,6.0415,6.0415,6.1023,6.0599,5.9449,5.9904,6.0332,0.0,0.0,0.0,0.0,0.0,0.0,0.0,0.0,0.0,0.0,0.0,0.0,0.0,0.0,0.0,0.0,0.0,0.0,0.0,0.0,0.0,0.0,0.0,0.0,0.0,0.0,0.0,0.0,0.0,0.0,0.0,0.0,0.0,0.0,0.0,0.0,0.0,0.0,6.3882,6.4,6.3093,6.4017,6.4362,0.0,0.0,0.0,0.0,0.0,0.0,6.3406,6.4161,6.4393,6.3925,6.4657,6.5169,6.5393,6.6016,6.6434,6.6551,6.6551,6.6551,6.6551,6.717,6.7439,6.7488,6.8218,6.8566,6.8483,6.7554,6.7205,6.7218,6.7325,6.7396,6.7398,6.7454,6.746,6.746,0.0,0.0,0.0,0.0,0.0,0.0,0.0,0.0,0.0,0.0,0.0,0.0,0.0,0.0,5.5396,5.5396,5.5396,5.5396,0.0,0.0,0.0,0.0,0.0,0.0,0.0,0.0,0.0,5.9102,5.9911,6.0377,6.0415,6.0415,6.0415,6.0415,6.0453,6.0415,6.0453,6.2047,6.2277,6.1554,0.0,0.0,0.0,0.0,0.0,0.0,0.0,0.0,0.0,0.0,0.0,0.0,0.0,0.0,0.0,0.0,0.0,0.0,0.0,0.0,0.0,0.0,0.0,0.0,0.0,0.0,0.0,0.0,0.0,0.0,0.0,0.0,0.0,0.0,0.0,0.0,0.0,0.0,0.0,6.2447,6.3601,0.0,0.0,0.0,0.0,6.4548,6.4586,6.4307,6.3636,6.4215,6.4624,6.4734,6.5463,6.6227,6.6997,6.7039,6.7449,6.8276,6.8276,6.8276,6.8276,6.8314,6.8314,6.8353,6.8408,6.8411,6.8414,6.8686,6.8797,6.8814,6.8927,6.8976,6.9028,6.9193,6.9255,6.9255,0.0,0.0,0.0,0.0,0.0,0.0,0.0,0.0,0.0,0.0,0.0,0.0,0.0,5.5396,5.5396,5.5396,5.5396,5.5629,5.6132,0.0,0.0,0.0,0.0,0.0,0.0,0.0,5.9106,5.9953,6.0262,6.0415,6.0415,6.0415,6.0415,6.0453,6.1516,6.2009,6.1975,6.152,6.1402,6.1554,6.1023,6.0832,0.0,0.0,0.0,0.0,0.0,0.0,0.0,0.0,0.0,0.0,0.0,0.0,0.0,0.0,0.0,0.0,0.0,0.0,0.0,0.0,0.0,0.0,0.0,0.0,0.0,0.0,0.0,0.0,0.0,0.0,0.0,0.0,0.0,0.0,0.0,0.0,0.0,6.3823,6.4746,0.0,6.3429,6.4086,6.434,6.3722,6.4257,6.4492,6.4188,6.5461,6.6249,6.6299,6.7096,6.7664,6.7933,6.7933,6.8087,6.8391,6.8391,6.8391,6.843,6.8972,6.9241,6.9279,6.9779,7.001,7.0027,7.0135,6.9601,6.8706,6.889,6.8951,6.8997,6.9051,6.9121,6.922,0.0,0.0,0.0,0.0,0.0,0.0,0.0,0.0,0.0,0.0,0.0,5.4635,5.5133,5.5216,5.5256,5.539,5.5667,5.5938,5.617,0.0,0.0,0.0,0.0,0.0,0.0,5.8835,5.9679,6.0794,6.0794,6.0947,6.1252,6.1252,6.1252,6.129,6.2391,6.2884,6.285,6.1707,6.1864,6.2815,6.202,6.1523,6.1214,0.0,0.0,0.0,0.0,0.0,0.0,0.0,0.0,0.0,0.0,0.0,0.0,0.0,0.0,0.0,0.0,0.0,0.0,0.0,0.0,0.0,0.0,0.0,0.0,0.0,0.0,0.0,0.0,0.0,0.0,0.0,0.0,0.0,0.0,0.0,6.4786,6.4209,6.4901,6.4975,6.3818,6.4244,6.4533,6.4494,6.5064,6.5529,6.5787,6.6851,6.7492,6.7515,6.805,6.8522,6.8853,6.8853,6.8972,6.9241,6.9241,6.9241,6.9279,6.9856,7.009,7.0129,7.0667,7.0898,7.0898,7.0898,7.0311,6.9407,6.959,6.9665,6.9674,6.9739,6.9833,6.9918,0.0,0.0,0.0,0.0,0.0,0.0,0.0,0.0,0.0,0.0,5.3705,5.397,5.4712,5.4784,5.4951,5.5399,5.6119,5.6272,5.5501,5.6164,0.0,0.0,0.0,0.0,5.9102,5.9179,5.9981,6.1631,6.1631,6.2086,6.2884,6.2884,6.2884,6.2884,6.2926,6.2923,6.2923,6.2964,6.392,6.5337,6.4504,6.366,6.2808,0.0,0.0,0.0,0.0,0.0,0.0,0.0,0.0,0.0,0.0,0.0,0.0,0.0,0.0,0.0,0.0,0.0,0.0,0.0,0.0,0.0,0.0,0.0,0.0,0.0,0.0,0.0,0.0,0.0,0.0,0.0,0.0,0.0,6.3255,6.4715,6.514,6.3489,6.402,6.4551,6.4555,6.4555,6.5246,6.69,6.7051,6.7393,6.8238,6.8248,6.8282,6.8315,6.8356,6.8817,6.9738,6.9741,7.0126,7.0937,7.0937,7.0937,7.0975,7.0975,7.0975,7.0975,7.0975,7.0975,7.0975,7.0975,7.0975,7.1002,7.119,7.1244,7.1269,7.1477,7.1585,7.1551,0.0,0.0,0.0,0.0,0.0,0.0,0.0,0.0,0.0,0.0,5.3705,5.3902,5.4384,5.4434,5.4848,5.5828,5.6127,5.6393,5.6769,0.0,0.0,0.0,0.0,0.0,6.003,6.0599,6.1436,6.2544,6.2544,6.2655,6.2884,6.2884,6.2884,6.2926,6.3545,6.3851,6.3893,6.4458,6.4993,6.5261,6.3843,6.3117,6.2888,0.0,0.0,0.0,0.0,0.0,0.0,0.0,0.0,0.0,0.0,0.0,0.0,0.0,0.0,0.0,0.0,0.0,0.0,0.0,0.0,0.0,0.0,0.0,0.0,0.0,0.0,0.0,0.0,0.0,0.0,0.0,0.0,6.4869,6.4869,6.484,6.4884,6.4948,6.5168,6.5555,6.6173,6.6249,6.6647,6.7659,6.7875,6.7962,6.808,6.8743,6.9124,6.9088,6.9705,7.0206,7.0473,7.0511,7.0962,7.1825,7.1825,7.2168,7.278,7.278,7.278,7.278,7.278,7.278,7.278,7.278,7.278,7.2748,7.2141,7.1942,7.2026,7.2713,7.3005,7.3111,0.0,0.0,0.0,0.0,0.0,0.0,0.0,0.0,0.0,0.0,5.3351,5.3546,5.392,5.4412,5.5087,5.6008,5.6575,5.6918,5.6991,0.0,0.0,0.0,0.0,6.0026,6.087,6.1707,6.2582,6.3427,6.3427,6.3618,6.3958,6.3958,6.3958,6.3958,6.4462,6.4691,6.4733,6.5184,6.5413,6.5299,6.434,6.3767,6.3427,6.3427,6.3232,6.2884,6.2884,6.2884,6.2808,6.2315,0.0,0.0,0.0,0.0,0.0,0.0,0.0,0.0,0.0,0.0,0.0,0.0,0.0,0.0,0.0,0.0,0.0,0.0,0.0,0.0,0.0,0.0,0.0,0.0,6.4098,6.5215,6.5909,6.5395,6.5221,6.6018,6.6088,6.6436,6.7279,6.7356,6.7682,6.8476,6.8635,6.8838,6.9088,6.9635,6.9948,6.9944,7.075,7.1247,7.1324,7.1633,7.2063,7.2606,7.2606,7.2875,7.3371,7.3371,7.3389,7.3422,7.3422,7.344,7.3507,7.3507,7.3507,7.343,0.0,0.0,0.0,0.0,7.3537,7.3629,0.0,0.0,0.0,0.0,0.0,0.0,0.0,0.0,0.0,0.0,0.0,5.312,5.3506,5.4521,5.5423,5.6174,5.7148,5.7503,0.0,0.0,0.0,5.929,6.0106,6.0947,6.186,6.2659,6.3465,6.4355,6.4355,6.4691,6.5413,6.5413,6.5413,6.5413,6.5413,6.5413,6.5413,6.5413,6.5413,6.5413,6.5413,6.4959,6.4355,6.4355,6.3851,6.319,6.319,6.319,6.3155,6.3079,0.0,0.0,0.0,0.0,0.0,0.0,0.0,0.0,0.0,0.0,0.0,0.0,0.0,0.0,0.0,0.0,0.0,0.0,0.0,0.0,0.0,0.0,0.0,0.0,6.3825,6.5071,6.6487,6.6166,6.6057,6.6819,6.6934,6.7236,6.8074,6.8147,6.8495,6.9345,6.9429,6.9773,7.0527,7.0573,0.0,0.0,0.0,7.1981,7.2213,7.2867,7.3261,7.3357,7.3357,7.34,7.3522,7.3522,7.3568,7.3601,7.3601,7.368,7.3776,7.3776,7.3776,7.3776,7.3661,7.3699,7.3776,7.3776,7.3776,7.3776,0.0,0.0,0.0,0.0,0.0,0.0,0.0,0.0,0.0,5.2806,5.2817,5.3122,5.382,5.4102,5.4991,5.6841,5.6836,5.73,0.0,0.0,5.9094,6.1047,6.1287,6.2093,6.3663,6.3854,6.4351,6.5188,6.5188,6.5264,6.5413,6.5413,6.5413,6.5413,6.5413,6.5413,6.5413,6.5413,6.5413,6.5413,6.5413,6.5299,6.5188,6.5188,6.507,6.4917,6.4917,6.4917,6.4802,6.4156,6.3969,6.3812,6.2926,0.0,0.0,0.0,0.0,0.0,0.0,0.0,0.0,0.0,0.0,0.0,0.0,0.0,0.0,0.0,0.0,0.0,0.0,0.0,0.0,6.2888,6.4771,6.6342,6.667,6.711,6.7508,6.7657,6.7695,6.8001,6.8876,6.8953,6.9297,7.0133,7.0274,7.0358,7.0443,7.0542,7.0864,7.1474,7.1661,7.2118,7.2888,7.3059,7.3548,7.4336,7.4336,0.0,7.5471,7.5471,7.5478,7.5493,7.5493,7.55,7.5515,7.5515,7.5515,7.5438,7.4742,7.4895,7.5515,7.5515,7.5515,7.5515,0.0,0.0,0.0,0.0,0.0,0.0,0.0,0.0,0.0,0.0,5.2794,5.294,5.3372,5.3983,5.4838,5.5899,5.6742,0.0,0.0,5.9536,6.0455,6.1906,6.2578,6.3316,6.416,6.458,6.4997,6.5413,6.5413,6.5413,6.5413,6.5413,6.5413,6.5413,6.5413,6.5413,6.5413,6.5413,6.5413,6.5413,6.5413,6.5413,6.5413,6.5413,6.5413,6.5413,6.5413,6.5413,6.5337,6.4921,6.4806,6.4653,6.3812,6.3239,6.2742,0.0,0.0,0.0,0.0,0.0,0.0,0.0,0.0,0.0,0.0,0.0,0.0,0.0,0.0,6.1631,0.0,0.0,6.3694,6.4076,6.5601,6.6976,6.7817,6.8317,6.8551,6.8551,6.8551,6.8894,6.9727,6.9803,6.9956,7.0372,7.0451,7.0651,7.103,7.115,7.156,7.24,7.2778,7.3215,7.3712,7.4095,7.4545,7.5057,7.5057,7.5311,7.5739,7.5775,7.5818,7.586,7.5937,7.5974,7.6015,7.6015,7.6015,7.5976,7.5511,7.563,7.6015,7.6015,7.6015,7.6015,0.0,0.0,0.0,0.0,0.0,0.0,0.0,0.0,0.0,0.0,5.2761,5.2834,5.298,5.3997,5.4739,0.0,0.0,0.0,0.0,6.0457,6.1607,6.2753,6.3608,6.4173,6.4428,6.5073,6.5413,6.5413,6.5413,6.5413,6.5413,6.5413,6.5413,6.5413,6.5413,6.5413,6.5413,6.5413,6.5413,6.5413,6.5413,6.5413,6.5413,6.5413,6.5413,6.5413,6.5413,6.5303,6.5184,6.5337,6.5303,6.5073,6.458,6.4313,6.3893,6.2319,6.2239,0.0,0.0,0.0,0.0,0.0,0.0,0.0,0.0,0.0,6.2047,6.277,6.2884,6.2884,6.2884,6.3732,6.4657,6.5299,6.6407,6.7668,6.9005,6.9311,6.9425,6.9425,6.9425,6.9693,7.0338,7.0411,7.0411,7.0411,7.0568,7.0954,7.165,7.1903,7.2432,7.327,7.3955,7.4371,7.4529,7.5196,7.5518,7.5535,7.5535,7.5544,7.5527,7.5595,7.5662,7.57,7.5802,7.5914,7.5989,7.5989,7.6,7.6015,7.6015,7.6092,7.6245,7.6053,7.6015,7.6015,0.0,0.0,0.0,0.0,0.0,0.0,0.0,0.0,0.0,0.0,0.0,0.0,0.0,0.0,0.0,0.0,0.0,0.0,6.0219,6.105,6.2415,6.4429,6.3938,6.4106,6.5257,6.5337,6.5413,6.5413,6.5413,6.5413,6.5413,6.5413,6.5413,6.5413,6.5413,6.5413,6.5413,6.5413,6.5413,6.5413,6.5413,6.5413,6.5413,6.5413,6.5413,6.5413,6.5413,6.4959,6.4428,6.515,6.4921,6.4428,6.5073,6.4771,6.4007,6.3041,0.0,6.1554,6.0644,6.1061,6.1704,6.1627,6.2162,6.2732,0.0,0.0,6.2773,6.2884,6.2884,6.2884,6.2884,6.4187,6.5303,6.5375,6.7362,6.9005,6.9162,6.9807,7.0258,7.0258,7.0258,7.0296,7.0372,7.0411,7.0411,7.0411,7.1107,7.1612,7.1688,7.2456,7.3225,7.4057,7.4172,7.4597,7.537,7.5475,7.5548,7.5583,7.5583,7.5625,7.5668,7.5676,7.5684,7.5696,7.5704,7.579,7.5902,7.5902,7.5948,7.6015,7.6015,7.648,7.7057,7.6288,7.6015,7.6015,0.0,0.0,0.0,0.0,0.0,0.0,0.0,0.0,0.0,0.0,0.0,0.0,0.0,0.0,0.0,0.0,0.0,0.0,6.0372,6.1858,6.3224,6.4341,6.4314,6.4609,6.5368,6.5413,6.5413,6.5413,6.5413,6.5413,6.5413,6.5413,6.5413,6.5413,6.5413,6.5413,6.5413,6.5413,6.5413,6.5413,6.5413,6.5413,6.5413,6.5413,6.5413,6.5337,6.4882,6.4504,0.0,0.0,6.4466,6.4351,6.5146,6.4844,6.4045,6.3155,6.2659,0.0,6.2555,6.2475,6.2468,0.0,6.3392,6.366,6.366,6.366,6.377,6.4263,6.434,6.4493,6.5028,6.5677,6.6483,0.0,6.8512,6.9349,6.9842,7.0181,7.0411,7.0411,7.0411,7.0411,7.0411,7.0877,7.1145,7.1145,7.1951,7.2677,7.3132,7.3514,7.4087,7.4932,7.497,7.5123,7.5509,7.5509,7.5527,7.5523,7.5523,7.5544,7.5587,7.5633,7.5711,7.5841,7.6305,7.6582,7.6736,7.7235,7.7412,7.7442,7.7442,7.7673,7.7907,7.7057,7.7057,7.7442,0.0,0.0,0.0,0.0,0.0,0.0,0.0,0.0,0.0,0.0,0.0,0.0,0.0,0.0,0.0,0.0,0.0,0.0,0.0,6.2205,6.3526,6.4066,6.4426,6.4853,6.5406,6.5413,6.5413,6.5413,6.5413,6.5413,6.5413,6.5413,6.5413,6.5413,6.5413,6.5413,6.5413,6.5413,6.5413,6.5413,6.5413,6.5413,6.5413,6.5413,6.5261,6.4997,6.4428,6.4045,0.0,0.0,6.366,6.3621,6.4458,6.4309,6.366,6.2812,6.2391,6.2395,6.3239,6.3197,0.0,6.3969,6.4351,6.4542,6.4542,6.4542,6.4768,6.5605,6.5757,6.6025,6.6865,6.7244,6.7778,6.9005,6.9387,6.9731,7.0334,7.0411,7.0411,7.0411,7.0606,7.0759,7.0759,7.134,7.1803,7.2032,7.2868,7.359,7.4159,7.4426,7.4851,7.5471,7.5509,7.5509,7.5509,7.5509,7.5509,7.5509,7.5509,7.5509,7.5514,7.5761,7.6127,7.6514,7.7089,7.7426,7.7605,7.8185,7.8481,7.8484,7.8484,7.8638,7.8788,7.8211,7.8211,7.8484,0.0,0.0,0.0,0.0,0.0,0.0,0.0,0.0,0.0,0.0,0.0,0.0,0.0,0.0,0.0,0.0,0.0,0.0,0.0,6.193,6.3203,6.4051,6.4101,6.4529,6.5364,6.5413,6.5413,6.5413,6.5413,6.5413,6.5413,6.5413,6.5413,6.5413,6.5413,6.5413,6.5413,6.5413,6.5413,6.5413,6.5413,6.5413,6.5413,6.5413,6.4921,6.4236,6.4202,0.0,0.0,0.0,6.2391,6.1822,6.2697,6.2961,0.0,6.1895,6.1099,0.0,0.0,0.0,6.3117,6.3969,6.4806,6.5375,6.5375,6.5375,6.5605,6.6479,6.667,6.6904,6.771,6.8551,6.912,6.9196,6.9842,7.0372,7.0411,7.0411,7.0411,7.0411,7.1149,7.165,7.165,7.1688,7.207,7.2907,7.3701,7.4159,7.4197,7.5008,7.5471,7.5509,7.5509,7.5509,7.5509,7.5509,7.5509,7.5509,7.5509,7.5509,7.5548,7.6307,7.7114,7.7955,7.7955,7.81,7.8274,7.8312,7.8375,7.8484,7.8484,7.9019,7.9742,7.9742,7.9208,7.8484,0.0,0.0,0.0,0.0,0.0,0.0,0.0,0.0,0.0,0.0,0.0,0.0,0.0,0.0,0.0,0.0,0.0,0.0,0.0,6.1111,6.2268,6.2891,6.3435,6.4114,6.4989,6.5006,6.5117,6.5413,6.5413,6.5413,6.5413,6.5413,6.5413,6.5413,6.5413,6.5413,6.5413,6.5413,6.5413,6.5413,6.5413,6.5413,6.5337,6.4806,6.4428,6.4045,0.0,0.0,0.0,0.0,0.0,0.0,6.2617,0.0,0.0,6.1061,0.0,0.0,0.0,0.0,6.3965,6.4806,6.5184,6.5413,6.5413,6.5834,6.6365,6.6632,6.6709,6.6942,6.7748,6.813,6.8512,6.912,6.988,7.0411,7.0411,7.0411,7.0606,7.1187,7.1535,0.0,0.0,7.3361,7.3471,7.3781,7.4588,7.5046,7.5046,7.5356,7.5509,7.5509,7.5509,7.5509,7.5509,7.5509,7.5509,7.5509,7.604,7.6613,7.7182,7.7449,7.7748,7.8116,7.8694,7.8994,7.9139,7.9719,8.002,8.0087,8.0087,8.0311,8.0669,8.0669,8.0477,8.0212,0.0,0.0,0.0,0.0,0.0,0.0,0.0,0.0,0.0,0.0,0.0,0.0,0.0,0.0,0.0,0.0,0.0,0.0,0.0,0.0,6.1387,6.185,6.235,6.297,6.3678,6.3692,6.3874,6.4297,6.4602,6.481,6.4997,6.5261,6.5413,6.5413,6.5413,6.5413,6.5413,6.5413,6.5222,6.4959,6.4959,6.4768,6.4455,6.3923,6.3545,0.0,0.0,0.0,0.0,0.0,0.0,0.0,0.0,0.0,0.0,0.0,0.0,0.0,0.0,6.3774,6.4389,6.5184,6.5413,6.5413,6.5413,6.6059,6.6785,6.7056,6.74,6.7855,6.8661,6.8551,6.8551,6.912,6.9616,6.9956,6.9956,7.0491,7.1068,7.165,7.2219,7.3017,0.0,0.0,7.466,7.466,7.5161,7.5509,7.5509,7.5509,7.5509,7.5509,7.5509,7.5509,7.5509,7.5777,7.6083,7.6384,7.6914,7.7602,7.8443,7.8443,7.8627,7.8991,7.9536,7.9815,7.9931,8.0511,8.0797,8.0877,8.0877,8.0934,8.1045,8.1045,8.1069,8.1093,0.0,0.0,0.0,0.0,0.0,0.0,0.0,0.0,0.0,0.0,0.0,0.0,0.0,0.0,0.0,0.0,0.0,0.0,0.0,0.0,0.0,6.1,6.1054,6.1246,6.1665,6.167,6.1877,6.2303,6.3141,6.3734,6.416,6.4917,6.5261,6.5261,6.5261,6.5261,6.5261,6.5261,6.4844,6.4122,6.4122,6.3621,6.2884,6.2846,0.0,0.0,0.0,0.0,0.0,0.0,0.0,0.0,0.0,0.0,0.0,0.0,0.0,6.2089,6.374,6.4236,6.4428,6.5226,6.5413,6.5413,6.5452,6.6136,6.6976,6.7786,6.8627,6.9425,0.0,0.0,6.9196,6.9196,6.9234,6.9273,6.9315,7.069,7.1726,0.0,0.0,0.0,0.0,0.0,0.0,7.5509,7.5509,7.5509,7.5509,7.5509,7.5509,7.5509,7.5548,7.5548,7.5548,7.6346,7.7182,7.8056,7.8056,7.8519,7.9369,7.9369,7.9789,8.0506,8.0506,8.0523,8.0605,8.0605,8.0667,8.0792,8.0792,8.0852,8.0896,8.0896,8.0983,8.1093,0.0,0.0,0.0,0.0,0.0,0.0,0.0,0.0,0.0,0.0,0.0,0.0,0.0,0.0,0.0,0.0,0.0,0.0,0.0,0.0,0.0,0.0,0.0,0.0,0.0,0.0,0.0,6.2303,6.2534,6.2855,6.3236,6.3423,6.3538,6.3538,6.3538,6.3538,6.3538,6.3538,6.3423,6.3232,0.0,6.3117,6.285,0.0,0.0,0.0,0.0,0.0,0.0,0.0,0.0,0.0,0.0,6.2277,6.2315,0.0,0.0,6.3625,6.4084,6.4657,6.5146,6.5337,6.5413,6.5566,6.6212,6.7018,6.7825,6.8703,6.9047,6.9273,0.0,0.0,0.0,6.9196,6.9689,0.0,7.0958,7.1421,0.0,7.3399,0.0,7.4465,7.5123,7.5356,0.0,7.5509,7.5509,7.5509,7.5509,7.5509,7.5509,7.5509,7.6078,7.6384,7.6384,7.7258,7.8099,7.8987,7.8987,7.9402,8.0205,8.0205,8.032,8.0506,8.0506,8.0525,8.0548,8.0548,8.0643,8.0792,8.0792,8.0889,8.1061,8.1061,8.1073,8.1093,0.0,0.0,0.0,0.0,0.0,0.0,0.0,0.0,0.0,0.0,0.0,0.0,0.0,0.0,0.0,0.0,0.0,0.0,0.0,0.0,0.0,0.0,0.0,0.0,0.0,0.0,0.0,0.0,0.0,0.0,6.2075,6.2631,6.2884,6.2884,6.2884,6.2884,6.2884,6.2884,0.0,0.0,0.0,0.0,0.0,0.0,0.0,0.0,0.0,0.0,0.0,0.0,0.0,6.2277,6.2735,6.2884,6.2964,6.335,0.0,6.4275,6.4615,6.5073,6.5413,6.5413,6.5681,6.5983,6.6101,6.7324,6.8512,6.8627,6.9196,0.0,6.9731,6.9425,6.9196,0.0,0.0,0.0,7.1068,7.2104,7.3132,0.0,7.4545,0.0,7.5433,7.5509,7.5509,7.5509,7.5509,7.5509,7.5509,7.5509,7.5662,7.6002,7.646,7.7072,7.7836,7.8333,7.8982,7.9827,7.9827,8.0052,8.0506,8.0506,8.0506,8.0506,8.0506,8.0506,8.0506,8.0506,8.0575,8.067,8.067,8.0784,8.0981,8.0981,8.1029,8.1093,0.0,0.0,0.0,0.0,0.0,0.0,0.0,0.0,0.0,0.0,0.0,0.0,0.0,0.0,0.0,0.0,0.0,0.0,0.0,0.0,0.0,0.0,0.0,0.0,0.0,0.0,0.0,0.0,0.0,0.0,0.0,0.0,0.0,0.0,0.0,0.0,0.0,0.0,0.0,0.0,0.0,0.0,0.0,0.0,0.0,0.0,0.0,0.0,0.0,0.0,6.2964,6.3079,6.3194,6.3228,6.3385,6.4156,6.4351,6.4504,6.5226,6.5413,6.5413,6.5528,6.6136,6.6556,6.6025,6.7591,6.9009,6.836,0.0,7.0372,7.0258,6.9651,6.9196,6.9196,0.0,7.0487,7.072,7.2745,7.4235,7.435,7.5046,7.5509,7.5509,7.5509,7.5509,7.5509,7.5586,7.5662,7.5662,7.5662,7.6083,7.7033,7.7067,7.7836,7.9445,7.9445,7.9827,8.0506,8.0506,8.0506,8.0506,8.0506,8.0506,8.0506,8.0506,8.0506,8.0506,8.0506,8.0515,8.0525,8.0525,8.0639,8.0797,8.0805,8.091,8.1077,0.0,0.0,0.0,0.0,0.0,0.0,0.0,0.0,0.0,0.0,5.6182,5.6528,0.0,0.0,0.0,0.0,0.0,0.0,0.0,0.0,0.0,0.0,0.0,0.0,0.0,0.0,0.0,0.0,0.0,0.0,0.0,0.0,0.0,0.0,0.0,0.0,0.0,0.0,0.0,0.0,0.0,0.0,0.0,0.0,0.0,0.0,0.0,0.0,0.0,0.0,6.3388,6.4084,6.4764,6.4955,6.4993,6.5146,6.5184,6.5222,6.5375,6.5413,6.5566,6.6288,6.6594,6.7014,6.8279,6.8894,0.0,0.0,7.0185,7.0185,6.954,6.9273,6.9196,6.9196,6.988,7.0911,7.2329,7.3509,7.4465,0.0,7.5395,7.5509,7.5509,7.5509,0.0,7.5509,7.6116,7.6494,7.6494,7.6494,7.7224,7.8796,7.8834,7.9292,8.0281,8.0281,8.0353,8.0506,8.0506,8.0506,8.0506,8.0506,8.0506,8.0506,8.0506,8.0506,8.0506,8.0506,8.0519,8.0591,8.0591,8.0658,8.0805,8.0877,8.0884,8.0959,0.0,0.0,0.0,0.0,0.0,0.0,0.0,5.7286,5.7443,5.7084,5.7011,5.7316,5.8044,5.8957,0.0,0.0,0.0,0.0,0.0,0.0,0.0,0.0,0.0,0.0,0.0,5.8002,5.808,5.8277,0.0,5.907,5.9498,5.9898,6.0185,6.0415,0.0,0.0,0.0,0.0,0.0,0.0,0.0,0.0,0.0,0.0,0.0,0.0,0.0,0.0,0.0,0.0,6.3465,6.4351,6.5146,6.5413,6.5413,6.5413,6.5413,6.5413,6.5413,6.5719,6.6174,6.6594,6.7358,6.8088,6.8436,0.0,0.0,0.0,6.9302,6.9449,6.8392,6.8395,6.8818,6.9693,7.0533,7.168,7.3399,7.4354,7.5046,7.5433,7.5509,7.5509,7.5509,7.5509,7.5662,7.6078,7.6494,7.6685,7.6685,7.7568,7.8452,7.9259,7.9713,8.009,8.0506,8.0506,8.0506,8.0506,8.0506,8.0506,8.0506,8.0506,8.0506,8.0506,8.0506,8.0506,8.0506,8.0506,8.0534,8.0542,8.0542,8.0666,8.0801,8.0843,8.0914,8.0999,0.0,0.0,0.0,0.0,0.0,0.0,0.0,5.7547,5.7631,5.7631,5.7775,5.8085,5.8719,5.9048,5.9249,0.0,0.0,0.0,0.0,0.0,0.0,0.0,0.0,0.0,0.0,0.0,0.0,5.8002,5.8412,0.0,0.0,0.0,0.0,0.0,6.0415,6.0415,6.0415,0.0,0.0,0.0,0.0,6.0415,0.0,0.0,0.0,0.0,0.0,0.0,0.0,0.0,6.335,6.4042,6.4882,6.5146,6.5188,6.5337,6.5261,6.5184,6.5337,6.6021,6.6747,6.69,6.8088,6.9086,6.8551,6.9258,0.0,6.7894,6.8214,6.8414,6.713,6.7359,6.8247,6.9734,7.0731,7.1977,7.3917,7.4775,7.528,7.5471,7.5509,0.0,7.5509,7.5662,7.6002,7.6647,7.7067,7.7263,7.7263,7.8715,7.956,7.956,8.0167,8.0506,8.0506,8.0506,8.0506,8.0506,8.0506,8.0506,8.0506,8.0506,8.0506,8.0506,8.0506,8.0506,8.0506,8.0506,8.0506,8.0506,8.0506,8.0603,8.0741,8.0779,8.0885,8.1045,0.0,0.0,0.0,0.0,0.0,0.0,0.0,5.7715,5.7792,5.7792,5.791,5.8179,5.8732,5.9455,6.0005,0.0,0.0,0.0,0.0,0.0,0.0,0.0,0.0,0.0,0.0,0.0,0.0,5.8002,5.8412,0.0,0.0,0.0,0.0,0.0,0.0,6.0415,6.0415,6.0415,0.0,0.0,0.0,0.0,0.0,0.0,0.0,0.0,0.0,0.0,0.0,0.0,0.0,6.3155,6.4045,6.4313,6.4466,6.5184,0.0,0.0,6.5184,6.6021,6.6862,6.7595,6.8512,6.9387,7.0033,0.0,6.861,6.8422,6.79,6.7079,6.5793,6.6484,6.7583,6.8534,6.9398,7.0951,7.3806,7.4274,7.4622,7.5395,0.0,0.0,7.5509,7.6155,7.6609,7.6685,7.8184,7.9063,7.9063,7.9899,8.0396,8.0396,8.0472,8.0506,8.0506,8.0506,8.0506,8.0506,8.0506,8.0506,8.0506,8.0506,8.0506,8.0506,8.0506,8.0506,8.0506,8.0506,8.0506,8.0506,8.0506,8.052,8.0557,8.0732,8.0805,8.0843,0.0,0.0,0.0,0.0,0.0,0.0,5.7449,5.7577,5.7661,5.7661,5.7881,5.8197,5.8732,5.9503,6.0095,0.0,0.0,0.0,0.0,0.0,0.0,0.0,0.0,0.0,0.0,0.0,5.8002,5.8002,5.8159,0.0,0.0,0.0,0.0,0.0,0.0,6.0415,6.0415,6.0415,0.0,0.0,0.0,0.0,0.0,0.0,0.0,0.0,0.0,0.0,6.129,0.0,0.0,0.0,6.3572,6.2977,0.0,0.0,6.4466,6.4504,6.5834,6.6789,6.7633,6.8474,6.9112,6.9523,6.9308,0.0,6.7773,6.6468,6.6194,6.5783,6.4508,6.5659,6.7152,6.8295,6.939,7.0796,7.279,7.3074,7.3378,7.4182,7.4532,7.5119,7.6116,7.6498,7.7148,7.818,7.9364,8.0014,8.0014,8.032,8.0506,8.0506,8.0506,8.0506,8.0506,8.0506,8.0506,8.0506,8.0506,8.0506,8.0506,8.0506,8.0506,8.0506,8.0506,8.0506,8.0506,8.0506,8.0506,8.0506,8.0506,8.0505,8.0569,8.0641,8.0741,8.0962,0.0,0.0,0.0,0.0,0.0,5.7282,5.7375,5.7498,5.7571,5.7534,5.7757,5.8012,5.8293,5.9314,6.0058,6.0127,0.0,0.0,0.0,0.0,0.0,0.0,0.0,0.0,0.0,0.0,5.8002,5.8002,5.8002,5.8342,0.0,0.0,5.9401,6.0064,0.0,0.0,0.0,0.0,0.0,0.0,0.0,0.0,0.0,0.0,0.0,0.0,0.0,0.0,0.0,0.0,0.0,0.0,0.0,0.0,0.0,0.0,6.3534,6.3851,6.5615,6.6785,6.7702,6.8572,6.9015,6.9079,0.0,0.0,6.6538,6.501,6.4784,6.4604,6.3822,6.5316,6.708,6.8294,6.937,7.0548,7.1912,7.1998,7.2228,7.3067,7.3789,7.477,7.6193,7.7033,7.8065,7.956,8.0167,8.0506,8.0506,8.0506,8.0506,8.0506,8.0506,8.0506,8.0506,8.0506,8.0506,8.0506,8.0506,8.0506,8.0506,8.0506,8.0506,8.0506,8.0506,8.0506,8.0506,8.0506,8.0506,8.0544,8.0773,8.0892,8.0994,8.1256,8.1464,8.1658,0.0,0.0,0.0,0.0,0.0,0.0,5.7394,5.7498,5.7541,5.7412,5.751,5.7528,5.7226,5.8892,6.0002,6.0002,0.0,0.0,0.0,0.0,0.0,0.0,0.0,0.0,0.0,0.0,5.8002,5.8002,5.8002,5.822,5.8607,5.8607,5.8831,5.9238,0.0,0.0,0.0,0.0,0.0,0.0,0.0,0.0,0.0,0.0,0.0,0.0,0.0,0.0,0.0,0.0,0.0,0.0,0.0,0.0,0.0,0.0,6.2033,6.2165,6.4196,6.5638,6.681,6.7626,6.7867,6.7915,0.0,6.6259,6.4719,6.4713,6.4076,6.365,6.402,6.5731,6.7367,6.8275,6.9087,7.007,7.1413,7.1277,7.1341,7.219,7.3446,7.4545,7.5433,7.7802,7.9598,8.0434,8.0506,8.0506,8.0506,8.0506,8.0506,8.0506,8.0506,8.0506,8.0506,8.0506,8.0506,8.0506,8.0506,8.0506,8.0506,8.0506,8.0506,8.0506,8.0506,8.0506,8.0506,8.0506,8.0506,8.0582,8.1461,8.1805,8.1896,8.284,8.3183,8.3202,0.0,0.0,0.0,0.0,0.0,0.0,0.0,5.7369,5.7406,5.727,5.7449,5.7704,5.7981,5.9213,6.0215,6.0756,0.0,0.0,0.0,0.0,0.0,0.0,0.0,0.0,0.0,0.0,5.8002,5.8002,5.8002,5.8214,5.8597,5.8597,5.8826,5.9215,5.9343,5.9392,0.0,0.0,0.0,0.0,0.0,0.0,0.0,0.0,0.0,0.0,0.0,0.0,0.0,0.0,0.0,0.0,0.0,0.0,0.0,0.0,0.0,0.0,6.4415,6.5479,6.6242,6.8189,6.8068,6.7276,6.6734,6.5416,6.4138,6.3505,6.3198,6.326,6.3981,6.5958,6.7521,6.7578,6.8905,6.9808,6.9448,6.9786,7.0359,7.1179,7.426,7.6774,7.7971,7.9331,8.0243,8.0468,8.0506,8.0506,8.0506,8.0506,8.0506,8.0506,8.0506,8.0506,8.0506,8.0506,8.0506,8.0506,8.0506,8.0506,8.0506,8.0506,8.0506,8.0506,8.0506,8.085,8.1385,8.1385,8.169,8.223,8.2498,8.2612,8.2655,8.2956,8.3127,8.3264,0.0,0.0,0.0,0.0,0.0,0.0,0.0,5.7264,5.7289,5.7201,5.7338,5.7721,5.8401,5.939,6.0349,6.1197,0.0,0.0,0.0,0.0,0.0,0.0,0.0,0.0,0.0,5.8002,5.8002,5.8002,5.8002,5.8119,5.8375,5.8375,5.8524,5.875,5.8915,5.8988,0.0,0.0,0.0,0.0,0.0,0.0,5.9554,0.0,0.0,0.0,0.0,0.0,0.0,0.0,0.0,0.0,0.0,0.0,0.0,0.0,0.0,0.0,0.0,6.4987,6.5823,6.766,6.7275,0.0,0.0,6.4427,6.3466,6.2903,6.3056,6.3649,6.4794,6.6739,6.8065,6.7886,6.9128,6.9763,6.8712,6.918,7.0196,7.1795,7.4671,7.7176,7.8826,7.9742,8.0263,8.0497,8.0506,8.0506,8.0506,8.0506,8.0506,8.0506,8.0506,8.0506,8.0506,8.0506,8.0506,8.0506,8.0506,8.0506,8.0511,8.085,8.1003,8.1003,8.1313,8.1733,0.0,8.2264,8.2536,8.3037,8.3343,8.3496,8.3529,8.3835,8.3988,8.4156,0.0,0.0,0.0,0.0,0.0,0.0,0.0,5.7195,5.7195,5.7195,5.7195,5.7565,5.8568,5.9404,6.0314,6.1329,0.0,0.0,0.0,0.0,0.0,0.0,0.0,0.0,0.0,5.8002,5.8002,5.8002,5.8002,5.8002,5.8002,5.8002,5.8002,5.802,5.8396,5.855,0.0,0.0,0.0,0.0,0.0,0.0,0.0,0.0,0.0,0.0,0.0,0.0,0.0,0.0,0.0,0.0,0.0,0.0,0.0,0.0,0.0,0.0,0.0,0.0,0.0,0.0,0.0,0.0,0.0,0.0,0.0,6.2793,6.3503,6.4573,6.6182,6.776,6.8818,6.8892,6.9522,6.9743,6.9002,6.9412,7.0847,7.3695,7.4779,7.6161,7.8317,7.9199,7.9885,8.0397,8.0426,8.0478,8.0506,8.0506,8.0506,8.0506,8.0506,8.0506,8.0506,8.0506,8.0506,8.0506,8.0549,8.0582,8.0621,8.1499,8.1881,8.192,8.2689,8.3037,8.3076,8.3076,8.3114,8.3267,8.4064,8.4408,8.4485,8.5201,8.5506,8.5506,0.0,0.0,0.0,0.0,0.0,0.0,0.0,0.0,0.0,0.0,5.7195,5.7789,5.935,5.9252,5.9711,0.0,0.0,0.0,0.0,0.0,0.0,0.0,0.0,0.0,0.0,5.8002,5.8002,5.8002,5.8002,5.8002,5.8002,5.8002,5.8002,5.8002,5.8085,5.8136,5.8153,0.0,0.0,0.0,0.0,0.0,0.0,0.0,0.0,0.0,5.8297,5.8231,0.0,0.0,0.0,0.0,0.0,0.0,0.0,0.0,6.0046,0.0,0.0,0.0,0.0,0.0,0.0,0.0,0.0,0.0,0.0,0.0,0.0,6.4573,6.6182,6.7327,6.8171,6.8781,6.9075,6.9112,6.8928,7.0588,7.2666,7.499,7.6017,7.7089,7.8649,7.896,7.9323,7.9869,7.9901,8.005,8.0492,8.0506,8.0506,8.0506,8.0506,8.0506,8.0506,8.0506,8.0506,8.0511,8.1194,8.1499,8.1538,8.2345,8.2727,8.2727,8.2918,8.3376,8.3988,8.3988,8.4365,8.4938,8.5124,8.5201,8.5239,8.543,8.5506,8.5506,0.0,0.0,0.0,0.0,0.0,0.0,0.0,0.0,0.0,0.0,0.0,0.0,0.0,0.0,0.0,0.0,0.0,0.0,0.0,0.0,0.0,0.0,0.0,0.0,5.8002,5.8002,5.8002,5.8002,5.8002,5.8002,5.8002,5.8002,5.8002,5.8002,5.8002,5.8002,5.8014,5.8203,5.8282,5.8337,5.8513,0.0,0.0,0.0,0.0,0.0,5.8002,5.8002,0.0,5.8002,5.8002,5.8002,0.0,0.0,0.0,0.0,6.0591,6.2438,6.3729,6.4677,6.5405,6.5845,0.0,0.0,0.0,0.0,0.0,0.0,0.0,6.5705,6.7283,6.8244,0.0,6.9376,6.9449,6.9589,6.9956,7.113,7.2801,7.5057,7.5721,7.6655,7.8352,7.8523,7.8747,7.9306,7.934,7.946,7.9757,7.9999,8.0144,8.0144,8.0373,8.0506,8.0506,8.0888,8.1117,8.1117,8.1958,8.2345,8.2378,8.3224,8.3606,8.3606,8.3988,8.4403,8.4862,8.4862,8.5129,8.5506,8.5506,8.5506,8.5506,8.5506,8.5506,8.5506,0.0,0.0,0.0,0.0,0.0,0.0,0.0,0.0,0.0,0.0,0.0,0.0,0.0,0.0,0.0,0.0,0.0,0.0,0.0,0.0,0.0,0.0,0.0,5.8002,5.8002,5.8002,5.8002,5.8002,5.8002,5.8002,5.8002,5.8002,5.8002,5.8002,5.8002,5.8002,5.8025,5.8364,5.8304,5.8037,5.8375,0.0,0.0,0.0,0.0,0.0,0.0,0.0,0.0,5.8002,5.8002,5.8002,5.8002,0.0,0.0,0.0,0.0,0.0,6.4059,6.4861,6.5441,6.5325,0.0,0.0,0.0,0.0,0.0,0.0,0.0,0.0,0.0,6.9486,0.0,0.0,7.0007,7.0403,7.1344,7.1674,7.2665,7.4837,7.5197,7.5971,7.7783,7.7981,7.8194,7.8735,7.8773,7.881,7.8891,7.9409,7.9703,7.9703,8.0366,8.0697,8.0697,8.1423,8.1843,8.1996,8.2803,8.3185,8.3228,8.4102,8.448,8.4518,8.5201,8.5506,8.5506,8.5506,8.5506,8.5506,8.5506,8.5506,8.5506,8.5506,8.5506,8.5506,0.0,0.0,0.0,0.0,0.0,0.0,0.0,0.0,0.0,0.0,0.0,0.0,0.0,0.0,0.0,0.0,0.0,0.0,0.0,0.0,0.0,5.8002,5.8002,5.8002,5.8002,5.8002,5.8002,5.8002,5.8002,5.8002,5.8002,5.8002,5.8002,5.8002,5.8002,5.8002,5.8002,5.8082,5.8071,5.8008,5.8082,0.0,0.0,0.0,0.0,0.0,0.0,0.0,0.0,5.8002,5.8002,5.8002,5.8002,0.0,0.0,0.0,0.0,0.0,6.4891,6.5698,6.6145,6.5472,0.0,0.0,0.0,0.0,0.0,0.0,0.0,0.0,0.0,6.9089,6.9889,0.0,6.9669,7.0624,7.2121,7.3479,7.4727,7.5792,7.6518,7.7063,7.7389,7.7434,7.7629,7.8173,7.8221,7.8436,7.8872,7.9409,7.9703,7.9703,8.0938,8.1614,8.1614,8.1729,8.2149,8.2846,8.3682,8.4102,8.4141,8.4938,8.5315,8.5315,8.5468,8.5506,8.5506,8.5506,8.5506,8.5506,8.5506,8.5506,8.5506,8.5506,8.5506,8.5506,0.0,0.0,0.0,0.0,0.0,0.0,0.0,0.0,0.0,0.0,0.0,0.0,0.0,0.0,0.0,0.0,0.0,0.0,0.0,0.0,0.0,5.8002,5.8002,5.8002,5.8002,5.8002,5.8002,5.8002,5.8002,5.8002,5.8002,5.8002,5.8002,5.8002,5.8002,5.8002,5.8002,5.8002,5.8002,5.8002,0.0,0.0,0.0,0.0,0.0,0.0,0.0,0.0,0.0,0.0,5.8002,5.8002,5.8002,0.0,0.0,0.0,0.0,0.0,6.5074,6.5882,6.6329,6.5515,0.0,0.0,0.0,0.0,0.0,0.0,0.0,0.0,0.0,0.0,7.0617,7.0243,7.0139,7.0814,7.2863,7.3413,7.4213,7.5909,7.6416,7.6812,7.7244,7.7281,7.7411,7.7636,7.7658,7.7782,7.803,7.8561,7.9041,7.9454,8.0403,8.1336,8.2239,8.2505,8.3028,8.372,8.4556,8.4938,8.4976,8.5315,8.5506,8.5506,8.5506,8.5506,8.5506,8.5506,8.5506,8.5506,8.5506,8.5506,8.5506,8.5506,8.5506,8.5506,0.0,0.0,0.0,0.0,0.0,0.0,0.0,0.0,0.0,0.0,0.0,0.0,0.0,0.0,0.0,0.0,0.0,0.0,0.0,0.0,5.8002,5.8002,5.8002,5.8002,5.8002,5.8002,5.8002,5.8002,5.8002,5.8002,5.8002,5.8002,5.8002,5.8002,5.8002,5.8002,5.8002,5.8002,5.8002,5.8002,0.0,0.0,0.0,0.0,0.0,0.0,0.0,0.0,0.0,0.0,0.0,0.0,0.0,0.0,0.0,6.141,6.3068,6.4537,6.5148,6.5882,6.6329,0.0,0.0,0.0,0.0,0.0,0.0,0.0,0.0,0.0,0.0,7.058,7.1087,7.127,7.0947,7.1438,7.3678,7.3597,7.4111,7.6122,7.6379,7.6636,7.7244,7.7281,7.7281,7.7281,7.7281,7.7281,7.7281,7.7826,7.8455,7.9272,8.0016,8.1118,8.2576,8.3198,8.3799,8.4411,8.5156,8.5506,8.5506,8.5506,8.5506,8.5506,8.5506,8.5506,8.5506,8.5506,8.5506,8.5506,8.5506,8.5506,8.5506,8.5506,8.5506,8.5506,0.0,0.0,0.0,0.0,0.0,0.0,0.0,0.0,0.0,0.0,0.0,0.0,0.0,0.0,0.0,0.0,0.0,0.0,0.0,0.0,5.8002,5.8002,5.8002,5.8002,5.8002,5.8002,5.8002,5.8002,5.8002,5.8002,5.8002,5.8002,5.8002,5.8002,5.8002,5.8002,5.8002,5.8002,5.8002,5.8002,5.8002,0.0,0.0,0.0,0.0,0.0,0.0,0.0,0.0,0.0,0.0,0.0,0.0,0.0,6.0633,6.2242,6.3894,6.5221,6.5295,6.5882,6.6329,6.5515,0.0,0.0,0.0,0.0,0.0,0.0,0.0,0.0,0.0,7.0153,7.044,7.1197,7.1865,7.2892,7.4573,7.5425,7.6195,7.7105,7.7215,7.7252,7.7281,7.7281,7.7281,7.7281,7.7281,7.7281,7.7281,7.7826,7.8455,7.9272,8.0597,8.1701,8.2576,8.3436,8.4155,8.4698,8.5237,8.5506,8.5506,8.5506,8.5506,8.5506,8.5506,8.5506,8.5506,8.5506,8.5506,8.5506,8.5506,8.5506,8.5506,8.5506,8.5506,8.5506,0.0,0.0,0.0,0.0,0.0,0.0,0.0,0.0,0.0,0.0,0.0,0.0,0.0,0.0,0.0,0.0,0.0,0.0,0.0,5.8002,5.8002,5.8002,5.8002,5.8002,5.8002,5.8002,5.8002,5.8002,5.8002,5.8002,5.8002,5.8002,5.8002,5.8002,5.8002,5.8002,5.8002,5.8002,5.8002,5.8002,5.8002,5.8002,0.0,0.0,0.0,0.0,0.0,0.0,0.0,0.0,5.8321,5.8792,0.0,6.012,6.1484,6.3135,6.4414,6.5398,6.5919,6.6629,6.6923,6.5625,0.0,0.0,0.0,0.0,0.0,0.0,0.0,0.0,0.0,0.0,7.1094,7.1938,7.2716,7.3817,7.5432,7.5909,7.6379,7.7208,7.7281,7.7281,7.7281,7.7281,7.7281,7.7281,7.7281,7.7281,7.7281,7.8003,7.8772,7.9591,8.0592,8.1718,8.2834,8.3562,8.4174,8.4717,8.4898,8.4986,8.4991,8.5347,8.5506,8.5506,8.5506,8.5506,8.5506,8.5506,8.5506,8.5506,8.5506,8.5506,8.5506,8.5506,8.5506,8.5506,0.0,0.0,0.0,0.0,0.0,0.0,0.0,0.0,0.0,0.0,0.0,0.0,0.0,0.0,0.0,0.0,0.0,0.0,5.7991,5.8002,5.8002,5.8002,5.8002,5.8002,5.8002,5.8002,5.8002,5.8002,5.8002,5.8002,5.8002,5.8002,5.8002,5.8002,5.8002,5.8002,5.8002,5.8002,5.8002,5.8002,5.8002,5.8002,0.0,0.0,0.0,0.0,0.0,0.0,0.0,0.0,5.8541,5.9227,0.0,0.0,6.2328,0.0,6.4861,6.5478,6.6292,6.6739,6.6659,0.0,0.0,0.0,0.0,0.0,0.0,0.0,0.0,0.0,0.0,0.0,0.0,7.2415,7.3377,7.4551,7.5909,7.6306,7.6673,7.7244,7.7281,7.7281,7.7281,7.7281,7.7281,7.7281,7.7281,7.7428,7.7693,7.8295,7.9111,8.0139,8.0718,8.1566,8.2754,8.317,8.3638,8.4149,8.4365,8.461,8.4991,8.5332,8.5506,8.5506,8.5506,8.5506,8.5506,8.5506,8.5506,8.5506,8.5506,8.5506,8.5506,8.5506,8.5506,8.5506,0.0,0.0,0.0,0.0,0.0,0.0,0.0,0.0,0.0,0.0,0.0,0.0,0.0,0.0,0.0,0.0,0.0,0.0,5.8002,5.8002,5.8002,5.8002,5.8002,5.8002,5.8002,5.8002,5.8002,5.8002,5.8002,5.8002,5.8002,5.8002,5.8002,5.8002,5.8002,5.8002,5.8002,5.8002,5.8002,5.8002,5.8002,5.8002,5.8002,0.0,0.0,0.0,0.0,0.0,0.0,0.0,5.8541,0.0,0.0,0.0,0.0,6.4811,6.5288,6.5478,6.6292,6.5919,0.0,0.0,0.0,0.0,0.0,0.0,0.0,0.0,0.0,0.0,7.1454,7.1975,0.0,7.2496,7.3846,7.5204,7.6019,7.6812,7.7281,7.7281,7.7281,7.7281,7.7281,7.7281,7.7281,7.7281,7.7281,7.7693,7.8552,7.8589,7.936,8.093,8.1004,8.1415,8.2203,8.2203,8.2465,8.3002,8.3624,8.4456,8.5501,8.5506,8.5506,8.5506,8.5506,8.5506,8.5506,8.5506,8.5506,8.5506,8.5506,8.5506,8.5506,8.5506,8.5506,8.5506,0.0,0.0,0.0,0.0,0.0,0.0,0.0,0.0,0.0,0.0,0.0,0.0,0.0,0.0,0.0,0.0,0.0,0.0,5.8002,5.8002,5.8002,5.8002,5.8002,5.8002,5.8002,5.8002,5.8002,5.8002,5.8002,5.8002,5.8002,5.8002,5.8002,5.8002,5.8002,5.8002,5.8002,5.8002,5.8002,5.8002,5.8002,5.8002,5.8002,0.0,0.0,0.0,0.0,0.0,0.0,0.0,0.0,0.0,6.1006,0.0,6.3906,6.5001,6.5288,6.5478,6.6292,6.6329,0.0,6.6145,0.0,0.0,0.0,0.0,0.0,0.0,7.2342,7.2268,7.1454,7.2415,7.3347,7.3347,7.4698,7.6012,7.6812,7.7134,7.7281,7.7281,7.7281,7.7281,7.7281,7.7281,7.7281,7.7281,7.7281,7.7693,7.8552,7.9147,7.9918,8.0967,8.1562,8.2126,8.2777,8.274,8.3068,8.3645,8.3819,8.4267,8.4937,8.5332,8.5506,8.5506,8.5506,8.5506,8.5506,8.5506,8.5506,8.5506,8.5506,8.5506,8.5506,8.5506,8.5506,8.5506,0.0,0.0,0.0,0.0,0.0,0.0,0.0,0.0,0.0,0.0,0.0,0.0,0.0,0.0,0.0,0.0,0.0,0.0,0.0,5.8002,5.8002,5.8002,5.8002,5.8002,5.8002,5.8002,5.8002,5.8002,5.8002,5.8002,5.8002,5.8002,5.8002,5.8002,5.8002,5.8002,5.8002,5.8002,5.8002,5.8002,5.8002,5.8002,5.8002,0.0,0.0,0.0,0.0,0.0,0.0,0.0,0.0,0.0,6.1814,6.3246,6.4677,6.5148,6.5515,6.5882,6.6366,6.6733,0.0,6.7357,6.8311,6.9486,7.077,0.0,0.0,0.0,7.2488,7.2342,7.1865,7.2826,7.3788,7.4111,7.5249,7.6379,7.7179,7.7281,7.7281,7.7281,7.7281,7.7281,7.7281,7.7281,7.7281,7.7281,7.7281,7.781,7.9001,7.9559,8.0322,8.1452,8.1929,8.2351,8.2678,8.2685,8.2972,8.3549,8.3549,8.3852,8.4396,8.4925,8.5306,8.5506,8.5506,8.5506,8.5506,8.5506,8.5506,8.5506,8.5506,8.5506,8.5506,8.5506,8.5506,8.5506,0.0,0.0,0.0,0.0,0.0,0.0,0.0,0.0,0.0,0.0,0.0,0.0,0.0,0.0,0.0,0.0,0.0,0.0,0.0,0.0,5.8002,5.8002,5.8002,5.8002,5.8002,5.8002,5.8002,5.8002,5.8002,5.8002,5.8002,5.8002,5.8002,5.8002,5.8002,5.8002,5.8002,5.8002,5.8002,5.8002,5.8002,5.8002,5.8002,5.8002,0.0,0.0,0.0,0.0,0.0,0.0,0.0,0.0,6.2652,6.404,6.5405,6.5325,6.5882,6.6476,6.6402,6.7033,6.7877,6.8708,7.0169,0.0,7.2342,7.2488,7.2488,7.2488,0.0,7.2525,7.2606,7.3266,7.4074,7.4874,7.5682,7.6452,7.7208,7.7281,7.7281,7.7281,7.7281,7.7281,7.7281,7.7281,7.7318,7.7399,7.7428,7.8141,7.9808,7.9918,8.0616,8.2158,8.2194,8.2194,8.2194,8.2194,8.2426,8.2935,8.2935,8.3234,8.3839,8.4384,8.4887,8.5352,8.5393,8.5413,8.5413,8.5491,8.5506,8.5506,8.5506,8.5506,8.5506,8.5506,8.5506,8.5506,0.0,0.0,0.0,0.0,0.0,0.0,0.0,0.0,0.0,0.0,0.0,0.0,0.0,0.0,0.0,0.0,0.0,0.0,0.0,0.0,5.8002,5.8002,5.8002,5.8002,5.8002,5.8002,5.8002,5.8002,5.8002,5.8002,5.8002,5.8002,5.8002,5.8002,5.8002,5.8002,5.8002,5.8002,5.8002,5.8002,5.8002,5.8002,5.8002,5.8002,5.8002,0.0,0.0,0.0,0.0,0.0,0.0,0.0,6.3546,6.4934,6.6109,6.5478,6.5882,6.6366,6.5735,6.6623,6.7877,6.8708,7.058,7.2305,7.2452,7.2488,7.2488,7.2488,7.2488,7.2679,7.334,7.4111,7.4911,7.5718,7.6526,7.7105,7.7281,7.7281,7.7281,7.7281,7.7281,7.7281,7.7281,7.7281,7.7582,7.8259,7.8332,7.9029,8.0645,8.0755,8.1195,8.2158,8.2194,8.2194,8.2194,8.2194,8.2267,8.2375,8.2375,8.2647,8.3212,8.3812,8.4136,8.4267,8.4705,8.487,8.4898,8.5332,8.5506,8.5506,8.5506,8.5506,8.5506,8.5506,8.5506,8.5506,0.0,0.0,0.0,0.0,0.0,0.0,0.0,0.0,0.0,0.0,0.0,0.0,0.0,0.0,0.0,0.0,0.0,0.0,0.0,0.0,5.8002,5.8002,5.8002,5.8002,5.8002,5.8002,5.8002,5.8002,5.8002,5.8002,0.0,5.8002,5.8002,5.8002,5.8002,5.8002,5.8002,5.8002,5.8002,5.8002,5.8002,5.8002,5.8033,5.8431,5.8578,0.0,0.0,0.0,0.0,0.0,0.0,0.0,0.0,0.0,6.5845,6.5405,6.5588,6.5919,6.5882,6.7063,6.8641,7.022,7.1578,7.2488,7.2488,7.2488,7.2488,7.2488,7.2488,7.2753,7.3567,7.4368,7.5168,7.5983,7.6783,7.7281,7.7281,7.7281,7.7281,7.7281,7.7281,7.7281,7.7281,7.7693,7.8104,7.8552,7.8964,7.969,8.093,8.1004,8.1379,8.2158,8.2194,8.2194,8.2194,8.2194,8.2194,8.2194,8.2194,8.2343,8.2639,8.3508,8.3898,8.3918,8.4199,8.4317,8.4341,8.4604,8.4881,8.5121,8.5121,8.5285,8.5506,8.5506,8.5506,8.5506,0.0,0.0,0.0,0.0,0.0,0.0,0.0,0.0,0.0,0.0,0.0,0.0,0.0,0.0,0.0,0.0,0.0,0.0,0.0,0.0,0.0,5.8002,5.8002,5.8002,5.8002,5.8002,5.8002,5.8002,5.8002,0.0,0.0,0.0,0.0,5.8002,5.8002,5.8002,5.8002,5.8002,5.8002,5.7997,5.8143,5.8217,5.829,5.9086,0.0,0.0,0.0,0.0,0.0,0.0,0.0,0.0,0.0,0.0,6.5251,6.5148,6.5295,6.5625,6.6145,6.7687,6.9662,7.1945,7.2488,7.2488,7.2488,7.2488,7.2532,7.2679,7.2716,7.2936,7.3751,7.4544,7.5388,7.6159,7.6885,7.7281,7.7281,7.7281,7.7281,7.7281,7.7281,7.7355,7.7509,7.8177,7.8699,7.8993,7.9625,8.0359,8.1158,8.1232,8.1525,8.2194,8.2194,8.2194,8.2194,8.2194,8.2194,8.2194,8.2194,8.2194,8.2227,8.3185,8.3604,8.3611,8.3706,8.3746,8.3759,8.3859,8.4167,8.4551,8.4551,8.4836,8.5254,8.5332,8.5357,8.5368,0.0,0.0,0.0,0.0,0.0,0.0,0.0,0.0,0.0,0.0,0.0,0.0,0.0,0.0,0.0,0.0,0.0,0.0,0.0,0.0,0.0,5.8002,5.8002,5.8002,5.8002,5.8002,5.8002,5.8002,0.0,0.0,0.0,0.0,0.0,5.8002,0.0,5.8002,5.8002,5.8002,5.8002,5.807,5.8756,5.9049,5.9123,0.0,0.0,0.0,0.0,0.0,0.0,0.0,6.3986,0.0,0.0,0.0,6.5148,6.4463,6.5264,6.6219,6.5625,6.765,7.033,7.2055,7.2488,7.2488,7.2488,7.2488,7.2716,7.3384,7.3531,7.378,7.4581,7.5388,7.6195,7.6995,7.7244,7.7281,7.7281,7.7281,7.7281,7.7281,7.7281,7.7582,7.8369,7.8516,7.9176,8.0563,8.0791,8.1195,8.2011,8.2039,8.2084,8.2194,8.2194,8.2194,8.2194,8.2194,8.2194,8.2194,8.2194,8.2194,8.2203,8.2351,8.2431,8.2463,8.292,8.3111,8.3155,8.3692,8.3944,8.4008,8.4008,8.4053,8.4174,8.4659,8.4814,8.487,0.0,0.0,0.0,0.0,0.0,0.0,0.0,0.0,0.0,0.0,0.0,0.0,0.0,0.0,0.0,0.0,0.0,0.0,0.0,0.0,0.0,5.8002,5.8002,5.8002,5.8002,5.8002,5.8002,5.8002,0.0,0.0,0.0,5.8688,5.8431,0.0,0.0,0.0,0.0,0.0,0.0,5.9391,5.9716,0.0,0.0,0.0,0.0,0.0,0.0,0.0,0.0,0.0,0.0,6.4818,6.5185,0.0,0.0,0.0,6.461,6.5485,6.691,6.9002,7.1057,7.2195,7.2488,7.2488,7.2488,7.2863,7.3266,7.3641,7.4412,7.5139,7.5498,7.5873,7.6342,7.7171,7.7281,7.7281,7.7281,7.7281,7.7281,7.7281,7.7729,7.8177,7.8552,7.9433,8.0241,8.093,8.1415,8.1819,8.2194,8.2194,8.2194,8.2194,8.2194,8.2194,8.2194,8.2194,8.2194,8.2194,8.2194,8.2194,8.2194,8.2194,8.2194,8.2211,8.2434,8.256,8.2583,8.2845,8.3134,8.3431,8.3772,8.4085,8.4408,8.4937,8.5142,8.5174,0.0,0.0,0.0,0.0,0.0,0.0,0.0,0.0,0.0,0.0,0.0,0.0,0.0,0.0,0.0,0.0,0.0,0.0,0.0,0.0,0.0,5.8002,5.8002,5.8002,5.8002,5.8002,5.8107,0.0,0.0,0.0,5.949,5.949,5.9196,0.0,5.9233,0.0,0.0,0.0,0.0,0.0,0.0,0.0,0.0,0.0,0.0,0.0,0.0,0.0,0.0,0.0,0.0,0.0,0.0,6.442,0.0,0.0,0.0,6.5638,6.8458,7.025,7.149,7.2305,7.2488,7.2562,7.2753,7.3266,7.3824,7.4228,7.5249,7.6166,7.6379,7.6416,7.6599,7.7208,7.7281,7.7281,7.7281,7.7281,7.7391,7.7582,7.8214,7.8772,7.9176,8.0306,8.1077,8.1297,8.1856,8.2194,8.2194,8.2194,8.2194,8.2194,8.2194,8.2194,8.2194,8.2194,8.2194,8.2194,8.2194,8.2194,8.2194,8.2194,8.2194,8.2194,8.2194,8.2194,8.2194,8.2194,8.2455,8.2831,8.3276,8.3719,8.4167,8.4842,8.51,8.5132,0.0,0.0,0.0,0.0,0.0,0.0,0.0,0.0,0.0,0.0,0.0,0.0,0.0,0.0,0.0,5.7979,5.8002,5.8002,5.8002,5.8002,5.8002,5.8002,5.8002,0.0,5.8002,5.8002,0.0,0.0,0.0,0.0,6.034,6.034,6.0303,6.0266,6.0303,6.034,6.034,0.0,0.0,0.0,0.0,0.0,0.0,0.0,0.0,0.0,0.0,0.0,0.0,0.0,0.0,0.0,0.0,0.0,0.0,0.0,0.0,0.0,6.9566,7.0653,7.149,7.2305,7.2488,7.2716,7.3457,7.3678,7.4118,7.5652,7.6056,7.6342,7.7105,7.7252,7.7244,7.7281,7.7281,7.7281,7.7281,7.7281,7.7619,7.8442,7.8552,7.9213,8.071,8.093,8.1342,8.2084,8.2194,8.2194,8.2194,8.2194,8.2194,8.2194,8.2194,8.2194,8.2194,8.2194,8.2194,8.2194,8.2194,8.2194,8.2194,8.2194,8.2194,8.2194,8.2194,8.2194,8.2194,8.2194,8.2211,8.2251,8.2292,8.2324,8.2479,8.357,8.3983,8.4136,0.0,0.0,0.0,0.0,0.0,0.0,0.0,0.0,0.0,0.0,0.0,0.0,0.0,5.7227,5.7655,5.7869,5.7956,5.8002,5.8002,5.8002,5.8002,5.8002,5.8002,5.8002,5.8002,5.8505,0.0,0.0,0.0,6.0376,6.1153,6.1153,6.1447,6.1912,6.141,6.1153,6.119,6.1734,0.0,0.0,0.0,0.0,0.0,0.0,0.0,0.0,0.0,0.0,0.0,0.0,0.0,0.0,0.0,0.0,0.0,0.0,0.0,6.8171,7.0286,7.1087,7.138,7.1674,7.2496,7.3193,7.2973,7.4147,7.5395,7.5983,7.6526,7.6959,7.7244,7.7281,7.7281,7.7281,7.7281,7.7281,7.7281,7.7281,7.7619,7.8516,7.9074,7.9808,8.0893,8.1489,8.1893,8.2194,8.2194,8.2194,8.2194,8.2194,8.2194,8.2194,8.2194,8.2194,8.2194,8.2194,8.2194,8.2194,8.2194,8.2194,8.2194,8.2194,8.2194,8.2194,8.2194,8.2194,8.2194,8.2194,8.2194,8.2235,8.2591,8.2716,8.2793,8.3611,8.3898,8.3957,0.0,0.0,0.0,0.0,0.0,0.0,0.0,0.0,0.0,0.0,0.0,0.0,0.0,0.0,5.7394,5.7786,5.7886,5.7956,5.7997,5.8002,5.8002,5.8002,5.8253,5.8394,5.8394,0.0,0.0,0.0,0.0,0.0,0.0,6.1998,6.2285,6.2793,6.2248,6.1998,0.0,0.0,0.0,6.2903,0.0,0.0,6.5288,0.0,0.0,0.0,0.0,0.0,0.0,0.0,0.0,0.0,0.0,0.0,0.0,0.0,0.0,0.0,7.0866,7.149,7.1637,7.138,7.2305,7.3237,7.2973,7.4368,7.5828,7.6379,7.6922,7.7281,7.7281,7.7281,7.7281,7.7281,7.7281,7.7281,7.7281,7.7546,7.8067,7.889,7.9698,8.0506,8.1305,8.1893,8.2194,8.2194,8.2194,8.2194,8.2194,8.2194,8.2194,8.2194,8.2194,8.2194,8.2194,8.2194,8.2194,8.2194,8.2194,8.2194,8.2194,8.2194,8.2194,8.2194,8.2194,8.2194,8.2194,8.2194,8.2194,8.2235,8.2569,8.2739,8.2785,8.3382,8.3604,8.3631,0.0,0.0,0.0,0.0,0.0,0.0,0.0,0.0,0.0,0.0,0.0,0.0,0.0,0.0,0.0,5.7679,5.7786,5.7845,5.7985,5.8033,5.8033,5.8033,5.8798,5.9227,5.9227,0.0,0.0,0.0,0.0,0.0,0.0,0.0,6.2793,0.0,6.2793,6.2793,6.2793,0.0,6.2793,6.2939,0.0,6.5282,6.5262,0.0,0.0,0.0,6.4725,6.4224,0.0,0.0,0.0,0.0,0.0,0.0,0.0,0.0,0.0,0.0,0.0,0.0,0.0,7.149,7.1938,7.2716,7.3494,7.4294,7.5344,7.6959,7.7244,7.7281,7.7281,7.7281,7.7281,7.7281,7.7281,7.7281,7.7281,7.8067,7.889,7.9706,8.0498,8.1342,8.2121,8.2194,8.2194,8.2194,8.2194,8.2194,8.2194,8.2194,8.2194,8.2194,8.2194,8.2194,8.2194,8.2194,8.2194,8.2194,8.2194,8.2194,8.2194,8.2194,8.2194,8.2194,8.2194,8.2194,8.2194,8.2194,8.2194,8.2194,8.2194,8.2194,8.2276,8.277,8.2995,8.3046,0.0,0.0,0.0,0.0,0.0,0.0,0.0,0.0,0.0,0.0,0.0,0.0,0.0,0.0,0.0,5.6819,5.6961,5.7246,5.7834,5.8406,5.8772,5.886,5.9636,6.0083,6.0083,6.086,0.0,0.0,0.0,0.0,0.0,0.0,0.0,0.0,6.2793,6.2793,6.2793,6.2793,0.0,0.0,6.4628,6.4972,0.0,0.0,0.0,0.0,0.0,6.5996,0.0,0.0,6.6853,6.6335,0.0,0.0,0.0,0.0,0.0,0.0,7.2011,0.0,0.0,0.0,0.0,0.0,7.2899,7.3883,7.5204,7.6232,7.6416,7.6599,7.7171,7.7281,7.7281,7.7281,7.7281,7.7281,7.7281,7.8067,7.889,7.9706,8.0498,8.1342,8.2121,8.2194,8.2194,8.2194,8.2194,8.2194,8.2194,8.2194,8.2194,8.2194,8.2194,8.2194,8.2194,8.2194,8.2194,8.2194,8.2194,8.2194,8.2194,8.2194,8.2194,8.2194,8.2194,8.2194,8.2194,8.2194,8.2194,8.2194,8.2194,8.2194,8.2219,8.2367,8.2431,8.2463,0.0,0.0,0.0,0.0,0.0,0.0,0.0,0.0,0.0,0.0,0.0,0.0,0.0,0.0,0.0,5.6972,5.7113,5.7377,5.7854,5.8584,5.9041,5.9116,6.0163,6.075,6.0805,6.1624,0.0,0.0,0.0,0.0,0.0,0.0,0.0,0.0,0.0,0.0,0.0,0.0,0.0,0.0,6.4294,0.0,0.0,6.6069,6.6245,0.0,0.0,0.0,6.6911,6.7953,6.7949,0.0,0.0,0.0,0.0,0.0,0.0,0.0,0.0,0.0,0.0,0.0,0.0,0.0,7.3046,7.3993,7.5234,7.6379,7.6599,7.6738,7.7215,7.7281,7.7281,7.7281,7.7281,7.7281,7.7281,7.8067,7.889,7.9706,8.0498,8.1342,8.2121,8.2194,8.2194,8.2194,8.2194,8.2194,8.2194,8.2194,8.2194,8.2194,8.2194,8.2194,8.2194,8.2194,8.2194,8.2194,8.2194,8.2194,8.2194,8.2194,8.2194,8.2194,8.2194,8.2194,8.2194,8.2194,8.2194,8.2194,8.2194,8.2194,8.2194,8.2194,8.2194,8.2194,0.0,0.0,0.0,0.0,0.0,0.0,0.0,0.0,0.0,0.0,0.0,0.0,0.0,0.0,0.0,0.0,5.7672,5.7771,5.7954,5.8624,5.9013,5.9034,6.0358,6.1167,6.1283,6.2067,6.2262,0.0,0.0,0.0,0.0,0.0,0.0,0.0,0.0,0.0,0.0,0.0,0.0,6.316,6.3997,6.4253,0.0,0.0,6.6286,0.0,6.7196,6.735,6.7171,6.8619,6.9113,0.0,0.0,0.0,0.0,0.0,7.136,0.0,0.0,0.0,0.0,0.0,0.0,0.0,7.3384,7.4103,7.505,7.6592,7.6885,7.6951,7.7142,7.7179,7.7208,7.7289,7.7281,7.7281,7.7281,7.8067,7.889,7.9706,8.0498,8.1342,8.2121,8.2194,8.2194,8.2194,8.2194,8.2194,8.2194,8.2194,8.2194,8.2194,8.2194,8.2194,8.2194,8.2194,8.2194,8.2194,8.2194,8.2194,8.2194,8.2194,8.2194,8.2194,8.2194,8.2194,8.2194,8.2194,8.2194,8.2194,8.2194,8.2194,8.2194,8.2194,8.2194,8.2194,0.0,0.0,0.0,0.0,0.0,0.0,0.0,0.0,0.0,0.0,0.0,0.0,0.0,0.0,0.0,0.0,5.6837,5.7134,5.7802,5.857,5.9031,5.9158,6.0045,6.0561,6.0584,6.1392,6.1506,0.0,0.0,0.0,0.0,0.0,0.0,0.0,0.0,0.0,0.0,0.0,0.0,6.4909,6.5084,0.0,6.3792,6.6015,6.6443,6.5944,6.6778,6.742,6.7958,0.0,6.9488,6.9893,0.0,0.0,0.0,0.0,0.0,0.0,0.0,0.0,0.0,0.0,0.0,0.0,7.2716,7.2863,7.3223,7.4184,7.4404,7.4808,7.6085,7.6342,7.6562,7.7171,7.7281,7.7281,7.7281,7.8067,7.889,7.9706,8.0498,8.1342,8.2121,8.2194,8.2194,8.2194,8.2194,8.2194,8.2194,8.2194,8.2194,8.2194,8.2194,8.2194,8.2194,8.2194,8.2194,8.2194,8.2194,8.2194,8.2194,8.2194,8.2194,8.2194,8.2194,8.2194,8.2194,8.2194,8.2194,8.2194,8.2194,8.2194,8.2194,8.2194,8.2194,8.2194,0.0,0.0,0.0,0.0,0.0,0.0,0.0,0.0,0.0,0.0,0.0,0.0,0.0,0.0,0.0,0.0,0.0,0.0,0.0,5.8548,5.8975,5.9055,5.9792,6.0223,6.0301,6.0713,6.0683,6.0192,0.0,0.0,0.0,0.0,0.0,0.0,0.0,0.0,0.0,0.0,6.3136,6.4027,6.4689,0.0,6.4769,6.6751,6.7057,6.6578,6.7679,6.8057,6.8201,6.8919,6.9138,0.0,0.0,7.0238,7.094,0.0,7.1944,7.1996,0.0,0.0,0.0,7.2415,0.0,0.0,0.0,7.3083,7.334,7.4147,7.4625,7.5139,7.5946,7.6416,7.6812,7.7244,7.7281,7.7281,7.7281,7.7693,7.8405,7.9669,8.0175,8.0873,8.2084,8.2194,8.2194,8.2194,8.2194,8.2194,8.2194,8.2194,8.2194,8.2194,8.2194,8.2194,8.2194,8.2194,8.2194,8.2194,8.2194,8.2194,8.2194,8.2194,8.2194,8.2194,8.2194,8.2194,8.2194,8.2194,8.2194,8.2194,8.2194,8.2194,8.2194,8.2194,8.2194,8.2194,0.0,0.0,0.0,0.0,0.0,0.0,0.0,0.0,0.0,0.0,0.0,0.0,0.0,0.0,0.0,0.0,0.0,0.0,0.0,0.0,5.8875,5.8703,5.9281,5.9652,5.9747,5.9907,5.9787,5.9397,0.0,0.0,0.0,0.0,0.0,0.0,0.0,0.0,0.0,0.0,0.0,6.3424,0.0,6.5145,6.5922,6.748,6.7737,6.7387,6.8559,6.8717,6.8399,6.8847,0.0,6.8635,6.9626,7.0208,0.0,0.0,0.0,0.0,0.0,0.0,0.0,0.0,0.0,7.2679,0.0,0.0,0.0,7.4544,7.5315,7.5909,7.6056,7.6636,7.7069,7.7069,7.7208,7.7244,7.7105,7.7208,7.7839,7.9404,7.9706,8.0359,8.1827,8.1974,8.2048,8.2194,8.2048,8.2039,8.2194,8.2194,8.2194,8.2194,8.2194,8.2194,8.2194,8.2194,8.2194,8.2194,8.2194,8.2194,8.2194,8.2194,8.2194,8.2194,8.2194,8.2194,8.2194,8.2194,8.2194,8.2194,8.2194,8.2194,8.2194,8.2194,8.2194,8.2194,0.0,0.0,0.0,0.0,0.0,0.0,0.0,0.0,0.0,0.0,0.0,0.0,0.0,0.0,0.0,0.0,0.0,0.0,5.8921,0.0,0.0,5.8027,5.8074,5.8171,5.8155,5.8849,5.8926,5.8376,5.9331,0.0,0.0,0.0,0.0,0.0,6.2705,0.0,0.0,0.0,6.4675,0.0,6.5917,6.5811,0.0,6.754,6.8034,6.8,6.8157,6.8621,6.9079,0.0,6.9053,6.9928,0.0,6.9734,7.1124,0.0,0.0,0.0,0.0,0.0,0.0,0.0,7.2488,0.0,0.0,0.0,7.3714,7.3824,0.0,7.5241,7.5983,0.0,0.0,7.624,7.6812,7.7069,7.6342,7.6848,7.7656,7.8626,7.9368,8.0139,8.1048,8.115,8.1415,8.2158,8.1525,8.1452,8.2158,8.2194,8.2194,8.2194,8.2194,8.2194,8.2194,8.2194,8.2194,8.2194,8.2194,8.2194,8.2194,8.2194,8.2194,8.2194,8.2194,8.2194,8.2194,8.2194,8.2194,8.2194,8.2194,8.2194,8.2194,8.2194,8.2194,8.2194,0.0,0.0,0.0,0.0,0.0,0.0,0.0,0.0,0.0,5.7857,0.0,0.0,0.0,0.0,0.0,0.0,0.0,0.0,0.0,0.0,0.0,0.0,5.7891,0.0,5.7891,5.8219,5.8547,5.8842,5.9249,5.9846,0.0,0.0,0.0,0.0,6.3062,0.0,6.4212,0.0,6.5038,0.0,0.0,0.0,0.0,6.7714,6.8404,6.8783,6.8783,6.9301,6.9897,0.0,6.9575,0.0,0.0,0.0,0.0,0.0,0.0,0.0,0.0,0.0,0.0,0.0,0.0,0.0,7.3303,0.0,7.4404,0.0,0.0,0.0,0.0,0.0,0.0,0.0,7.7069,7.7179,7.6848,7.7105,7.7619,7.8516,7.889,7.958,8.0901,8.1004,8.1342,8.2158,8.1452,8.1342,8.2158,8.2194,8.2194,8.2194,8.2194,8.2194,8.2194,8.2194,8.2194,8.2194,8.2194,8.2194,8.2194,8.2194,8.2194,8.2194,8.2194,8.2194,8.2194,8.2194,8.2194,8.2194,8.2194,8.2194,8.2194,8.2194,8.2194,8.2194,0.0,0.0,0.0,0.0,0.0,0.0,0.0,0.0,0.0,0.0,0.0,0.0,5.7891,5.8263,0.0,0.0,0.0,5.9766,0.0,0.0,5.9056,0.0,0.0,0.0,0.0,0.0,5.8632,5.9541,5.9553,6.0136,0.0,0.0,0.0,0.0,0.0,6.4186,6.4703,0.0,6.5472,6.6206,6.6413,6.6955,6.7679,6.8231,6.8921,6.9587,6.9587,7.007,7.068,7.0473,7.0163,7.0059,7.0922,0.0,0.0,0.0,0.0,0.0,7.1609,0.0,0.0,0.0,0.0,0.0,0.0,0.0,0.0,0.0,0.0,0.0,0.0,0.0,0.0,0.0,0.0,7.7208,7.6995,7.7179,7.7546,7.8177,7.8442,7.914,8.0534,8.0461,8.0755,8.1782,8.1122,8.1122,8.2158,8.2194,8.2194,8.2194,8.2194,8.2194,8.2194,8.2194,8.2194,8.2194,8.2194,8.2194,8.2194,8.2194,8.2194,8.2194,8.2194,8.2194,8.2194,8.2194,8.2194,8.2194,8.2194,8.2194,8.2194,8.2194,8.2194,8.2194,0.0,5.7823,0.0,0.0,0.0,0.0,0.0,0.0,0.0,0.0,0.0,0.0,0.0,0.0,0.0,0.0,0.0,6.1646,6.0148,0.0,6.0047,0.0,0.0,0.0,0.0,0.0,0.0,6.0056,6.0278,6.0789,0.0,0.0,0.0,0.0,0.0,6.4669,6.4738,6.5541,6.6309,6.7024,6.7748,6.8507,6.9242,0.0,6.9725,7.037,7.037,7.0853,7.137,7.0646,7.0853,7.1301,7.0646,7.0887,0.0,0.0,0.0,0.0,0.0,0.0,0.0,7.4636,0.0,0.0,0.0,0.0,7.6056,0.0,0.0,0.0,0.0,0.0,0.0,0.0,0.0,0.0,0.0,7.6812,7.7318,7.7355,7.8104,7.8927,7.9779,7.9147,7.9323,8.093,8.0285,8.055,8.2121,8.2194,8.2194,8.2194,8.2194,8.2194,8.2194,8.2194,8.2194,8.2194,8.2194,8.2194,8.2194,8.2194,8.2194,8.2194,8.2194,8.2194,8.2194,8.2194,8.2194,8.2194,8.2194,8.2194,8.2194,8.2194,8.2194,8.2194,0.0,0.0,0.0,0.0,0.0,0.0,0.0,5.7891,0.0,0.0,0.0,0.0,0.0,0.0,6.052,0.0,0.0,6.2188,6.1646,6.1612,0.0,0.0,0.0,5.9979,0.0,0.0,0.0,0.0,0.0,0.0,6.2539,0.0,0.0,0.0,0.0,6.4771,0.0,0.0,0.0,0.0,0.0,6.8887,6.9956,6.9483,6.9759,7.0439,7.0956,7.1646,7.2278,7.2002,7.1715,7.1543,7.1829,7.1381,7.0818,7.106,7.1151,7.1241,7.1774,7.2486,7.3262,7.3998,0.0,0.0,0.0,0.0,0.0,0.0,0.0,0.0,0.0,0.0,0.0,0.0,0.0,0.0,0.0,7.7142,7.7281,7.7281,7.8067,7.8699,7.9001,7.9221,7.9845,8.093,8.0755,8.1048,8.2158,8.2194,8.2194,8.2194,8.2194,8.2194,8.2194,8.2194,8.2194,8.2194,8.2194,8.2194,8.2194,8.2194,8.2194,8.2194,8.2194,8.2194,8.2194,8.2194,8.2194,8.2194,8.2194,8.2194,8.2194,8.2194,8.2194,8.2194,5.7891,0.0,0.0,0.0,0.0,0.0,0.0,0.0,0.0,0.0,5.9394,0.0,6.0791,0.0,6.1694,0.0,6.3024,6.2966,6.2424,6.2651,0.0,6.21,6.1332,0.0,0.0,0.0,0.0,0.0,0.0,6.2087,6.2789,6.2799,0.0,0.0,0.0,6.4734,6.5936,6.5936,6.7015,0.0,0.0,6.9266,7.0335,6.9863,7.0139,7.0887,7.1646,7.2278,7.2692,7.2692,7.2347,7.2026,7.2554,7.2002,7.1301,7.1784,7.1577,7.1383,7.2108,7.2701,7.3283,7.4051,7.5009,7.5819,7.6093,0.0,7.6964,0.0,0.0,0.0,0.0,0.0,0.0,0.0,0.0,0.0,0.0,7.7281,7.7281,7.7281,7.781,7.8251,7.8552,7.8772,7.936,8.0498,8.0571,8.0901,8.1746,8.2039,8.2194,8.2194,8.2194,8.2194,8.2194,8.2194,8.2194,8.2194,8.2194,8.2194,8.2194,8.2194,8.2194,8.2194,8.2194,8.2194,8.2194,8.2194,8.2194,8.2194,8.2194,8.2194,8.2194,8.2194,8.2194,8.2194,0.0,0.0,0.0,0.0,5.7992,0.0,0.0,0.0,5.8533,0.0,6.0216,6.0791,6.2357,6.3115,6.3579,6.3612,6.4231,0.0,6.2661,6.3226,0.0,0.0,6.2888,6.3507,6.5639,0.0,0.0,0.0,0.0,0.0,6.241,6.2808,6.291,0.0,6.3163,0.0,6.6671,6.6671,6.8081,7.0236,6.9601,6.9773,7.0394,7.0439,7.0877,7.1591,7.2416,7.2692,7.2692,7.2692,7.2692,7.2692,7.2692,7.2692,7.2692,7.2692,7.2692,7.2835,7.3557,7.374,7.3936,7.4753,7.4947,7.5164,7.6025,7.6194,7.6394,0.0,0.0,0.0,0.0,0.0,0.0,0.0,0.0,0.0,0.0,7.7281,7.7281,7.7281,7.7281,7.7619,7.8479,7.7847,7.8031,7.9669,7.9816,8.0175,8.1004,8.1746,8.2158,8.2194,8.2194,8.2194,8.2194,8.2194,8.2194,8.2194,8.2194,8.2194,8.2194,8.2194,8.2194,8.2194,8.2194,8.2194,8.2194,8.2194,8.2194,8.2194,8.2194,8.2194,8.2194,8.2194,8.2194,8.2194,5.8616,5.9167,5.9539,0.0,5.9099,5.8887,0.0,0.0,0.0,0.0,6.1815,6.2391,6.3869,6.4208,6.4546,6.5087,6.53,0.0,0.0,0.0,0.0,6.5131,6.441,6.4556,6.5672,6.4072,0.0,6.3511,0.0,0.0,6.2605,6.2567,6.2979,6.3747,6.3675,6.4609,6.6177,6.6177,6.7308,6.9107,6.966,7.0021,7.0261,7.0963,7.1256,7.1396,7.2353,7.2692,7.2692,7.2692,7.2692,7.2692,7.2692,7.2692,7.2692,7.2692,7.2692,7.2744,7.2939,7.2991,7.3172,7.3907,7.412,7.4492,7.5878,7.6194,7.6394,7.715,7.7281,0.0,0.0,0.0,0.0,0.0,0.0,0.0,0.0,0.0,0.0,7.7281,7.7281,7.7391,7.7619,7.8031,7.8699,7.9706,7.9816,8.0396,8.1819,8.1525,8.1562,8.2194,8.2194,8.2194,8.2194,8.2194,8.2194,8.2194,8.2194,8.2194,8.2194,8.2194,8.2194,8.2194,8.2194,8.2194,8.2194,8.2194,8.2194,8.2194,8.2194,8.2194,8.2194,8.2194,8.2194,8.2194,5.9394,0.0,0.0,6.0554,0.0,0.0,6.0622,6.0317,0.0,6.2651,6.2888,0.0,6.4918,6.5358,6.573,6.6136,6.617,0.0,0.0,0.0,0.0,6.5706,6.5595,6.5764,6.617,6.5053,0.0,6.3994,0.0,0.0,6.3056,6.3002,6.3478,6.431,6.43,6.5107,6.6602,6.7762,6.8582,6.916,7.0187,7.058,0.0,7.1162,7.1572,7.1916,7.2512,7.2692,7.2692,7.2692,7.2692,7.2692,7.2692,7.2692,7.2692,7.2692,7.2933,7.3175,7.3175,7.3405,7.3753,7.4177,7.4266,7.4622,7.5878,7.6437,7.6933,7.768,7.8149,7.8398,7.8398,7.8104,0.0,0.0,0.0,0.0,0.0,0.0,0.0,0.0,7.7281,7.7281,7.7281,7.7729,7.8369,7.9221,7.9294,7.9661,8.0579,8.0865,8.1232,8.1672,8.1672,8.1819,8.2194,8.1856,8.1856,8.2194,8.2194,8.2194,8.2194,8.2194,8.2194,8.2194,8.2194,8.2194,8.2194,8.2194,8.2194,8.2231,8.259,8.2957,8.3251,8.3251,8.303,8.2765,0.0,0.0,0.0,0.0,0.0,0.0,0.0,6.1129,0.0,6.3521,0.0,6.4299,6.5706,6.643,6.6802,6.6802,0.0,6.6531,6.5876,6.644,6.6497,6.5876,6.6474,6.6802,6.6802,6.617,0.0,0.0,0.0,0.0,6.3656,6.3812,6.4219,6.4759,6.4918,6.5858,6.7442,6.9793,7.0325,6.9746,7.0776,7.1169,7.1179,7.1346,7.1964,7.2822,7.2819,7.2761,7.2726,7.2795,7.283,7.2864,7.2968,7.3002,7.3002,7.3002,7.3451,7.3923,7.3957,7.4419,7.4914,7.4914,7.4914,7.5118,7.5917,7.6684,7.7478,7.832,7.9086,7.9668,7.9792,7.9147,7.8369,0.0,0.0,0.0,0.0,0.0,0.0,0.0,0.0,0.0,7.7318,7.7281,7.7656,7.8516,7.8479,7.8589,7.8883,8.0131,8.0938,8.115,8.1158,8.1452,8.2039,8.1452,8.1452,8.2039,8.2158,8.2194,8.2194,8.2194,8.2194,8.2194,8.2194,8.2194,8.2194,8.2296,8.2406,8.259,8.3279,8.3976,8.4609,8.4719,8.4307,8.3793,0.0,0.0,0.0,0.0,0.0,6.3487,6.3937,6.3903,6.4174,6.5189,6.53,6.5628,6.6497,6.6734,6.6802,6.6802,6.6802,0.0,0.0,0.0,0.0,6.6599,6.6734,6.6802,6.6802,6.6667,6.6237,0.0,0.0,0.0,0.0,6.4451,6.4823,6.5503,6.5545,6.6378,6.78,6.8292,6.8874,6.9523,7.0552,7.0911,7.0977,7.2033,7.2809,7.3389,7.3548,7.3209,7.2795,7.3416,7.3623,7.3716,7.4315,7.4511,7.4511,7.4511,7.4602,7.4716,7.4729,7.4811,7.4914,7.4914,7.4914,7.5118,7.5917,7.6207,7.6753,7.8205,7.8635,7.8952,7.9668,7.9147,7.8552,0.0,0.0,0.0,0.0,0.0,0.0,0.0,0.0,7.8104,7.7362,7.7281,7.7656,7.8516,7.7921,7.8427,8.0461,8.0212,8.0616,8.1937,8.2003,8.1746,8.1232,8.1746,8.1746,8.1232,8.1893,8.2194,8.2194,8.2194,8.2194,8.2194,8.2194,8.2194,8.2268,8.2912,8.3573,8.4205,8.4344,8.4499,8.4682,8.5351,8.5498,8.5315,0.0,0.0,0.0,0.0,0.0,0.0,0.0,6.5493,6.573,6.5706,6.5706,6.5842,6.6203,6.6565,6.6802,6.6802,6.6802,6.6802,6.6802,6.6802,6.6971,6.7343,6.7377,0.0,6.7986,6.7986,6.7421,6.6271,0.0,0.0,0.0,6.5165,6.5561,6.6305,6.6677,6.7218,6.7973,6.887,6.9456,6.9908,7.0861,7.1482,7.1833,7.245,7.3198,7.3882,7.4135,7.3981,7.3762,7.4214,7.435,7.4419,7.4787,7.4914,7.4914,7.4914,7.5212,7.5522,7.5511,7.5787,7.6097,7.6097,7.6097,7.6305,7.7163,7.7682,7.8319,7.9504,8.0084,8.0428,8.0405,7.9771,7.9221,7.9221,0.0,0.0,0.0,0.0,0.0,0.0,0.0,0.0,0.0,7.7582,7.7472,7.7884,7.7546,7.8023,7.9653,7.9771,8.0359,8.1525,8.1562,8.1599,8.1636,8.1599,8.1599,8.1636,8.2003,8.2194,8.2194,8.2194,8.2194,8.2231,8.2627,8.2802,8.2875,8.3683,8.449,8.5233,8.5233,8.549,8.5885,8.6297,8.6407,8.6371,0.0,6.2526,0.0,0.0,6.4197,6.485,6.5571,6.6339,6.6599,6.6,6.5943,6.5943,6.5943,6.643,6.6869,6.7005,6.7039,6.7106,6.7275,6.7309,6.7546,6.8132,6.8166,6.8436,6.9079,6.9248,6.8673,0.0,0.0,0.0,6.6146,6.6011,6.6339,6.7072,6.7658,6.8064,6.8481,6.9851,7.0541,7.0736,7.1512,7.2269,7.2972,7.2994,7.3605,7.4479,7.4748,7.494,7.511,7.5331,7.5294,7.519,7.5328,7.5397,7.5397,7.5397,7.5856,7.6339,7.6339,7.6753,7.7201,7.7201,7.7201,7.7367,7.8084,7.8871,7.9656,8.0468,8.1474,8.1929,8.115,8.0461,8.0,7.9816,7.9404,0.0,0.0,0.0,0.0,0.0,0.0,0.0,7.8854,7.7921,7.7399,7.7546,7.7582,7.7957,7.8817,7.9441,8.0175,8.0967,8.1004,8.1232,8.168,8.1415,8.1489,8.1929,8.2121,8.2194,8.2194,8.2378,8.2443,8.248,8.3316,8.3756,8.3976,8.4609,8.5343,8.604,8.604,8.6444,8.6986,8.6986,8.6986,8.6986,0.0,0.0,0.0,0.0,0.0,6.485,6.5571,6.6339,6.6768,6.67,6.67,6.67,6.67,6.6768,6.7072,6.7726,6.7793,6.8098,6.8842,6.8876,6.891,6.8977,6.8977,6.9011,6.9113,6.9755,6.9688,0.0,0.0,6.847,6.7692,6.7005,6.7072,6.7793,6.7861,6.8673,7.0003,7.0161,7.1007,7.2214,7.2508,7.3085,7.3799,7.4003,7.4537,7.5242,7.5502,7.6038,7.6621,7.6881,7.6546,7.6097,7.6753,7.6994,7.6994,7.6994,7.7028,7.7097,7.7097,7.7132,7.7201,7.7201,7.7201,7.7223,7.7313,7.7999,7.8841,7.9663,8.108,8.1929,8.115,8.0938,8.0645,7.9926,8.0359,0.0,0.0,0.0,0.0,0.0,0.0,0.0,7.9706,7.8251,7.7619,7.8405,7.8479,7.8809,7.9625,7.9779,8.0175,8.0967,8.1004,8.0681,8.0036,8.1387,8.1746,8.1114,8.1856,8.2194,8.2231,8.2949,8.3279,8.3344,8.4123,8.4903,8.5572,8.5645,8.6151,8.6876,8.6876,8.6913,8.6986,8.6986,8.6986,8.6986,0.0,0.0,6.4038,6.5097,6.5266,6.5672,6.6846,6.7286,6.7614,6.8132,6.7377,6.6971,6.7421,6.7455,6.7749,6.8538,6.8605,6.8774,6.9079,6.9113,6.9316,6.9733,6.9766,6.9958,7.0421,7.0692,7.05,0.0,0.0,0.0,6.8605,6.7817,6.7895,6.8639,6.909,6.9857,7.0906,7.1345,7.2135,7.3082,7.3152,7.3649,7.4338,7.4397,7.4907,7.5599,7.5844,7.6141,7.6438,7.6839,7.6882,7.6822,7.7097,7.7201,7.7201,7.7201,7.7201,7.7201,7.7201,7.7201,7.7201,7.7201,7.7201,7.7357,7.7858,7.8241,7.8861,8.0143,8.1379,8.2113,8.1782,8.1342,8.1048,8.1203,8.1122,8.115,0.0,0.0,0.0,0.0,0.0,0.0,0.0,7.8288,7.7656,7.8516,7.8104,7.8177,7.9037,7.9559,7.9963,8.0285,8.1232,8.1342,8.0534,8.1644,8.2039,8.1746,8.2553,8.2912,8.2949,8.3756,8.438,8.4866,8.5159,8.5783,8.6518,8.6518,8.6693,8.6986,8.6986,8.6986,8.6986,8.6986,8.6986,8.6986,6.4884,6.4918,6.5222,6.618,6.6349,6.6789,6.8064,6.8267,6.847,6.9045,6.8155,6.7681,6.8199,6.8267,6.8571,6.935,6.9417,6.9519,6.9722,6.9755,6.9992,7.0511,7.0534,0.0,7.13,7.13,7.103,7.0534,6.9789,0.0,6.9417,6.8605,6.8808,6.9789,7.0297,7.1041,7.1988,7.2496,7.3138,7.3815,7.3815,7.4255,7.492,7.492,7.5236,7.5745,7.5982,7.6098,7.6169,7.6576,7.6873,7.7111,7.7178,7.7201,7.7201,7.7201,7.7201,7.7201,7.7201,7.7201,7.7201,7.7201,7.7201,7.7345,7.7977,7.8304,7.8892,8.0255,8.1221,8.1807,8.1807,8.157,8.1452,8.1782,8.1562,8.1489,0.0,8.2048,0.0,0.0,8.0285,7.989,8.0139,7.8655,7.8141,7.9213,7.8508,7.8288,7.8927,7.9478,7.9918,8.0139,8.124,8.1562,8.1004,8.2039,8.2553,8.2553,8.3353,8.3756,8.3793,8.4609,8.538,8.6151,8.6151,8.6481,8.6986,8.6986,8.6986,8.6986,8.6986,8.6986,8.6986,8.6986,8.6986,8.6986,6.5537,6.5683,6.6146,6.7624,6.7861,6.8132,6.8977,6.9079,6.9079,6.9113,6.9079,6.9079,6.9079,6.9079,6.9383,7.0105,7.0172,7.0511,7.1233,7.1267,7.13,7.13,7.13,7.13,7.13,7.13,7.13,7.13,0.0,7.0172,7.0172,6.9417,6.9891,7.1267,7.13,7.209,7.3454,7.3488,7.3916,7.4581,7.4581,7.5033,7.5676,7.5676,7.5676,7.5745,7.5982,7.6098,7.6145,7.6414,7.6633,7.6839,7.7133,7.7201,7.7201,7.7201,7.7201,7.7201,7.7201,7.7201,7.7201,7.7201,7.7201,7.7201,7.7212,7.788,7.8718,7.9556,8.0339,8.092,8.092,8.1602,8.1929,8.115,8.1672,8.1901,8.1114,8.1709,0.0,8.1122,8.0285,8.0102,8.0901,7.9543,7.925,8.0857,8.0212,7.9779,7.9779,7.9779,8.0175,8.0967,8.1004,8.1004,8.1004,8.2582,8.3389,8.3381,8.4197,8.4609,8.4609,8.5425,8.6224,8.6986,8.6986,8.6986,8.6986,8.6986,8.6986,8.6986,8.6986,8.6986,8.6986,8.6986,8.6986,8.6986,6.7861,6.803,6.8166,6.8639,6.8707,6.8977,6.9733,6.9868,7.0026,7.0522,7.059,7.059,7.059,7.0161,7.0161,7.0906,7.0962,7.1064,7.13,7.13,7.13,7.13,7.13,7.13,7.13,7.13,7.1537,7.2056,7.1312,7.121,7.1718,7.1954,7.2338,7.28,7.28,7.3341,7.4255,7.4255,7.4695,7.5337,7.5337,7.5506,7.5709,7.5709,7.5709,7.5721,7.5805,7.5935,7.6145,7.6402,7.6622,7.6839,7.7133,7.7201,7.7201,7.7201,7.7201,7.7201,7.7201,7.7201,7.7201,7.7201,7.7201,7.7201,7.7201,7.7869,7.8577,7.883,7.9526,8.0236,8.0813,8.1142,8.1435,8.1746,8.2048,8.2121,8.1856,8.1562,8.1085,8.0285,7.9478,7.9294,8.0102,7.9221,7.9029,8.0102,7.9441,7.9221,7.9779,8.0322,8.0461,8.0175,8.124,8.1819,8.1819,8.2875,8.3683,8.4233,8.5013,8.571,8.6252,8.6509,8.6766,8.6986,8.6986,8.6986,8.6986,8.6986,8.6986,8.6986,8.6986,8.6986,8.6986,8.6986,8.6986,8.6986,6.9011,6.9316,6.9519,6.9519,6.9755,7.0094,7.0534,7.0601,7.077,7.1233,7.13,7.13,7.13,7.1142,7.1109,7.13,7.13,7.1436,7.1706,7.1706,7.1842,7.2124,7.2124,7.2124,7.2124,7.2124,7.236,7.28,7.236,7.236,7.28,7.3285,7.3657,7.3916,7.3916,7.4322,7.5021,7.5021,7.527,7.5709,7.5709,7.5709,7.5709,7.5709,7.5709,7.5709,7.5709,7.5805,7.5992,7.6123,7.6345,7.6576,7.6714,7.6919,7.7054,7.7178,7.7201,7.7201,7.7201,7.7201,7.7201,7.7201,7.7201,7.7201,7.7201,7.7632,7.8082,7.8431,7.913,7.9971,8.0759,8.1177,8.1559,8.2121,8.2194,8.2084,8.1782,8.1342,8.0718,7.989,7.9368,7.9368,8.0175,7.98,7.9837,8.0653,8.0249,8.0175,8.0653,8.0616,8.0718,8.113,8.2113,8.281,8.3104,8.3911,8.4535,8.5049,8.5857,8.6518,8.6986,8.6986,8.6986,8.6986,8.6986,8.6986,8.6986,8.6986,8.6986,8.6986,8.6986,8.6986,8.6986,8.6986,8.6986,8.7023,6.9248,6.98,7.0274,7.0274,7.0838,7.13,7.13,7.13,7.13,7.13,7.1334,7.1368,7.1368,7.2011,7.2191,7.1503,7.1436,7.174,7.2428,7.2462,7.2766,7.3454,7.3488,7.3488,7.3488,7.3488,7.3522,7.359,7.3624,7.3657,7.3657,7.3657,7.403,7.4683,7.4683,7.5055,7.5709,7.5709,7.5709,7.5709,7.5709,7.5709,7.5709,7.5709,7.5709,7.5709,7.5709,7.5721,7.5733,7.5733,7.5899,7.6134,7.6134,7.6426,7.685,7.7077,7.719,7.7201,7.7201,7.7201,7.7201,7.7201,7.7201,7.7201,7.7201,7.7201,7.7423,7.823,7.9024,7.9772,8.0677,8.1474,8.2043,8.2178,8.2117,8.1807,8.1114,8.089,8.0596,7.9882,7.9816,8.0102,8.093,8.1004,8.1305,8.2048,8.2158,8.2194,8.2194,8.0836,8.1085,8.3344,8.3454,8.3866,8.4682,8.5425,8.5829,8.5902,8.6619,8.6986,8.6986,8.6986,8.6986,8.6986,8.6986,8.6986,8.6986,8.6986,8.6986,8.6986,8.6986,8.7023,8.7096,8.7096,8.7133,8.728,7.0658,7.0928,7.103,7.103,7.1199,7.13,7.13,7.13,7.13,7.13,7.1774,7.2157,7.2157,7.28,7.3184,7.2981,7.2981,7.3048,7.3218,7.3251,7.3319,7.3488,7.3488,7.3488,7.3488,7.3488,7.3793,7.4356,7.4897,7.518,7.518,7.518,7.527,7.5439,7.5439,7.554,7.5709,7.5709,7.5709,7.5709,7.5709,7.5709,7.5709,7.5709,7.5709,7.5709,7.5709,7.5828,7.6016,7.6016,7.6192,7.6402,7.6402,7.6483,7.6599,7.6839,7.7031,7.7201,7.7201,7.7201,7.7201,7.7201,7.7201,7.7201,7.7201,7.7201,7.7268,7.7456,7.7652,7.8227,7.9705,8.0169,8.0722,8.1977,8.1178,8.0535,8.0931,7.994,7.9324,7.9753,7.9816,8.0102,8.093,8.1004,8.1077,8.1269,8.1856,8.2194,8.2194,8.2406,8.2802,8.3381,8.4013,8.4682,8.5498,8.5719,8.6114,8.6729,8.6913,8.6986,8.6986,8.6986,8.6986,8.6986,8.6986,8.6986,8.6986,8.6986,8.6986,8.6986,8.6986,8.739,8.7912,8.7912,8.8307,8.8849,7.1233,7.13,7.13,7.13,7.13,7.13,7.13,7.1605,7.1808,7.1808,7.2428,7.2913,7.2913,7.3544,7.3984,7.3984,7.3691,7.3624,7.3984,7.3984,7.4153,7.4503,7.4503,7.4503,7.4503,7.4503,7.4695,7.51,7.5506,7.5709,7.5709,7.5709,7.5709,7.5709,7.5709,7.5709,7.5709,7.5709,7.5709,7.5709,7.5709,7.5709,7.5709,7.5709,7.5709,7.5709,7.5709,7.5793,7.5911,7.5911,7.6006,7.6123,7.6123,7.6227,7.6412,7.6847,7.7011,7.702,7.702,7.7375,7.7833,7.8178,7.8235,7.8235,7.8235,7.8235,7.836,7.8726,7.8537,7.8702,7.9955,8.0233,8.0559,8.1465,8.1195,8.0931,8.0992,8.0255,7.9863,8.0311,8.0359,8.0645,8.1452,8.1884,8.2105,8.2105,8.2847,8.3287,8.3287,8.4058,8.449,8.449,8.4903,8.5527,8.6334,8.6334,8.6591,8.6986,8.6986,8.6986,8.6986,8.6986,8.6986,8.6986,8.6986,8.6986,8.7023,8.739,8.7537,8.7573,8.794,8.8381,8.8748,8.8748,8.9042,8.9436,7.13,7.13,7.13,7.13,7.1402,7.147,7.147,7.209,7.2563,7.2563,7.3218,7.3657,7.3657,7.4322,7.4784,7.4784,7.4187,7.4086,7.4717,7.4784,7.5067,7.5676,7.5709,7.5709,7.5709,7.5709,7.5709,7.5709,7.5709,7.5709,7.5709,7.5709,7.5709,7.5709,7.5709,7.5709,7.5709,7.5709,7.5709,7.5709,7.5709,7.5709,7.5709,7.5709,7.5709,7.5709,7.5709,7.5709,7.5709,7.5709,7.5709,7.5709,7.5845,7.6055,7.6357,7.7104,7.7175,7.7034,7.7068,7.7766,7.8684,7.9339,7.9488,7.9488,7.9488,7.9488,7.9683,8.0373,8.0012,7.9845,8.0643,8.0818,8.0911,8.1047,8.1495,8.1691,8.1236,8.1069,8.1082,8.1326,8.1481,8.1811,8.2488,8.3169,8.3564,8.3564,8.4344,8.4792,8.4792,8.5535,8.5976,8.5976,8.5976,8.6297,8.6986,8.6986,8.6986,8.6986,8.6986,8.6986,8.6986,8.6986,8.706,8.717,8.717,8.7243,8.7427,8.8087,8.839,8.8463,8.9143,8.9473,8.9583,8.9583,8.9657,8.984,7.13,7.13,7.13,7.13,7.1808,7.2225,7.2225,7.2879,7.3319,7.3319,7.3984,7.4412,7.4412,7.51,7.554,7.554,7.5405,7.5405,7.5506,7.554,7.5574,7.5709,7.5709,7.5709,7.5709,7.5709,7.5709,7.5709,7.5709,7.5709,7.5709,7.5709,7.5709,7.5709,7.5709,7.5709,7.5709,7.5709,7.5709,7.5709,7.5709,7.5709,7.5709,7.5709,7.5709,7.5709,7.5709,7.5709,7.5709,7.5709,7.5709,7.5811,7.6487,7.6748,7.692,7.7677,7.7985,7.8114,7.835,7.8701,7.9084,7.9396,7.9488,7.9488,7.9488,7.9488,7.9534,7.9672,7.9602,7.9758,8.0565,8.07,8.0998,8.1778,8.0881,8.0532,8.1839,8.1447,8.1512,8.2883,8.3646,8.4095,8.4205,8.4352,8.4417,8.4417,8.5159,8.5608,8.5608,8.6371,8.6803,8.6803,8.6803,8.6876,8.6986,8.6986,8.6986,8.6986,8.6986,8.6986,8.6986,8.6986,8.7353,8.8023,8.8023,8.8381,8.9033,8.9143,8.9216,8.9216,8.9363,8.9803,9.04,9.04,9.084,9.1436,7.1808,7.1875,7.2022,7.2428,7.2778,7.2981,7.2981,7.3612,7.4086,7.4086,7.4728,7.5202,7.5202,7.5506,7.5709,7.5709,7.5709,7.5709,7.5709,7.5709,7.5709,7.5709,7.5709,7.5709,7.5709,7.5709,7.5709,7.5709,7.5709,7.5709,7.5709,7.5709,7.5709,7.5709,7.5709,7.5709,7.5709,7.5709,7.5709,7.5709,7.5709,7.5709,7.5709,7.5709,7.5709,7.5709,7.5709,7.5709,7.5777,7.6183,7.6352,7.6487,7.7232,7.7481,7.765,7.8382,7.8562,7.8665,7.9348,7.9699,8.0026,8.0603,8.073,8.073,8.073,8.073,8.073,8.073,8.0385,8.0202,8.0567,8.0675,8.0729,8.0738,8.0855,8.1051,8.1418,8.1504,8.1974,8.3216,8.3669,8.4091,8.453,8.4976,8.5233,8.5233,8.6004,8.6444,8.6444,8.6803,8.6986,8.6986,8.6986,8.6986,8.6986,8.6986,8.6986,8.6986,8.6986,8.6986,8.7023,8.7463,8.7839,8.8206,8.8674,8.9069,8.9436,8.9877,9.006,9.0106,9.051,9.0913,9.1253,9.1253,9.1473,9.1803,7.2496,7.2665,7.2834,7.3387,7.3624,7.3759,7.3759,7.439,7.4852,7.4852,7.5337,7.5709,7.5709,7.5709,7.5709,7.5709,7.5709,7.5709,7.5709,7.5709,7.5709,7.5709,7.5709,7.5709,7.5709,7.5709,7.5709,7.5709,7.5709,7.5709,7.5709,7.5709,7.5709,7.5709,7.5709,7.5709,7.5709,7.5709,7.5709,7.5709,7.5709,7.5709,7.5709,7.5709,7.5709,7.5709,7.5912,7.598,7.6082,7.6893,7.7164,7.7266,7.8022,7.8259,7.8382,7.9147,7.9293,7.9425,8.0246,8.0632,8.0969,8.1614,8.181,8.181,8.181,8.181,8.181,8.181,8.1316,8.0867,8.0867,8.0902,8.0763,8.022,8.1174,8.182,8.1436,8.1884,8.2596,8.3434,8.3546,8.3825,8.4497,8.5115,8.556,8.5773,8.6367,8.6803,8.6978,8.6986,8.6986,8.6986,8.6986,8.6986,8.6986,8.6986,8.6986,8.6986,8.7206,8.728,8.7316,8.8124,8.8573,8.8793,8.9409,8.9803,8.9996,9.062,9.0886,9.0959,9.1546,9.1803,9.1803,9.1803,9.1803,9.1803,7.3285,7.3421,7.3454,7.3488,7.4052,7.4514,7.4514,7.5134,7.5608,7.5608,7.5676,7.5709,7.5709,7.5709,7.5709,7.5709,7.5709,7.5709,7.5709,7.5709,7.5709,7.5709,7.5709,7.5709,7.5709,7.5709,7.5709,7.5709,7.5709,7.5709,7.5709,7.5709,7.5709,7.5709,7.5709,7.5709,7.5709,7.5709,7.5709,7.5709,7.5709,7.5709,7.5709,7.5709,7.5709,7.5811,7.6555,7.6826,7.6927,7.7684,7.7921,7.8056,7.8788,7.9012,7.9147,7.9904,8.0449,8.0895,8.1218,8.1337,8.1409,8.1717,8.181,8.181,8.181,8.181,8.181,8.181,8.1741,8.1707,8.1707,8.1732,8.1713,8.1712,8.1839,8.2184,8.2934,8.3091,8.3397,8.4227,8.4299,8.4329,8.4426,8.4472,8.4838,8.5657,8.575,8.6138,8.6943,8.6986,8.6986,8.6986,8.6986,8.6986,8.6986,8.6986,8.6986,8.7023,8.7766,8.8096,8.8133,8.8931,8.973,9.0436,9.0473,9.0913,9.162,9.1693,9.1693,9.173,9.1776,9.1803,9.1803,9.1803,9.1803,9.1803,7.4052,7.4187,7.4322,7.4774,7.51,7.527,7.527,7.5506,7.5709,7.5709,7.5709,7.5709,7.5709,7.5709,7.5709,7.5709,7.5709,7.5709,7.5709,7.5709,7.5709,7.5709,7.5709,7.5709,7.5709,7.5709,7.5709,7.5709,7.5709,7.5709,7.5709,7.5709,7.5709,7.5709,7.5709,7.5709,7.5709,7.5709,7.5709,7.5709,7.5709,7.5709,7.5709,7.5709,7.6014,7.6487,7.6792,7.7198,7.7684,7.8416,7.8686,7.8822,7.9566,7.9769,7.9874,8.0308,8.061,8.082,8.1078,8.1381,8.1657,8.1787,8.181,8.181,8.181,8.181,8.181,8.181,8.181,8.181,8.181,8.181,8.1652,8.117,8.1516,8.1793,8.1607,8.2001,8.2655,8.3491,8.3602,8.4012,8.5088,8.5195,8.5569,8.6437,8.6491,8.6652,8.6969,8.6986,8.6986,8.6986,8.7463,8.75,8.6986,8.75,8.772,8.7766,8.8564,8.8931,8.8968,8.9776,9.0326,9.062,9.1143,9.151,9.1803,9.1803,9.1803,9.1803,9.1803,9.1803,9.1803,9.1803,9.1803,9.1803,7.4784,7.4953,7.5089,7.5608,7.5709,7.5709,7.5709,7.5709,7.5709,7.5709,7.5709,7.5709,7.5709,7.5709,7.5709,7.5709,7.5709,7.5709,7.5709,7.5709,7.5709,7.5709,7.5709,7.5709,7.5709,7.5709,7.5709,7.5709,7.5709,7.5709,7.5709,7.5709,7.5709,7.5709,7.5709,7.5709,7.5709,7.5709,7.5709,7.5709,7.5709,7.5845,7.6082,7.6082,7.6555,7.7266,7.7502,7.7908,7.845,7.9194,7.9452,7.952,8.004,8.0209,8.0247,8.0435,8.0547,8.0647,8.0833,8.12,8.1562,8.1668,8.1657,8.1715,8.1787,8.181,8.181,8.181,8.181,8.181,8.181,8.181,8.1638,8.1074,8.1419,8.1603,8.104,8.1454,8.2035,8.2612,8.2691,8.3169,8.4355,8.473,8.527,8.6101,8.6428,8.6705,8.6969,8.7243,8.739,8.739,8.8161,8.8307,8.7757,8.8307,8.8564,8.8601,8.94,8.9767,8.9803,9.062,9.0987,9.1023,9.1546,9.1803,9.1803,9.1803,9.1803,9.1803,9.1803,9.1803,9.1803,9.1803,9.1803,9.1803,7.5574,7.5709,7.5709,7.5709,7.5709,7.5709,7.5709,7.5709,7.5709,7.5709,7.5709,7.5709,7.5709,7.5709,7.5709,7.5709,7.5709,7.5709,7.5709,7.5709,7.5709,7.5709,7.5709,7.5709,7.5709,7.5709,7.5709,7.5709,7.5709,7.5709,7.5709,7.5709,7.5709,7.5709,7.5709,7.5709,7.5709,7.5709,7.5709,7.5709,7.5709,7.6183,7.6893,7.6893,7.7379,7.809,7.8855,7.9114,7.9215,7.9938,8.0209,8.0209,8.0209,8.0209,8.0209,8.0209,8.0397,8.061,8.061,8.0796,8.1066,8.1321,8.1393,8.1454,8.1751,8.1799,8.181,8.181,8.181,8.181,8.181,8.181,8.181,8.181,8.181,8.181,8.181,8.181,8.181,8.181,8.181,8.181,8.1822,8.2589,8.3462,8.4334,8.5241,8.6082,8.6943,8.7757,8.8206,8.8206,8.9005,8.94,8.94,8.94,8.94,8.9436,9.0216,9.062,9.062,9.1436,9.1803,9.1803,9.1803,9.1803,9.1803,9.1803,9.1803,9.1803,9.1803,9.1803,9.1803,9.1803,9.1803,9.1803,7.5676,7.5709,7.5709,7.5709,7.5709,7.5709,7.5709,7.5709,7.5709,7.5709,7.5709,7.5709,7.5709,7.5709,7.5709,7.5709,7.5709,7.5709,7.5709,7.5709,7.5709,7.5709,7.5709,7.5709,7.5709,7.5709,7.5709,7.5709,7.5709,7.5709,7.5709,7.5709,7.5709,7.5709,7.5709,7.5709,7.5709,7.5709,7.6014,7.6555,7.6555,7.7007,7.7684,7.7684,7.8111,7.8809,7.9012,7.9418,7.9904,8.0141,8.0209,8.0209,8.0209,8.0209,8.0209,8.0209,8.0272,8.0335,8.0335,8.0385,8.056,8.1017,8.1127,8.1188,8.1442,8.1502,8.1562,8.1775,8.181,8.181,8.181,8.181,8.181,8.181,8.181,8.181,8.181,8.181,8.181,8.181,8.181,8.2047,8.2657,8.2948,8.373,8.5186,8.6629,8.7574,8.7822,8.8601,8.9033,8.9033,8.9812,9.0253,9.0253,9.0253,9.0253,9.0253,9.1069,9.1436,9.1436,9.1693,9.1803,9.1803,9.1803,9.1803,9.1803,9.1803,9.1803,9.1803,9.1803,9.1803,9.1803,9.1803,9.1803,9.1803,7.5709,7.5709,7.5709,7.5709,7.5709,7.5709,7.5709,7.5709,7.5709,7.5709,7.5709,7.5709,7.5709,7.5709,7.5709,7.5709,7.5709,7.5709,7.5709,7.5709,7.5709,7.5709,7.5709,7.5709,7.5709,7.5709,7.5709,7.5709,7.5709,7.5709,7.5709,7.5709,7.5709,7.5709,7.5709,7.5709,7.5709,7.6048,7.6454,7.6927,7.7198,7.7785,7.845,7.845,7.8889,7.952,7.952,7.9837,8.0209,8.0209,8.0209,8.0209,8.0209,8.0209,8.0209,8.0209,8.0209,8.0209,8.0209,8.0209,8.0297,8.061,8.0771,8.0943,8.1309,8.1393,8.1466,8.1751,8.181,8.181,8.181,8.181,8.181,8.181,8.181,8.181,8.181,8.181,8.181,8.181,8.181,8.2012,8.2521,8.3161,8.4404,8.6463,8.7539,8.8271,8.8657,8.9445,8.9877,8.9877,9.0656,9.1069,9.1069,9.1069,9.1069,9.1069,9.1583,9.1803,9.1803,9.1803,9.1803,9.1803,9.1803,9.1803,9.1803,9.1803,9.1803,9.1803,9.1803,9.1803,9.1803,9.1803,9.1803,9.1803,7.5697,7.5709,7.5709,7.5709,7.5709,7.5709,7.5709,7.5709,7.5709,7.5709,7.5709,7.5709,7.5709,7.5709,7.5709,7.5709,7.5709,7.5709,7.5709,7.5709,7.5709,7.5709,7.5709,7.5709,7.5709,7.5709,7.5709,7.5709,7.5709,7.5709,7.5709,7.5709,7.5709,7.5709,7.5709,7.5743,7.5845,7.6589,7.6961,7.7164,7.7819,7.8551,7.9181,7.9181,7.9634,8.0209,8.0209,8.0209,8.0209,8.0209,8.0209,8.0209,8.0209,8.0209,8.0209,8.0209,8.0209,8.0209,8.0209,8.0209,8.0209,8.0209,8.0397,8.0709,8.1212,8.1345,8.143,8.1727,8.1787,8.181,8.181,8.181,8.181,8.181,8.181,8.181,8.181,8.1845,8.1914,8.1914,8.1948,8.2017,8.2017,8.3403,8.5306,8.77,8.8031,8.8508,8.9465,9.0289,9.0693,9.0693,9.1436,9.1803,9.1803,9.1803,9.1803,9.1803,9.1803,9.1803,9.1803,9.1803,9.1803,9.1803,9.1803,9.1803,9.1803,9.1803,9.1803,9.1803,9.1803,9.1803,9.1803,9.1803,9.1803,9.1803,7.552,7.5709,7.5709,7.5709,7.5709,7.5709,7.5709,7.5709,7.5709,7.5709,7.5709,7.5709,7.5709,7.5709,7.5709,7.5709,7.5709,7.5709,7.5709,7.5709,7.5709,7.5709,7.5709,7.5709,7.5709,7.5709,7.5709,7.5709,7.5709,7.5709,7.5709,7.5709,7.5709,7.5709,7.5709,7.6048,7.6657,7.6826,7.757,7.864,7.8809,7.9283,7.9972,7.9972,8.0073,8.0209,8.0209,8.0209,8.0209,8.0209,8.0209,8.0209,8.0209,8.0209,8.0209,8.0209,8.0209,8.0209,8.0209,8.0209,8.0209,8.0209,8.0259,8.0385,8.0709,8.0943,8.1163,8.1417,8.1668,8.181,8.181,8.181,8.181,8.181,8.181,8.181,8.181,8.2293,8.2661,8.2661,8.3178,8.3523,8.3523,8.4472,8.5598,8.6878,8.824,8.9409,9.0281,9.1106,9.1546,9.1546,9.1693,9.1803,9.1803,9.1803,9.1803,9.1803,9.1803,9.1803,9.1803,9.1803,9.1803,9.1803,9.1803,9.1803,9.1803,9.1803,9.1803,9.1803,9.1803,9.1803,9.1803,9.1803,9.1803,9.1803,7.5568,7.5709,7.5709,7.5709,7.5709,7.5709,7.5709,7.5709,7.5709,7.5709,7.5709,7.5709,7.5709,7.5709,7.5709,7.5709,7.5709,7.5709,7.5709,7.5709,7.5709,7.5709,7.5709,7.5709,7.5709,7.5709,7.5709,7.5709,7.5709,7.5709,7.5709,7.5709,7.5709,7.5709,7.6082,7.6521,7.6961,7.7638,7.8403,7.9147,7.9486,7.987,8.0209,8.0209,8.0209,8.0209,8.0209,8.0209,8.0209,8.0209,8.0209,8.0209,8.0209,8.0209,8.0209,8.0209,8.0445,8.0716,8.0716,8.0987,8.1257,8.1257,8.1257,8.1152,8.0683,8.082,8.1078,8.1333,8.1597,8.1914,8.2259,8.2316,8.2419,8.2799,8.2833,8.2833,8.2833,8.3178,8.3419,8.3419,8.3764,8.4144,8.4523,8.4974,8.5973,8.7715,8.8683,8.9787,9.1116,9.1583,9.1803,9.1803,9.1803,9.1803,9.1803,9.1803,9.1803,9.1803,9.1803,9.1803,9.1803,9.1803,9.1803,9.1803,9.1803,9.1803,9.1803,9.1803,9.1803,9.1803,9.1803,9.1803,9.1803,9.1803,9.1803,9.1803,7.5674,7.5709,7.5709,7.5709,7.5709,7.5709,7.5709,7.5709,7.5709,7.5709,7.5709,7.5709,7.5709,7.5709,7.5709,7.5709,7.5709,7.5709,7.5709,7.5709,7.5709,7.5709,7.5709,7.5709,7.5709,7.5709,7.5709,7.5709,7.5709,7.5709,7.5709,7.5709,7.5777,7.5946,7.6589,7.7029,7.7367,7.8572,7.9181,7.935,7.9938,8.0209,8.0209,8.0209,8.0209,8.0209,8.0209,8.0209,8.0209,8.0209,8.0209,8.0209,8.0209,8.0276,8.0378,8.0378,8.0919,8.1507,8.1507,8.1934,8.2395,8.2395,8.2395,8.2155,8.113,8.1121,8.1368,8.1589,8.1902,8.2291,8.2911,8.305,8.3281,8.3902,8.4006,8.4006,8.4006,8.4109,8.4213,8.4213,8.4316,8.4661,8.5328,8.5397,8.6363,8.8699,8.9009,8.9826,9.149,9.1739,9.1803,9.1803,9.1803,9.1803,9.1803,9.1803,9.1803,9.1803,9.1803,9.1803,9.1803,9.1803,9.1803,9.1803,9.1803,9.1803,9.1803,9.1803,9.1803,9.1803,9.1803,9.1803,9.1803,9.1803,9.1803,9.1803,7.5496,7.5709,7.5709,7.5709,7.5709,7.5709,7.5709,7.5709,7.5709,7.5709,7.5709,7.5709,7.5709,7.5709,7.5709,7.5709,7.5709,7.5709,7.5709,7.5709,7.5709,7.5709,7.5709,7.5709,7.5709,7.5709,7.5709,7.5709,7.5709,7.5709,7.5709,7.5709,7.6082,7.6758,7.686,7.7604,7.8809,7.9012,7.9452,8.0073,8.0175,8.0209,8.0209,8.0209,8.0209,8.0209,8.0209,8.0209,8.0209,8.0209,8.0209,8.0209,8.0209,8.0661,8.1135,8.1135,8.1663,8.2259,8.2259,8.2327,8.2395,8.2395,8.2395,8.2374,8.221,8.2348,8.2564,8.259,8.3018,8.3399,8.3502,8.3687,8.3868,8.3971,8.4006,8.4006,8.4006,8.4592,8.5052,8.5052,8.5592,8.604,8.6156,8.6156,8.6616,8.7807,8.8635,8.9555,9.0612,9.1406,9.1803,9.1803,9.1803,9.1803,9.1803,9.1803,9.1803,9.1803,9.1803,9.1803,9.1803,9.1803,9.1803,9.1803,9.1803,9.1803,9.1803,9.1803,9.1803,9.1803,9.1803,9.1803,9.1803,9.1803,9.1803,9.1803,7.3714,7.3815,7.4005,7.4625,7.477,7.4966,7.5592,7.5709,7.5709,7.5709,7.5709,7.5709,7.5709,7.5709,7.5709,7.5709,7.5709,7.5709,7.5709,7.5709,7.5709,7.5709,7.5709,7.5709,7.5709,7.5709,7.5709,7.5709,7.5709,7.5912,7.6352,7.6352,7.6792,7.7536,7.7942,7.8471,7.9114,7.952,7.9904,8.0209,8.0209,8.0209,8.0209,8.0209,8.0209,8.0209,8.0209,8.0209,8.0209,8.0209,8.0479,8.083,8.083,8.1325,8.19,8.19,8.2441,8.3016,8.3016,8.3308,8.3633,8.3633,8.3633,8.3633,8.3633,8.3725,8.3632,8.2938,8.3238,8.3728,8.4186,8.4501,8.4799,8.5213,8.5282,8.5282,8.5282,8.5604,8.5811,8.5811,8.6087,8.6294,8.6294,8.6294,8.6693,8.7621,8.8568,8.9512,9.0453,9.135,9.1803,9.1803,9.1803,9.1803,9.1803,9.1803,9.1803,9.1803,9.1803,9.1803,9.1803,9.1803,9.1803,9.1803,9.1803,9.1803,9.1803,9.1803,9.1803,9.1803,9.1803,9.1803,9.1803,9.1803,9.1803,9.1803]},{"header":{"parameterUnit":"m.s-1","parameterCategory":1,"la1":30.6,"la2":28.766,"lo1":-90.7593,"lo2":-88.6598,"dy":0.0162,"dx":0.0183,"nx":116,"ny":114,"refTime":"2023-03-09T18:00:00:Z","depth":0,"parameterNumber":3,"parameterNumberName":"V-component_of_WINDS"},"data":[0.0,0.0,0.0,0.0,0.0,0.0,0.0,0.0,0.0,0.0,0.0,0.0,0.0,0.0,0.0,0.0,0.0,0.0,0.0,0.0,0.0,0.0,0.0,0.0,0.0,0.0,0.0,0.0,0.0,0.0,0.0,0.0,0.0,0.0,0.0,0.0,0.0,0.0,0.0,0.0,0.0,0.0,0.0,0.0,0.0,0.0,0.0,0.0,0.0,0.0,0.0,0.0,0.0,0.0,0.0,0.0,0.0,0.0,0.0,0.0,0.0,0.0,0.0,0.0,0.0,0.0,0.0,0.0,0.0,0.0,0.0,0.0,0.0,0.0,0.0,0.0,0.0,0.0,0.0,0.0,0.0,0.0,0.0,0.0,0.0,0.0,0.0,0.0,0.0,0.0,0.0,0.0,0.0,0.0,0.0,0.0,0.0,0.0,0.0,0.0,0.0,0.0,0.0,0.0,0.0,0.0,0.0,0.0,0.0,0.0,0.0,0.0,0.0,0.0,0.0,0.0,0.0,0.0,0.0,0.0,0.0,0.0,0.0,0.0,0.0,0.0,0.0,0.0,0.0,0.0,0.0,0.0,0.0,0.0,0.0,0.0,0.0,0.0,0.0,0.0,0.0,0.0,0.0,0.0,0.0,0.0,0.0,0.0,0.0,0.0,0.0,0.0,0.0,0.0,0.0,0.0,0.0,0.0,0.0,0.0,0.0,0.0,0.0,0.0,0.0,0.0,0.0,0.0,0.0,0.0,0.0,0.0,0.0,0.0,0.0,0.0,0.0,0.0,0.0,0.0,0.0,0.0,0.0,0.0,0.0,0.0,0.0,0.0,0.0,0.0,0.0,0.0,0.0,0.0,0.0,0.0,0.0,0.0,0.0,0.0,0.0,0.0,0.0,0.0,0.0,0.0,0.0,0.0,0.0,0.0,0.0,0.0,0.0,0.0,0.0,0.0,0.0,0.0,0.0,0.0,0.0,0.0,0.0,0.0,0.0,0.0,0.0,0.0,0.0,0.0,0.0,0.0,0.0,0.0,0.0,0.0,0.0,0.0,0.0,0.0,0.0,0.0,0.0,0.0,0.0,0.0,0.0,0.0,0.0,0.0,0.0,0.0,0.0,0.0,0.0,0.0,0.0,0.0,0.0,0.0,0.0,0.0,0.0,0.0,0.0,0.0,0.0,0.0,0.0,0.0,0.0,0.0,0.0,0.0,0.0,0.0,0.0,0.0,0.0,0.0,0.0,0.0,0.0,0.0,0.0,0.0,0.0,0.0,0.0,0.0,0.0,0.0,0.0,0.0,0.0,0.0,0.0,0.0,0.0,0.0,0.0,0.0,0.0,0.0,0.0,0.0,0.0,0.0,0.0,0.0,0.0,0.0,0.0,0.0,0.0,0.0,0.0,0.0,0.0,0.0,0.0,0.0,0.0,0.0,0.0,0.0,0.0,0.0,0.0,0.0,0.0,0.0,0.0,0.0,0.0,0.0,0.0,0.0,0.0,0.0,0.0,0.0,0.0,0.0,0.0,0.0,0.0,0.0,0.0,0.0,0.0,0.0,0.0,0.0,0.0,0.0,0.0,0.0,0.0,0.0,0.0,0.0,0.0,0.0,0.0,0.0,0.0,0.0,0.0,0.0,0.0,0.0,0.0,0.0,0.0,0.0,0.0,0.0,0.0,0.0,0.0,0.0,0.0,0.0,0.0,0.0,0.0,0.0,0.0,0.0,0.0,0.0,0.0,0.0,0.0,0.0,0.0,0.0,0.0,0.0,0.0,0.0,0.0,0.0,0.0,0.0,0.0,0.0,0.0,0.0,0.0,0.0,0.0,0.0,0.0,0.0,0.0,0.0,0.0,0.0,0.0,0.0,0.0,0.0,0.0,0.0,0.0,0.0,0.0,0.0,0.0,0.0,0.0,0.0,0.0,0.0,0.0,0.0,0.0,0.0,0.0,0.0,0.0,0.0,0.0,0.0,0.0,0.0,0.0,0.0,0.0,0.0,0.0,0.0,0.0,0.0,0.0,0.0,0.0,0.0,0.0,0.0,0.0,0.0,0.0,0.0,0.0,0.0,0.0,0.0,0.0,0.0,0.0,0.0,0.0,0.0,0.0,0.0,0.0,0.0,0.0,0.0,0.0,0.0,0.0,0.0,0.0,0.0,0.0,0.0,0.0,0.0,0.0,0.0,0.0,0.0,0.0,0.0,0.0,0.0,0.0,0.0,0.0,0.0,0.0,0.0,0.0,0.0,0.0,0.0,0.0,0.0,0.0,0.0,0.0,0.0,0.0,0.0,0.0,0.0,0.0,0.0,0.0,0.0,0.0,0.0,0.0,0.0,0.0,0.0,0.0,0.0,0.0,0.0,0.0,0.0,0.0,0.0,0.0,0.0,0.0,0.0,0.0,0.0,0.0,0.0,0.0,0.0,0.0,0.0,0.0,0.0,0.0,0.0,0.0,0.0,0.0,0.0,0.0,0.0,0.0,0.0,0.0,0.0,0.0,0.0,0.0,0.0,0.0,0.0,0.0,0.0,0.0,0.0,0.0,0.0,0.0,0.0,0.0,0.0,0.0,0.0,0.0,0.0,0.0,0.0,0.0,0.0,0.0,0.0,0.0,0.0,0.0,0.0,0.0,0.0,0.0,0.0,0.0,0.0,0.0,0.0,0.0,0.0,0.0,0.0,0.0,0.0,0.0,0.0,0.0,0.0,0.0,0.0,0.0,0.0,0.0,0.0,0.0,0.0,0.0,0.0,0.0,0.0,0.0,0.0,0.0,0.0,0.0,0.0,0.0,0.0,0.0,0.0,0.0,0.0,0.0,0.0,0.0,0.0,0.0,0.0,0.0,0.0,0.0,0.0,0.0,0.0,0.0,0.0,0.0,0.0,0.0,0.0,0.0,0.0,0.0,0.0,0.0,0.0,0.0,0.0,0.0,0.0,0.0,0.0,0.0,0.0,0.0,0.0,0.0,0.0,0.0,0.0,0.0,0.0,0.0,0.0,0.0,0.0,0.0,0.0,0.0,0.0,0.0,0.0,0.0,0.0,0.0,0.0,0.0,0.0,0.0,0.0,0.0,0.0,0.0,0.0,0.0,0.0,0.0,0.0,0.0,0.0,0.0,0.0,0.0,0.0,0.0,0.0,0.0,0.0,0.0,0.0,0.0,0.0,0.0,0.0,0.0,0.0,0.0,0.0,0.0,0.0,0.0,0.0,0.0,0.0,0.0,0.0,0.0,0.0,0.0,0.0,0.0,0.0,0.0,0.0,0.0,0.0,0.0,0.0,0.0,0.0,0.0,0.0,0.0,0.0,0.0,0.0,0.0,0.0,0.0,0.0,0.0,0.0,0.0,0.0,0.0,0.0,0.0,0.0,0.0,0.0,0.0,0.0,0.0,0.0,0.0,0.0,0.0,0.0,0.0,0.0,0.0,0.0,0.0,0.0,0.0,0.0,0.0,0.0,0.0,0.0,0.0,0.0,0.0,0.0,0.0,0.0,0.0,0.0,0.0,0.0,0.0,0.0,0.0,0.0,0.0,0.0,0.0,0.0,0.0,0.0,0.0,0.0,0.0,0.0,0.0,0.0,0.0,0.0,0.0,0.0,0.0,0.0,0.0,0.0,0.0,0.0,0.0,0.0,0.0,0.0,0.0,0.0,0.0,0.0,0.0,0.0,0.0,0.0,0.0,0.0,0.0,0.0,0.0,0.0,0.0,0.0,0.0,0.0,0.0,0.0,0.0,0.0,0.0,0.0,0.0,0.0,0.0,0.0,0.0,0.0,0.0,0.0,0.0,0.0,0.0,0.0,0.0,0.0,0.0,0.0,0.0,0.0,0.0,0.0,0.0,0.0,0.0,0.0,0.0,0.0,0.0,0.0,0.0,0.0,0.0,0.0,0.0,0.0,0.0,0.0,0.0,0.0,0.0,0.0,0.0,0.0,0.0,0.0,0.0,0.0,0.0,0.0,0.0,0.0,0.0,0.0,0.0,0.0,0.0,0.0,0.0,0.0,0.0,0.0,0.0,0.0,0.0,0.0,0.0,0.0,0.0,0.0,0.0,0.0,0.0,0.0,0.0,0.0,0.0,0.0,0.0,0.0,0.0,0.0,0.0,0.0,0.0,0.0,0.0,0.0,0.0,0.0,0.0,0.0,0.0,0.0,0.0,0.0,0.0,0.0,0.0,0.0,0.0,0.0,0.0,0.0,0.0,0.0,0.0,0.0,0.0,0.0,0.0,0.0,0.0,0.0,0.0,0.0,0.0,0.0,0.0,0.0,0.0,0.0,0.0,0.0,0.0,0.0,0.0,0.0,0.0,0.0,0.0,0.0,0.0,0.0,0.0,0.0,0.0,0.0,0.0,0.0,0.0,0.0,0.0,0.0,0.0,0.0,0.0,0.0,0.0,0.0,0.0,0.0,0.0,0.0,0.0,0.0,0.0,0.0,0.0,0.0,0.0,0.0,0.0,0.0,0.0,0.0,0.0,0.0,0.0,0.0,0.0,0.0,0.0,0.0,0.0,0.0,0.0,0.0,0.0,0.0,0.0,0.0,0.0,0.0,0.0,0.0,0.0,0.0,0.0,0.0,0.0,0.0,0.0,0.0,0.0,0.0,0.0,0.0,0.0,0.0,0.0,0.0,0.0,0.0,0.0,0.0,0.0,0.0,0.0,0.0,0.0,0.0,0.0,0.0,0.0,0.0,0.0,0.0,0.0,0.0,0.0,0.0,0.0,0.0,0.0,0.0,0.0,0.0,0.0,0.0,0.0,0.0,0.0,0.0,0.0,0.0,0.0,0.0,0.0,0.0,0.0,0.0,0.0,0.0,0.0,0.0,0.0,0.0,0.0,0.0,0.0,0.0,0.0,0.0,0.0,0.0,0.0,0.0,0.0,0.0,0.0,0.0,0.0,0.0,0.0,0.0,0.0,0.0,0.0,0.0,0.0,0.0,0.0,0.0,0.0,0.0,0.0,0.0,0.0,0.0,0.0,0.0,0.0,0.0,0.0,0.0,0.0,0.0,0.0,0.0,0.0,0.0,0.0,0.0,0.0,0.0,0.0,0.0,0.0,0.0,0.0,0.0,0.0,0.0,0.0,0.0,0.0,0.0,0.0,0.0,0.0,0.0,0.0,0.0,0.0,0.0,0.0,0.0,0.0,0.0,0.0,0.0,0.0,0.0,0.0,0.0,0.0,0.0,0.0,0.0,0.0,0.0,0.0,0.0,0.0,0.0,0.0,0.0,0.0,0.0,0.0,0.0,0.0,0.0,0.0,0.0,0.0,0.0,0.0,0.0,0.0,0.0,0.0,0.0,0.0,0.0,0.0,0.0,0.0,0.0,0.0,0.0,0.0,0.0,0.0,0.0,0.0,0.0,0.0,0.0,0.0,0.0,0.0,0.0,0.0,0.0,0.0,0.0,0.0,0.0,0.0,0.0,0.0,0.0,0.0,0.0,0.0,0.0,0.0,0.0,0.0,0.0,0.0,0.0,0.0,0.0,0.0,0.0,0.0,0.0,0.0,0.0,0.0,0.0,0.0,0.0,0.0,0.0,0.0,0.0,0.0,0.0,0.0,0.0,0.0,0.0,0.0,0.0,0.0,0.0,0.0,0.0,0.0,0.0,0.0,0.0,0.0,0.0,0.0,0.0,0.0,0.0,0.0,0.0,0.0,0.0,0.0,0.0,0.0,0.0,0.0,0.0,0.0,0.0,0.0,0.0,0.0,0.0,0.0,0.0,0.0,0.0,0.0,0.0,0.0,0.0,0.0,0.0,0.0,0.0,0.0,0.0,0.0,0.0,0.0,0.0,0.0,0.0,0.0,0.0,0.0,0.0,0.0,0.0,0.0,0.0,0.0,0.0,0.0,0.0,0.0,0.0,0.0,0.0,0.0,0.0,0.0,0.0,0.0,0.0,0.0,0.0,0.0,0.0,0.0,0.0,0.0,0.0,0.0,0.0,0.0,0.0,0.0,0.0,0.0,0.0,0.0,0.0,0.0,0.0,0.0,0.0,0.0,0.0,0.0,0.0,0.0,0.0,0.0,0.0,0.0,0.0,0.0,0.0,0.0,0.0,0.0,0.0,0.0,0.0,0.0,0.0,0.0,0.0,0.2834,0.2208,0.0,0.0,0.0,0.0,0.0,0.0,0.0,0.0,0.0,0.0,0.0,0.0,0.0,0.0,0.0,0.0,0.0,0.0,0.0,0.0,0.0,0.0,0.0,0.0,0.0,0.0,0.0,0.0,0.0,0.0,0.0,0.0,0.0,0.0,0.0,0.0,0.0,0.0,0.0,0.0,0.0,0.0,0.0,0.0,0.0,0.0,0.0,0.0,0.0,0.0,0.0,0.0,0.0,0.0,0.0,0.0,0.0,0.0,0.0,0.0,0.0,0.0,0.0,0.0,0.0,0.0,0.0,0.0,0.0,0.0,0.0,0.0,0.0,0.0,0.0,0.0,0.0,0.0,0.0,0.0,0.0,0.0,0.0,0.0,0.0,0.0,0.0,0.0,0.0,0.0,0.0,0.0,0.0,0.0,0.0,0.0,0.0,0.0,0.0,0.0,0.0,0.0,0.0,0.0,0.0,0.0,0.0,0.0,0.0,0.0,0.0,0.0,0.0,0.0,0.3182,0.2205,0.0,0.0,0.0,0.0,0.0,0.0,0.0,0.0,0.0,0.0,0.0,0.0,0.0,0.0,0.0,0.0,0.0,0.0,0.0,0.0,0.0,0.0,0.0,0.0,0.0,0.0,0.0,0.0,0.0,0.0,0.0,0.0,0.0,0.0,0.0,0.0,0.0,0.0,0.0,0.0,0.0,0.0,0.0,0.0,0.0,0.0,0.0,0.0,0.0,0.0,0.0,0.0,0.0,0.0,0.0,0.0,0.0,0.0,0.0,0.0,0.0,0.0,0.0,0.0,0.0,0.0,0.0,0.0,0.0,0.0,0.0,0.0,0.0,0.0,0.0,0.0,0.0,0.0,0.0,0.0,0.0,0.0,0.0,0.0,0.0,0.0,0.0,0.0,0.0,0.0,0.0,0.0,0.0,0.0,0.0,0.0,0.0,0.0,0.0,0.0,0.0,0.0,0.0,0.0,0.0,0.0,0.0,0.0,0.6902,0.6908,0.6908,0.6903,0.6911,0.6771,0.4158,0.2873,0.2604,0.2328,0.0,0.0,0.0,0.0,0.0,0.0,0.0,0.0,0.0,0.0,0.0,0.0,0.0,0.0,0.0,0.0,0.0,0.0,0.0,0.0,0.0,0.0,0.0,0.0,0.0,0.0,0.0,0.0,0.0,0.0,0.0,0.0,0.0,0.0,0.0,0.0,0.0,0.0,1.2304,1.2304,1.228,1.2239,0.0,0.0,0.0,0.0,0.0,0.0,0.0,0.0,0.0,0.0,0.0,0.0,0.0,0.0,0.0,0.0,0.0,0.0,0.0,0.0,0.0,0.0,0.0,0.0,0.0,0.0,0.0,0.0,0.0,0.0,0.0,0.0,0.0,0.0,0.0,0.0,0.0,0.0,0.0,0.0,0.0,0.0,0.0,0.0,0.6803,0.6714,0.0,0.0,0.0,0.0,0.0,0.0,0.0,0.0,0.0,0.0,0.0,0.0,0.0,0.9222,0.662,0.7814,0.7901,0.6899,0.69,0.6898,0.6898,0.6954,0.6987,0.6969,0.6555,0.0,0.4188,0.2832,0.0,0.0,0.0,0.0,0.0,0.0,0.0,0.0,0.0,0.0,0.0,0.0,0.0,0.0,0.0,0.0,0.0,0.0,0.0,0.0,0.0,0.0,0.0,0.0,0.0,0.0,0.0,0.0,0.0,0.0,0.0,0.0,0.0,0.0,0.0,0.0,1.2426,1.2507,1.2572,1.2572,1.2572,1.2588,1.271,1.2588,1.2337,1.2434,0.0,0.0,0.0,0.0,0.0,0.0,0.0,0.0,0.0,0.0,0.0,0.0,0.0,0.0,0.0,0.0,0.0,0.0,0.0,0.0,0.0,0.0,0.0,0.0,0.0,0.0,0.0,0.0,0.0,0.0,0.0,0.0,0.0,0.0,0.0,0.0,0.0,0.0,0.0,0.7879,0.7473,0.905,0.8611,0.8458,0.0,0.0,0.0,0.0,0.0,0.0,0.0,0.0,0.0,0.7144,0.9046,0.9495,0.8206,0.8836,0.9298,0.9546,0.9532,0.9542,0.9548,0.9642,0.9698,0.9644,0.8867,0.8113,0.7261,0.471,0.3641,0.355,0.0,0.0,0.0,0.0,0.2296,0.2296,0.0,0.0,0.0,0.0,0.0,0.0,0.0,0.0,0.0,0.0,0.0,0.0,0.0,0.0,0.0,1.1806,0.0,0.0,0.0,0.0,0.0,0.0,0.0,0.0,0.0,0.0,0.0,0.0,1.2629,1.2702,1.2807,1.2807,1.2807,1.2807,1.2953,1.2881,1.2653,1.2767,1.2824,0.0,0.0,0.0,0.0,0.0,0.0,0.0,0.0,0.0,0.0,0.0,0.0,0.0,0.0,0.0,0.0,0.0,0.0,0.0,0.0,0.0,0.0,0.0,0.0,0.0,0.0,0.0,0.0,0.0,0.0,0.0,0.0,0.0,0.0,0.0,0.0,0.0,0.0,0.9405,0.8852,1.0877,1.0318,1.014,0.0,0.0,0.0,0.0,0.0,0.0,1.0664,1.1115,1.0685,0.9108,0.9501,0.9776,0.9864,0.9921,1.0541,1.1735,1.1735,1.1735,1.1735,1.1825,1.1872,1.1824,1.0767,1.0305,1.0063,0.6747,0.54,0.5235,0.3602,0.2961,0.2906,0.2484,0.2319,0.2319,0.0,0.0,0.0,0.0,0.0,0.0,0.0,0.0,0.0,0.0,0.0,0.0,0.0,0.0,1.1806,1.1806,1.1806,1.1806,0.0,0.0,0.0,0.0,0.0,0.0,0.0,0.0,0.0,1.2596,1.2735,1.2799,1.2807,1.2807,1.2807,1.2807,1.2815,1.2807,1.2815,1.3206,1.3255,1.3084,0.0,0.0,0.0,0.0,0.0,0.0,0.0,0.0,0.0,0.0,0.0,0.0,0.0,0.0,0.0,0.0,0.0,0.0,0.0,0.0,0.0,0.0,0.0,0.0,0.0,0.0,0.0,0.0,0.0,0.0,0.0,0.0,0.0,0.0,0.0,0.0,0.0,0.0,0.0,1.0941,1.1143,0.0,0.0,0.0,0.0,1.14,1.1406,1.0725,0.9191,1.0566,1.0724,0.9242,1.068,1.1547,1.1682,1.167,1.1817,1.2077,1.2077,1.2077,1.2077,1.2084,1.2084,1.2091,1.2004,1.1986,1.1737,0.8567,0.7269,0.71,0.5425,0.4767,0.4581,0.2983,0.24,0.24,0.0,0.0,0.0,0.0,0.0,0.0,0.0,0.0,0.0,0.0,0.0,0.0,0.0,1.1806,1.1806,1.1806,1.1806,1.184,1.1915,0.0,0.0,0.0,0.0,0.0,0.0,0.0,1.258,1.2726,1.2775,1.2807,1.2807,1.2807,1.2807,1.2815,1.3076,1.3198,1.3173,1.3059,1.3051,1.3084,1.2953,1.2913,0.0,0.0,0.0,0.0,0.0,0.0,0.0,0.0,0.0,0.0,0.0,0.0,0.0,0.0,0.0,0.0,0.0,0.0,0.0,0.0,0.0,0.0,0.0,0.0,0.0,0.0,0.0,0.0,0.0,0.0,0.0,0.0,0.0,0.0,0.0,0.0,0.0,1.1236,1.1398,0.0,1.122,1.1318,1.1453,1.1577,1.1475,1.1263,1.0958,1.1395,1.1421,1.089,1.1567,1.195,1.1998,1.1998,1.2025,1.2098,1.2098,1.2098,1.2104,1.2181,1.2228,1.2235,1.2324,1.2364,1.2269,1.1148,0.9975,0.8722,0.7127,0.6506,0.6435,0.5832,0.4928,0.4006,0.0,0.0,0.0,0.0,0.0,0.0,0.0,0.0,0.0,0.0,0.0,1.4336,1.2634,1.2447,1.2266,1.1837,1.1848,1.189,1.1923,0.0,0.0,0.0,0.0,0.0,0.0,1.2539,1.2702,1.2905,1.2905,1.2937,1.3002,1.3002,1.3002,1.301,1.3279,1.3402,1.3377,1.3116,1.3132,1.3352,1.3147,1.3042,1.2994,0.0,0.0,0.0,0.0,0.0,0.0,0.0,0.0,0.0,0.0,0.0,0.0,0.0,0.0,0.0,0.0,0.0,0.0,0.0,0.0,0.0,0.0,0.0,0.0,0.0,0.0,0.0,0.0,0.0,0.0,0.0,0.0,0.0,0.0,0.0,1.1624,1.152,1.1645,1.1676,1.1486,1.1545,1.1706,1.1917,1.1839,1.1905,1.223,1.2277,1.2243,1.2114,1.2229,1.2256,1.2179,1.2179,1.2181,1.2228,1.2228,1.2228,1.2235,1.2337,1.2359,1.2366,1.2461,1.2501,1.2501,1.2501,1.1766,1.0489,0.8892,0.8284,0.8208,0.7638,0.6724,0.5771,0.0,0.0,0.0,0.0,0.0,0.0,0.0,0.0,0.0,0.0,1.7499,1.6532,1.4038,1.3754,1.324,1.1981,1.1976,1.2009,1.1876,1.1954,0.0,0.0,0.0,0.0,1.2596,1.2613,1.2784,1.31,1.31,1.3214,1.3402,1.3402,1.3402,1.3402,1.3393,1.341,1.341,1.3401,1.3605,1.3888,1.3674,1.3513,1.3386,0.0,0.0,0.0,0.0,0.0,0.0,0.0,0.0,0.0,0.0,0.0,0.0,0.0,0.0,0.0,0.0,0.0,0.0,0.0,0.0,0.0,0.0,0.0,0.0,0.0,0.0,0.0,0.0,0.0,0.0,0.0,0.0,0.0,1.1742,1.2012,1.2073,1.1767,1.1902,1.2037,1.2019,1.2019,1.2148,1.2437,1.2484,1.2567,1.2724,1.3092,1.3118,1.2738,1.2727,1.2599,1.2336,1.2317,1.2385,1.2508,1.2508,1.2508,1.2515,1.2515,1.2515,1.2515,1.2515,1.2515,1.2515,1.2515,1.2515,1.236,1.0719,1.0072,0.9897,0.8262,0.7642,0.7599,0.0,0.0,0.0,0.0,0.0,0.0,0.0,0.0,0.0,0.0,1.7499,1.6882,1.5258,1.508,1.46,1.3435,1.3362,1.3425,1.3531,0.0,0.0,0.0,0.0,0.0,1.2743,1.2881,1.3076,1.3312,1.3312,1.3353,1.3402,1.3402,1.3402,1.3393,1.3489,1.3554,1.3544,1.3701,1.3815,1.3872,1.3588,1.3434,1.3385,0.0,0.0,0.0,0.0,0.0,0.0,0.0,0.0,0.0,0.0,0.0,0.0,0.0,0.0,0.0,0.0,0.0,0.0,0.0,0.0,0.0,0.0,0.0,0.0,0.0,0.0,0.0,0.0,0.0,0.0,0.0,0.0,1.2866,1.2866,1.2402,1.2172,1.2459,1.2557,1.2613,1.2713,1.2728,1.2936,1.3458,1.2963,1.2922,1.3542,1.3207,1.3085,1.3273,1.3372,1.325,1.2883,1.289,1.2812,1.2644,1.2644,1.2725,1.2854,1.2854,1.2854,1.2854,1.2854,1.2854,1.2854,1.2854,1.2854,1.2807,1.2194,1.1958,1.1932,1.1598,1.0728,0.9686,0.0,0.0,0.0,0.0,0.0,0.0,0.0,0.0,0.0,0.0,1.855,1.7981,1.6694,1.615,1.5358,1.4013,1.3501,1.3239,1.3272,0.0,0.0,0.0,0.0,1.2759,1.2921,1.3116,1.332,1.3482,1.3482,1.3522,1.3613,1.3613,1.3613,1.3613,1.3683,1.3732,1.3723,1.3855,1.3904,1.388,1.3694,1.3572,1.3482,1.3482,1.3458,1.3402,1.3402,1.3402,1.3386,1.3263,0.0,0.0,0.0,0.0,0.0,0.0,0.0,0.0,0.0,0.0,0.0,0.0,0.0,0.0,0.0,0.0,0.0,0.0,0.0,0.0,0.0,0.0,0.0,0.0,1.3132,1.3324,1.3634,1.3026,1.2696,1.3094,1.3146,1.3196,1.3364,1.3379,1.354,1.3951,1.3555,1.3537,1.4076,1.3733,1.3557,1.3576,1.3732,1.3627,1.3219,1.3479,1.3519,1.3375,1.3375,1.3424,1.3536,1.3536,1.3436,1.3256,1.3256,1.3156,1.3003,1.3003,1.3003,1.2989,0.0,0.0,0.0,0.0,1.2368,1.1559,0.0,0.0,0.0,0.0,0.0,0.0,0.0,0.0,0.0,0.0,0.0,1.9432,1.8342,1.7387,1.6171,1.4626,1.3457,1.26,0.0,0.0,0.0,1.2653,1.2759,1.2937,1.3149,1.3336,1.349,1.3624,1.3624,1.3732,1.3904,1.3904,1.3904,1.3904,1.3904,1.3904,1.3904,1.3904,1.3904,1.3904,1.3904,1.3789,1.3624,1.3624,1.3554,1.3467,1.3467,1.3467,1.3442,1.3426,0.0,0.0,0.0,0.0,0.0,0.0,0.0,0.0,0.0,0.0,0.0,0.0,0.0,0.0,0.0,0.0,0.0,0.0,0.0,0.0,0.0,0.0,0.0,0.0,1.3294,1.3442,1.4113,1.3744,1.3496,1.367,1.3694,1.3775,1.3966,1.4,1.4052,1.4187,1.4165,1.4235,1.4449,1.4418,0.0,0.0,0.0,1.3951,1.3567,1.4102,1.4323,1.4238,1.4238,1.4226,1.4208,1.4208,1.3967,1.3579,1.3579,1.3365,1.305,1.305,1.305,1.305,1.303,1.3037,1.305,1.305,1.305,1.305,0.0,0.0,0.0,0.0,0.0,0.0,0.0,0.0,0.0,2.027,2.0241,2.0209,2.024,2.0043,1.9423,1.8212,1.6768,1.4952,0.0,0.0,1.3711,1.3028,1.3027,1.3181,1.3496,1.3536,1.3642,1.3838,1.3838,1.3854,1.3904,1.3904,1.3904,1.3904,1.3904,1.3904,1.3904,1.3904,1.3904,1.3904,1.3904,1.388,1.3838,1.3838,1.3831,1.3798,1.3798,1.3798,1.3774,1.3619,1.3561,1.3546,1.3393,0.0,0.0,0.0,0.0,0.0,0.0,0.0,0.0,0.0,0.0,0.0,0.0,0.0,0.0,0.0,0.0,0.0,0.0,0.0,0.0,1.3385,1.3731,1.4045,1.419,1.4188,1.4195,1.4246,1.4254,1.4318,1.4522,1.4538,1.4611,1.4807,1.4517,1.4494,1.4853,1.4572,1.4558,1.4887,1.4946,1.4857,1.4602,1.474,1.4484,1.3903,1.3903,0.0,1.3562,1.3562,1.3521,1.3439,1.3439,1.3398,1.3315,1.3315,1.3315,1.3302,1.32,1.3227,1.3315,1.3315,1.3315,1.3315,0.0,0.0,0.0,0.0,0.0,0.0,0.0,0.0,0.0,0.0,2.0299,2.0355,2.0538,1.9915,1.9268,1.8704,1.7483,0.0,0.0,1.4879,1.4741,1.4381,1.3712,1.344,1.3601,1.369,1.3797,1.3904,1.3904,1.3904,1.3904,1.3904,1.3904,1.3904,1.3904,1.3904,1.3904,1.3904,1.3904,1.3904,1.3904,1.3904,1.3904,1.3904,1.3904,1.3904,1.3904,1.3904,1.3888,1.3781,1.3756,1.3724,1.3546,1.3424,1.3318,0.0,0.0,0.0,0.0,0.0,0.0,0.0,0.0,0.0,0.0,0.0,0.0,0.0,0.0,1.31,0.0,0.0,1.3539,1.362,1.3963,1.4255,1.4434,1.4521,1.4551,1.4551,1.4551,1.4624,1.4841,1.4857,1.489,1.4998,1.4814,1.4816,1.5098,1.4718,1.4661,1.5039,1.5138,1.5146,1.506,1.5328,1.5272,1.4908,1.4908,1.4831,1.4679,1.4493,1.4266,1.4038,1.3839,1.3631,1.3403,1.3403,1.3403,1.3397,1.3336,1.3336,1.3403,1.3403,1.3403,1.3403,0.0,0.0,0.0,0.0,0.0,0.0,0.0,0.0,0.0,0.0,2.0385,2.0413,2.047,1.942,1.8598,0.0,0.0,0.0,0.0,1.6305,1.5771,1.5701,1.4649,1.3915,1.3658,1.3813,1.3904,1.3904,1.3904,1.3904,1.3904,1.3904,1.3904,1.3904,1.3904,1.3904,1.3904,1.3904,1.3904,1.3904,1.3904,1.3904,1.3904,1.3904,1.3904,1.3904,1.3904,1.3862,1.3855,1.3888,1.3862,1.3813,1.369,1.3633,1.3544,1.3246,1.3247,0.0,0.0,0.0,0.0,0.0,0.0,0.0,0.0,0.0,1.3206,1.3378,1.3402,1.3402,1.3402,1.3547,1.3706,1.388,1.4115,1.4383,1.4667,1.4732,1.4757,1.4757,1.4757,1.4814,1.4971,1.5006,1.5006,1.5006,1.502,1.5082,1.5189,1.4935,1.4881,1.5074,1.5235,1.5342,1.5354,1.5791,1.5966,1.5883,1.5883,1.5842,1.5731,1.5402,1.5072,1.4672,1.4349,1.3963,1.3549,1.3549,1.3486,1.3403,1.3403,1.3417,1.3444,1.341,1.3403,1.3403,0.0,0.0,0.0,0.0,0.0,0.0,0.0,0.0,0.0,0.0,0.0,0.0,0.0,0.0,0.0,0.0,0.0,0.0,1.7445,1.7524,1.7144,1.6083,1.5793,1.5095,1.3889,1.3888,1.3904,1.3904,1.3904,1.3904,1.3904,1.3904,1.3904,1.3904,1.3904,1.3904,1.3904,1.3904,1.3904,1.3904,1.3904,1.3904,1.3904,1.3904,1.3904,1.3904,1.3904,1.3789,1.3658,1.3829,1.3781,1.3658,1.3813,1.3731,1.3569,1.3418,0.0,1.3084,1.2856,1.2962,1.3133,1.3117,1.3231,1.337,0.0,0.0,1.3361,1.3402,1.3402,1.3402,1.3402,1.3662,1.3862,1.3896,1.4318,1.4667,1.4681,1.4838,1.4974,1.4974,1.4974,1.4982,1.4998,1.5006,1.5006,1.5006,1.5114,1.5181,1.5197,1.5339,1.5481,1.5699,1.5723,1.5792,1.5913,1.5978,1.5822,1.5463,1.5463,1.5257,1.4837,1.4796,1.4754,1.4692,1.4651,1.4411,1.4025,1.4025,1.3776,1.3403,1.3403,1.3464,1.3566,1.343,1.3403,1.3403,0.0,0.0,0.0,0.0,0.0,0.0,0.0,0.0,0.0,0.0,0.0,0.0,0.0,0.0,0.0,0.0,0.0,0.0,2.0109,1.9708,1.8859,1.7504,1.6539,1.5344,1.3932,1.3904,1.3904,1.3904,1.3904,1.3904,1.3904,1.3904,1.3904,1.3904,1.3904,1.3904,1.3904,1.3904,1.3904,1.3904,1.3904,1.3904,1.3904,1.3904,1.3904,1.3888,1.3773,1.3674,0.0,0.0,1.3666,1.3642,1.3847,1.3765,1.3577,1.3442,1.3336,0.0,1.3261,1.3262,1.3296,0.0,1.3456,1.3513,1.3513,1.3513,1.3555,1.3678,1.3694,1.3727,1.3841,1.3979,1.4131,0.0,1.4543,1.4741,1.4865,1.4958,1.5006,1.5006,1.5006,1.5006,1.5006,1.5065,1.5122,1.5122,1.5273,1.5427,1.5545,1.5626,1.5748,1.5906,1.5914,1.5946,1.6007,1.6007,1.5925,1.5752,1.5752,1.5649,1.5443,1.5216,1.4824,1.4356,1.4422,1.4215,1.3811,1.3901,1.3802,1.3633,1.3633,1.3674,1.3693,1.3566,1.3566,1.3633,0.0,0.0,0.0,0.0,0.0,0.0,0.0,0.0,0.0,0.0,0.0,0.0,0.0,0.0,0.0,0.0,0.0,0.0,0.0,2.1514,2.0392,1.8484,1.7338,1.5832,1.394,1.3904,1.3904,1.3904,1.3904,1.3904,1.3904,1.3904,1.3904,1.3904,1.3904,1.3904,1.3904,1.3904,1.3904,1.3904,1.3904,1.3904,1.3904,1.3904,1.3872,1.3797,1.3658,1.3577,0.0,0.0,1.3513,1.3505,1.3701,1.3651,1.3513,1.3369,1.3279,1.3262,1.3424,1.3433,0.0,1.3561,1.3642,1.3682,1.3682,1.3682,1.3748,1.3945,1.3977,1.4034,1.4213,1.4312,1.4426,1.4667,1.4749,1.4822,1.499,1.5006,1.5006,1.5006,1.5028,1.506,1.506,1.5143,1.5221,1.527,1.5468,1.5642,1.5784,1.5841,1.591,1.5999,1.6007,1.6007,1.6007,1.6007,1.6007,1.6007,1.6007,1.6007,1.5986,1.5758,1.5337,1.4786,1.4897,1.459,1.4055,1.4138,1.4037,1.3795,1.3795,1.3822,1.387,1.3769,1.3769,1.3795,0.0,0.0,0.0,0.0,0.0,0.0,0.0,0.0,0.0,0.0,0.0,0.0,0.0,0.0,0.0,0.0,0.0,0.0,0.0,2.2522,2.1493,1.8537,1.8362,1.6951,1.3949,1.3904,1.3904,1.3904,1.3904,1.3904,1.3904,1.3904,1.3904,1.3904,1.3904,1.3904,1.3904,1.3904,1.3904,1.3904,1.3904,1.3904,1.3904,1.3904,1.3781,1.3617,1.3592,0.0,0.0,0.0,1.3279,1.3141,1.3345,1.3419,0.0,1.3174,1.297,0.0,0.0,0.0,1.3434,1.3561,1.3756,1.3896,1.3896,1.3896,1.3945,1.415,1.419,1.4221,1.4373,1.4551,1.4692,1.4708,1.4865,1.4998,1.5006,1.5006,1.5006,1.5006,1.5103,1.5189,1.5189,1.5197,1.5278,1.5476,1.5687,1.5784,1.5792,1.5922,1.5999,1.6007,1.6007,1.6007,1.6007,1.6007,1.6007,1.6007,1.6007,1.6007,1.6015,1.6198,1.6347,1.6525,1.6525,1.6023,1.5148,1.5156,1.4614,1.3795,1.3795,1.3911,1.4083,1.4083,1.3966,1.3795,0.0,0.0,0.0,0.0,0.0,0.0,0.0,0.0,0.0,0.0,0.0,0.0,0.0,0.0,0.0,0.0,0.0,0.0,0.0,2.2261,2.1688,1.9679,1.9773,1.846,1.5434,1.5363,1.4884,1.3904,1.3904,1.3904,1.3904,1.3904,1.3904,1.3904,1.3904,1.3904,1.3904,1.3904,1.3904,1.3904,1.3904,1.3904,1.3888,1.3756,1.3658,1.3577,0.0,0.0,0.0,0.0,0.0,0.0,1.3345,0.0,0.0,1.2962,0.0,0.0,0.0,0.0,1.3578,1.3756,1.3855,1.3904,1.3904,1.3993,1.4125,1.4182,1.4198,1.4229,1.4381,1.4462,1.4543,1.4692,1.4873,1.5006,1.5006,1.5006,1.5028,1.5111,1.5164,0.0,0.0,1.5593,1.5638,1.5683,1.5833,1.593,1.593,1.5975,1.6007,1.6007,1.6007,1.6007,1.6007,1.6007,1.6007,1.6007,1.6141,1.6263,1.6405,1.6462,1.6371,1.6137,1.6234,1.5937,1.5406,1.5496,1.517,1.4595,1.4595,1.4455,1.4224,1.4224,1.419,1.4121,0.0,0.0,0.0,0.0,0.0,0.0,0.0,0.0,0.0,0.0,0.0,0.0,0.0,0.0,0.0,0.0,0.0,0.0,0.0,0.0,2.1606,2.0115,2.0221,1.9158,1.6654,1.6602,1.5889,1.4438,1.4507,1.4294,1.3797,1.3872,1.3904,1.3904,1.3904,1.3904,1.3904,1.3904,1.3863,1.3789,1.3789,1.3748,1.3719,1.3587,1.3489,0.0,0.0,0.0,0.0,0.0,0.0,0.0,0.0,0.0,0.0,0.0,0.0,0.0,0.0,1.3537,1.365,1.3855,1.3904,1.3904,1.3904,1.406,1.4215,1.4253,1.4326,1.4442,1.4594,1.4551,1.4551,1.4692,1.4797,1.489,1.489,1.5003,1.5106,1.5189,1.533,1.552,0.0,0.0,1.5869,1.5869,1.5955,1.6007,1.6007,1.6007,1.6007,1.6007,1.6007,1.6007,1.6007,1.6064,1.6128,1.6214,1.6349,1.6495,1.6674,1.6674,1.6556,1.634,1.6408,1.6216,1.5831,1.5923,1.5682,1.5264,1.5264,1.4955,1.4564,1.4564,1.4431,1.4299,0.0,0.0,0.0,0.0,0.0,0.0,0.0,0.0,0.0,0.0,0.0,0.0,0.0,0.0,0.0,0.0,0.0,0.0,0.0,0.0,0.0,1.9949,1.9911,1.9182,1.7646,1.7629,1.6888,1.5408,1.5597,1.4971,1.3601,1.3798,1.3872,1.3872,1.3872,1.3872,1.3872,1.3872,1.3765,1.3593,1.3593,1.3505,1.3402,1.3394,0.0,0.0,0.0,0.0,0.0,0.0,0.0,0.0,0.0,0.0,0.0,0.0,0.0,1.3197,1.3512,1.3617,1.3658,1.3846,1.3904,1.3904,1.3912,1.4076,1.4255,1.4389,1.4568,1.4757,0.0,0.0,1.4708,1.4708,1.4716,1.4724,1.4714,1.5006,1.5205,0.0,0.0,0.0,0.0,0.0,0.0,1.6007,1.6007,1.6007,1.6007,1.6007,1.6007,1.6007,1.6015,1.6015,1.6015,1.6206,1.6405,1.6614,1.6614,1.669,1.6825,1.6825,1.6914,1.7112,1.7112,1.6841,1.6445,1.6445,1.6137,1.5704,1.5704,1.5396,1.4948,1.4948,1.469,1.4299,0.0,0.0,0.0,0.0,0.0,0.0,0.0,0.0,0.0,0.0,0.0,0.0,0.0,0.0,0.0,0.0,0.0,0.0,0.0,0.0,0.0,0.0,0.0,0.0,0.0,0.0,0.0,1.5408,1.5447,1.4782,1.3441,1.3499,1.3523,1.3523,1.3523,1.3523,1.3523,1.3523,1.3499,1.3458,0.0,1.3434,1.3377,0.0,0.0,0.0,0.0,0.0,0.0,0.0,0.0,0.0,0.0,1.3255,1.3263,0.0,0.0,1.3488,1.3585,1.3706,1.3847,1.3888,1.3904,1.3937,1.4093,1.4245,1.4397,1.4584,1.4657,1.4724,0.0,0.0,0.0,1.4708,1.4833,0.0,1.5062,1.514,0.0,1.5601,0.0,1.5849,1.5946,1.5975,0.0,1.6007,1.6007,1.6007,1.6007,1.6007,1.6007,1.6007,1.6149,1.6214,1.6214,1.6422,1.66,1.6744,1.6744,1.6855,1.7025,1.7025,1.705,1.7112,1.7112,1.7024,1.6914,1.6914,1.6453,1.5704,1.5704,1.5197,1.4476,1.4476,1.4409,1.4299,0.0,0.0,0.0,0.0,0.0,0.0,0.0,0.0,0.0,0.0,0.0,0.0,0.0,0.0,0.0,0.0,0.0,0.0,0.0,0.0,0.0,0.0,0.0,0.0,0.0,0.0,0.0,0.0,0.0,0.0,1.4171,1.3652,1.3402,1.3402,1.3402,1.3402,1.3402,1.3402,0.0,0.0,0.0,0.0,0.0,0.0,0.0,0.0,0.0,0.0,0.0,0.0,0.0,1.3255,1.3353,1.3402,1.3401,1.3465,0.0,1.3625,1.3716,1.3813,1.3904,1.3904,1.3961,1.4044,1.405,1.431,1.4543,1.4568,1.4708,0.0,1.4822,1.4757,1.4708,0.0,0.0,0.0,1.5106,1.5306,1.5545,0.0,1.5845,0.0,1.5991,1.6007,1.6007,1.6007,1.6007,1.6007,1.6007,1.6007,1.6039,1.6133,1.623,1.636,1.6522,1.6628,1.6766,1.6922,1.6922,1.6993,1.7112,1.7112,1.7112,1.7112,1.7112,1.7112,1.7112,1.7112,1.6783,1.6321,1.6321,1.5749,1.4918,1.4918,1.4653,1.4299,0.0,0.0,0.0,0.0,0.0,0.0,0.0,0.0,0.0,0.0,0.0,0.0,0.0,0.0,0.0,0.0,0.0,0.0,0.0,0.0,0.0,0.0,0.0,0.0,0.0,0.0,0.0,0.0,0.0,0.0,0.0,0.0,0.0,0.0,0.0,0.0,0.0,0.0,0.0,0.0,0.0,0.0,0.0,0.0,0.0,0.0,0.0,0.0,0.0,0.0,1.3401,1.3426,1.345,1.3476,1.3491,1.3619,1.3642,1.3674,1.3846,1.3904,1.3904,1.3928,1.4076,1.4166,1.4034,1.4367,1.4649,1.4511,0.0,1.4998,1.4974,1.4825,1.4708,1.4708,0.0,1.5023,1.5052,1.5483,1.58,1.5825,1.593,1.6007,1.6007,1.6007,1.6007,1.6007,1.6023,1.6039,1.6039,1.6039,1.6128,1.6352,1.6381,1.6522,1.6841,1.6841,1.6922,1.7112,1.7112,1.7112,1.7112,1.7112,1.7112,1.7112,1.7112,1.7112,1.7112,1.7112,1.7068,1.7024,1.7024,1.6475,1.5682,1.5638,1.5087,1.4387,0.0,0.0,0.0,0.0,0.0,0.0,0.0,0.0,0.0,0.0,2.1936,2.2231,0.0,0.0,0.0,0.0,0.0,0.0,0.0,0.0,0.0,0.0,0.0,0.0,0.0,0.0,0.0,0.0,0.0,0.0,0.0,0.0,0.0,0.0,0.0,0.0,0.0,0.0,0.0,0.0,0.0,0.0,0.0,0.0,0.0,0.0,0.0,0.0,0.0,0.0,1.3474,1.3585,1.3766,1.3807,1.3815,1.3847,1.3855,1.3863,1.3896,1.3904,1.3937,1.4109,1.4174,1.4263,1.4513,1.4624,0.0,0.0,1.4938,1.4938,1.4781,1.4724,1.4708,1.4708,1.4873,1.5093,1.5374,1.5646,1.5849,0.0,1.5983,1.6007,1.6007,1.6007,0.0,1.6007,1.6157,1.6259,1.6259,1.6259,1.6393,1.6704,1.6712,1.6809,1.7041,1.7041,1.708,1.7112,1.7112,1.7112,1.7112,1.7112,1.7112,1.7112,1.7112,1.7112,1.7112,1.7112,1.6862,1.6511,1.6511,1.6181,1.5638,1.5264,1.5014,1.4822,0.0,0.0,0.0,0.0,0.0,0.0,0.0,2.2223,2.2032,2.1877,2.1849,2.2037,2.2536,2.2558,0.0,0.0,0.0,0.0,0.0,0.0,0.0,0.0,0.0,0.0,0.0,2.1093,2.0763,2.0084,0.0,1.734,1.596,1.4553,1.3498,1.2807,0.0,0.0,0.0,0.0,0.0,0.0,0.0,0.0,0.0,0.0,0.0,0.0,0.0,0.0,0.0,0.0,1.349,1.3642,1.3847,1.3904,1.3904,1.3904,1.3904,1.3904,1.3904,1.3969,1.4085,1.4174,1.4337,1.4473,1.4527,0.0,0.0,0.0,1.5324,1.5019,1.5633,1.5085,1.4608,1.4814,1.4992,1.5236,1.5601,1.5804,1.593,1.5991,1.6007,1.6007,1.6007,1.6007,1.6039,1.6149,1.6259,1.63,1.63,1.6466,1.6631,1.6779,1.6898,1.7001,1.7112,1.7112,1.7112,1.7112,1.7112,1.7112,1.7112,1.7112,1.7112,1.7112,1.7112,1.7112,1.7112,1.7112,1.698,1.6753,1.6753,1.6343,1.566,1.544,1.5065,1.4601,0.0,0.0,0.0,0.0,0.0,0.0,0.0,2.2198,2.1978,2.1978,2.1709,2.1771,2.2522,2.2427,2.2226,0.0,0.0,0.0,0.0,0.0,0.0,0.0,0.0,0.0,0.0,0.0,0.0,2.1093,1.9686,0.0,0.0,0.0,0.0,0.0,1.2807,1.2807,1.2807,0.0,0.0,0.0,0.0,1.2807,0.0,0.0,0.0,0.0,0.0,0.0,0.0,0.0,1.3465,1.3594,1.3773,1.3847,1.3838,1.3888,1.3872,1.3855,1.3888,1.4052,1.4207,1.4239,1.4473,1.4665,1.4551,1.4978,0.0,1.6555,1.5886,1.5539,1.6874,1.5938,1.5032,1.536,1.5559,1.571,1.5796,1.5894,1.5958,1.5999,1.6007,0.0,1.6007,1.6039,1.6133,1.6292,1.6381,1.6401,1.6401,1.6709,1.6866,1.6866,1.7017,1.7112,1.7112,1.7112,1.7112,1.7112,1.7112,1.7112,1.7112,1.7112,1.7112,1.7112,1.7112,1.7112,1.7112,1.7112,1.7112,1.7112,1.7112,1.6651,1.5969,1.5771,1.5219,1.4564,0.0,0.0,0.0,0.0,0.0,0.0,0.0,2.1866,2.1662,2.1662,2.1346,2.1518,2.249,2.2785,2.2659,0.0,0.0,0.0,0.0,0.0,0.0,0.0,0.0,0.0,0.0,0.0,0.0,2.1093,1.9686,0.0,0.0,0.0,0.0,0.0,0.0,1.2807,1.2807,1.2807,0.0,0.0,0.0,0.0,0.0,0.0,0.0,0.0,0.0,0.0,0.0,0.0,0.0,1.3442,1.3577,1.3633,1.3666,1.3855,0.0,0.0,1.3855,1.4052,1.4231,1.4349,1.4543,1.4749,1.4906,0.0,1.6749,1.6861,1.6693,1.6919,1.8265,1.7504,1.6674,1.6731,1.6982,1.687,1.5941,1.5809,1.5861,1.5983,0.0,0.0,1.6007,1.6165,1.6284,1.63,1.6574,1.676,1.676,1.696,1.7066,1.7066,1.7082,1.7112,1.7112,1.7112,1.7112,1.7112,1.7112,1.7112,1.7112,1.7112,1.7112,1.7112,1.7112,1.7112,1.7112,1.7112,1.7112,1.7112,1.7112,1.7046,1.687,1.6013,1.5638,1.544,0.0,0.0,0.0,0.0,0.0,0.0,2.2449,2.212,2.19,2.19,2.1425,2.147,2.249,2.2878,2.2862,0.0,0.0,0.0,0.0,0.0,0.0,0.0,0.0,0.0,0.0,0.0,2.1093,2.1093,2.0541,0.0,0.0,0.0,0.0,0.0,0.0,1.2807,1.2807,1.2807,0.0,0.0,0.0,0.0,0.0,0.0,0.0,0.0,0.0,0.0,1.301,0.0,0.0,0.0,1.4805,1.5283,0.0,0.0,1.3666,1.3674,1.3993,1.4196,1.4357,1.4535,1.546,1.629,1.618,0.0,1.8576,1.9177,1.8571,1.8301,1.9607,1.9021,1.8033,1.7048,1.8127,1.8618,1.7244,1.7059,1.7131,1.7297,1.6459,1.5967,1.6157,1.6238,1.6376,1.6595,1.6847,1.6985,1.6985,1.705,1.7112,1.7112,1.7112,1.7112,1.7112,1.7112,1.7112,1.7112,1.7112,1.7112,1.7112,1.7112,1.7112,1.7112,1.7112,1.7112,1.7112,1.7112,1.7112,1.7112,1.7112,1.6928,1.6621,1.6269,1.5763,1.5234,0.0,0.0,0.0,0.0,0.0,2.2871,2.2637,2.2324,2.2135,2.223,2.1756,2.1744,2.2651,2.2936,2.296,2.2668,0.0,0.0,0.0,0.0,0.0,0.0,0.0,0.0,0.0,0.0,2.1093,2.1093,2.1093,1.9893,0.0,0.0,1.6317,1.4022,0.0,0.0,0.0,0.0,0.0,0.0,0.0,0.0,0.0,0.0,0.0,0.0,0.0,0.0,0.0,0.0,0.0,0.0,0.0,0.0,0.0,0.0,1.4449,1.4814,1.481,1.5303,1.5844,1.6068,1.7067,1.7925,0.0,0.0,2.0045,2.0751,2.0039,1.9694,2.1123,2.0692,1.9731,1.8599,1.983,2.0396,1.8828,1.8181,1.7904,1.8091,1.6739,1.5914,1.6174,1.6352,1.6571,1.6866,1.7017,1.7112,1.7112,1.7112,1.7112,1.7112,1.7112,1.7112,1.7112,1.7112,1.7112,1.7112,1.7112,1.7112,1.7112,1.7112,1.7112,1.7112,1.7112,1.7112,1.7112,1.7112,1.7112,1.712,1.7169,1.6987,1.6686,1.6578,1.6135,1.5549,0.0,0.0,0.0,0.0,0.0,0.0,2.259,2.2324,2.2214,2.2543,2.2292,2.2353,2.3012,2.305,2.2995,2.2995,0.0,0.0,0.0,0.0,0.0,0.0,0.0,0.0,0.0,0.0,2.1093,2.1093,2.1093,2.0367,1.8972,1.8972,1.8267,1.6899,0.0,0.0,0.0,0.0,0.0,0.0,0.0,0.0,0.0,0.0,0.0,0.0,0.0,0.0,0.0,0.0,0.0,0.0,0.0,0.0,0.0,0.0,1.6459,1.7459,1.6527,1.7645,1.9118,1.9391,1.9401,1.9374,0.0,2.0159,2.0892,2.091,2.0723,2.1143,2.2946,2.2553,2.197,2.1958,2.2365,2.2114,2.0498,1.8786,1.7746,1.7894,1.6661,1.5845,1.5991,1.6493,1.6874,1.7074,1.7112,1.7112,1.7112,1.7112,1.7112,1.7112,1.7112,1.7112,1.7112,1.7112,1.7112,1.7112,1.7112,1.7112,1.7112,1.7112,1.7112,1.7112,1.7112,1.7112,1.7112,1.7112,1.7112,1.7128,1.7315,1.7388,1.7337,1.7019,1.69,1.6809,0.0,0.0,0.0,0.0,0.0,0.0,0.0,2.2653,2.2559,2.2903,2.2449,2.244,2.3334,2.3194,2.3095,2.3322,0.0,0.0,0.0,0.0,0.0,0.0,0.0,0.0,0.0,0.0,2.1093,2.1093,2.1093,2.0383,1.9004,1.9004,1.8283,1.698,1.6527,1.6349,0.0,0.0,0.0,0.0,0.0,0.0,0.0,0.0,0.0,0.0,0.0,0.0,0.0,0.0,0.0,0.0,0.0,0.0,0.0,0.0,0.0,0.0,1.7826,1.8371,1.8975,1.9553,2.0385,2.097,2.0741,2.165,2.2496,2.2294,2.2225,2.2402,2.3169,2.3559,2.3352,2.208,2.3411,2.3909,2.1876,2.1315,2.1176,2.1296,1.9421,1.7703,1.664,1.6817,1.7033,1.7104,1.7112,1.7112,1.7112,1.7112,1.7112,1.7112,1.7112,1.7112,1.7112,1.7112,1.7112,1.7112,1.7112,1.7112,1.7112,1.7112,1.7112,1.7112,1.7112,1.7185,1.7299,1.7299,1.7364,1.7455,1.7512,1.7536,1.7522,1.742,1.7172,1.6893,0.0,0.0,0.0,0.0,0.0,0.0,0.0,2.2918,2.2856,2.3074,2.2731,2.2719,2.3336,2.317,2.3072,2.3262,0.0,0.0,0.0,0.0,0.0,0.0,0.0,0.0,0.0,2.1093,2.1093,2.1093,2.1093,2.0652,1.9798,1.9798,1.9351,1.8524,1.7994,1.7753,0.0,0.0,0.0,0.0,0.0,0.0,1.5749,0.0,0.0,0.0,0.0,0.0,0.0,0.0,0.0,0.0,0.0,0.0,0.0,0.0,0.0,0.0,0.0,2.0043,2.0774,2.1313,2.2001,0.0,0.0,2.2617,2.31,2.2934,2.297,2.3166,2.3563,2.4271,2.4396,2.3251,2.4437,2.4983,2.3492,2.2959,2.2618,2.2357,2.1037,1.9533,1.8017,1.8044,1.7863,1.7156,1.7112,1.7112,1.7112,1.7112,1.7112,1.7112,1.7112,1.7112,1.7112,1.7112,1.7112,1.7112,1.7112,1.7112,1.709,1.7185,1.7218,1.7218,1.726,1.735,0.0,1.7486,1.752,1.7603,1.7668,1.77,1.7731,1.7796,1.7637,1.7409,0.0,0.0,0.0,0.0,0.0,0.0,0.0,2.309,2.309,2.309,2.309,2.3112,2.3126,2.3026,2.2945,2.2911,0.0,0.0,0.0,0.0,0.0,0.0,0.0,0.0,0.0,2.1093,2.1093,2.1093,2.1093,2.1093,2.1093,2.1093,2.1093,2.1046,1.9734,1.9148,0.0,0.0,0.0,0.0,0.0,0.0,0.0,0.0,0.0,0.0,0.0,0.0,0.0,0.0,0.0,0.0,0.0,0.0,0.0,0.0,0.0,0.0,0.0,0.0,0.0,0.0,0.0,0.0,0.0,0.0,0.0,2.2893,2.3113,2.3483,2.4088,2.4663,2.5069,2.5096,2.5304,2.5384,2.5136,2.3858,2.2636,2.1742,2.1796,2.1367,1.9958,1.9976,1.9317,1.7433,1.7301,1.7244,1.7112,1.7112,1.7112,1.7112,1.7112,1.7112,1.7112,1.7112,1.7112,1.7112,1.7098,1.7128,1.7136,1.7323,1.7404,1.7413,1.7552,1.7603,1.7611,1.7611,1.7619,1.7651,1.7844,1.7917,1.7934,1.8134,1.8199,1.8199,0.0,0.0,0.0,0.0,0.0,0.0,0.0,0.0,0.0,0.0,2.309,2.3183,2.3379,2.2986,2.2772,0.0,0.0,0.0,0.0,0.0,0.0,0.0,0.0,0.0,0.0,2.1093,2.1093,2.1093,2.1093,2.1093,2.1093,2.1093,2.1093,2.1093,2.0748,2.0605,2.0557,0.0,0.0,0.0,0.0,0.0,0.0,0.0,0.0,0.0,2.0144,2.0335,0.0,0.0,0.0,0.0,0.0,0.0,0.0,0.0,2.1874,0.0,0.0,0.0,0.0,0.0,0.0,0.0,0.0,0.0,0.0,0.0,0.0,2.3483,2.4088,2.4484,2.4791,2.5056,2.5163,2.5176,2.5109,2.5344,2.5087,2.3914,2.4036,2.3614,2.2042,2.1944,2.1208,1.9382,1.9252,1.8619,1.7178,1.7112,1.7112,1.7112,1.7112,1.7112,1.7112,1.7112,1.7112,1.709,1.7258,1.7323,1.7331,1.7479,1.7561,1.7561,1.7601,1.7698,1.7828,1.7828,1.7932,1.8054,1.8118,1.8134,1.8142,1.8183,1.8199,1.8199,0.0,0.0,0.0,0.0,0.0,0.0,0.0,0.0,0.0,0.0,0.0,0.0,0.0,0.0,0.0,0.0,0.0,0.0,0.0,0.0,0.0,0.0,0.0,0.0,2.1093,2.1093,2.1093,2.1093,2.1093,2.1093,2.1093,2.1093,2.1093,2.1093,2.1093,2.1093,2.1062,2.0415,2.0068,1.9909,1.9259,0.0,0.0,0.0,0.0,0.0,2.1093,2.1093,0.0,2.1093,2.1093,2.1093,0.0,0.0,0.0,0.0,2.2091,2.2726,2.3176,2.3541,2.3826,2.3986,0.0,0.0,0.0,0.0,0.0,0.0,0.0,2.3915,2.4489,2.4818,0.0,2.5251,2.5277,2.535,2.5483,2.5911,2.6116,2.5821,2.5934,2.5486,2.4025,2.3867,2.3116,2.1273,2.1143,2.0689,1.9678,1.8837,1.8388,1.8388,1.7543,1.7112,1.7112,1.7193,1.7242,1.7242,1.7421,1.7479,1.751,1.7666,1.7747,1.7747,1.7828,1.794,1.8038,1.8038,1.8095,1.8199,1.8199,1.8199,1.8199,1.8199,1.8199,1.8199,0.0,0.0,0.0,0.0,0.0,0.0,0.0,0.0,0.0,0.0,0.0,0.0,0.0,0.0,0.0,0.0,0.0,0.0,0.0,0.0,0.0,0.0,0.0,2.1093,2.1093,2.1093,2.1093,2.1093,2.1093,2.1093,2.1093,2.1093,2.1093,2.1093,2.1093,2.1093,2.103,1.983,2.0005,2.0998,1.9798,0.0,0.0,0.0,0.0,0.0,0.0,0.0,0.0,2.1093,2.1093,2.1093,2.1093,0.0,0.0,0.0,0.0,0.0,2.3296,2.3607,2.3839,2.3817,0.0,0.0,0.0,0.0,0.0,0.0,0.0,0.0,0.0,2.5291,0.0,0.0,2.5459,2.5625,2.6011,2.6131,2.6493,2.7262,2.7416,2.6996,2.5932,2.5832,2.5053,2.3159,2.303,2.2901,2.2622,2.0884,1.9895,1.9895,1.8116,1.7153,1.7153,1.7307,1.7396,1.7429,1.7577,1.7658,1.7643,1.7853,1.7957,1.7965,1.8134,1.8199,1.8199,1.8199,1.8199,1.8199,1.8199,1.8199,1.8199,1.8199,1.8199,1.8199,0.0,0.0,0.0,0.0,0.0,0.0,0.0,0.0,0.0,0.0,0.0,0.0,0.0,0.0,0.0,0.0,0.0,0.0,0.0,0.0,0.0,2.1093,2.1093,2.1093,2.1093,2.1093,2.1093,2.1093,2.1093,2.1093,2.1093,2.1093,2.1093,2.1093,2.1093,2.1093,2.1093,2.0872,2.0903,2.1077,2.0872,0.0,0.0,0.0,0.0,0.0,0.0,0.0,0.0,2.1093,2.1093,2.1093,2.1093,0.0,0.0,0.0,0.0,0.0,2.3638,2.3933,2.4075,2.387,0.0,0.0,0.0,0.0,0.0,0.0,0.0,0.0,0.0,2.5125,2.5438,0.0,2.5358,2.5705,2.6272,2.6767,2.7222,2.7609,2.7898,2.8001,2.7786,2.7778,2.6991,2.5117,2.4968,2.4285,2.2686,2.0884,1.9895,1.9895,1.8245,1.7348,1.7348,1.7372,1.7461,1.7562,1.7763,1.7853,1.7861,1.8054,1.8159,1.8159,1.8191,1.8199,1.8199,1.8199,1.8199,1.8199,1.8199,1.8199,1.8199,1.8199,1.8199,1.8199,0.0,0.0,0.0,0.0,0.0,0.0,0.0,0.0,0.0,0.0,0.0,0.0,0.0,0.0,0.0,0.0,0.0,0.0,0.0,0.0,0.0,2.1093,2.1093,2.1093,2.1093,2.1093,2.1093,2.1093,2.1093,2.1093,2.1093,2.1093,2.1093,2.1093,2.1093,2.1093,2.1093,2.1093,2.1093,2.1093,0.0,0.0,0.0,0.0,0.0,0.0,0.0,0.0,0.0,0.0,2.1093,2.1093,2.1093,0.0,0.0,0.0,0.0,0.0,2.3705,2.3999,2.4142,2.3866,0.0,0.0,0.0,0.0,0.0,0.0,0.0,0.0,0.0,0.0,2.5724,2.561,2.555,2.5752,2.652,2.672,2.7034,2.7629,2.7837,2.8005,2.8186,2.82,2.7841,2.6969,2.6906,2.6546,2.5683,2.3878,2.2945,2.3065,2.1403,2.0609,2.0862,1.9784,1.874,1.7771,1.7973,1.8054,1.8062,1.8159,1.8199,1.8199,1.8199,1.8199,1.8199,1.8199,1.8199,1.8199,1.8199,1.8199,1.8199,1.8199,1.8199,1.8199,0.0,0.0,0.0,0.0,0.0,0.0,0.0,0.0,0.0,0.0,0.0,0.0,0.0,0.0,0.0,0.0,0.0,0.0,0.0,0.0,2.1093,2.1093,2.1093,2.1093,2.1093,2.1093,2.1093,2.1093,2.1093,2.1093,2.1093,2.1093,2.1093,2.1093,2.1093,2.1093,2.1093,2.1093,2.1093,2.1093,0.0,0.0,0.0,0.0,0.0,0.0,0.0,0.0,0.0,0.0,0.0,0.0,0.0,0.0,0.0,2.2352,2.2936,2.347,2.3732,2.3999,2.4142,0.0,0.0,0.0,0.0,0.0,0.0,0.0,0.0,0.0,0.0,2.5711,2.5917,2.5984,2.5844,2.5979,2.6794,2.6787,2.6974,2.773,2.7823,2.7917,2.8186,2.82,2.82,2.82,2.82,2.82,2.82,2.6418,2.5515,2.5781,2.4058,2.3356,2.38,2.2293,2.0578,1.8641,1.8343,1.8199,1.8199,1.8199,1.8199,1.8199,1.8199,1.8199,1.8199,1.8199,1.8199,1.8199,1.8199,1.8199,1.8199,1.8199,1.8199,1.8199,0.0,0.0,0.0,0.0,0.0,0.0,0.0,0.0,0.0,0.0,0.0,0.0,0.0,0.0,0.0,0.0,0.0,0.0,0.0,0.0,2.1093,2.1093,2.1093,2.1093,2.1093,2.1093,2.1093,2.1093,2.1093,2.1093,2.1093,2.1093,2.1093,2.1093,2.1093,2.1093,2.1093,2.1093,2.1093,2.1093,2.1093,0.0,0.0,0.0,0.0,0.0,0.0,0.0,0.0,0.0,0.0,0.0,0.0,0.0,2.2087,2.2693,2.3295,2.3759,2.3785,2.3999,2.4142,2.3866,0.0,0.0,0.0,0.0,0.0,0.0,0.0,0.0,0.0,2.5512,2.5638,2.5957,2.6179,2.6553,2.7188,2.7476,2.7756,2.8112,2.8152,2.8165,2.82,2.82,2.82,2.82,2.82,2.82,2.82,2.6418,2.5515,2.5781,2.4161,2.3451,2.38,2.3777,2.2795,2.0848,1.9067,1.8199,1.8199,1.8199,1.8199,1.8199,1.8199,1.8199,1.8199,1.8199,1.8199,1.8199,1.8199,1.8199,1.8199,1.8199,1.8199,1.8199,0.0,0.0,0.0,0.0,0.0,0.0,0.0,0.0,0.0,0.0,0.0,0.0,0.0,0.0,0.0,0.0,0.0,0.0,0.0,2.1093,2.1093,2.1093,2.1093,2.1093,2.1093,2.1093,2.1093,2.1093,2.1093,2.1093,2.1093,2.1093,2.1093,2.1093,2.1093,2.1093,2.1093,2.1093,2.1093,2.1093,2.1093,2.1093,0.0,0.0,0.0,0.0,0.0,0.0,0.0,0.0,2.1245,2.1435,0.0,2.19,2.2378,2.2979,2.3465,2.3843,2.4013,2.423,2.4337,2.3906,0.0,0.0,0.0,0.0,0.0,0.0,0.0,0.0,0.0,0.0,2.5898,2.6205,2.6466,2.6867,2.7455,2.7629,2.7823,2.8173,2.82,2.82,2.82,2.82,2.82,2.82,2.82,2.82,2.82,2.7694,2.7509,2.777,2.7382,2.6724,2.5795,2.4604,2.3022,2.1098,2.0358,1.9987,1.9964,1.875,1.8199,1.8199,1.8199,1.8199,1.8199,1.8199,1.8199,1.8199,1.8199,1.8199,1.8199,1.8199,1.8199,1.8199,0.0,0.0,0.0,0.0,0.0,0.0,0.0,0.0,0.0,0.0,0.0,0.0,0.0,0.0,0.0,0.0,0.0,0.0,2.1125,2.1093,2.1093,2.1093,2.1093,2.1093,2.1093,2.1093,2.1093,2.1093,2.1093,2.1093,2.1093,2.1093,2.1093,2.1093,2.1093,2.1093,2.1093,2.1093,2.1093,2.1093,2.1093,2.1093,0.0,0.0,0.0,0.0,0.0,0.0,0.0,0.0,2.1325,2.1612,0.0,0.0,2.2686,0.0,2.3607,2.3852,2.4128,2.4271,2.4262,0.0,0.0,0.0,0.0,0.0,0.0,0.0,0.0,0.0,0.0,0.0,0.0,2.6379,2.6707,2.7134,2.7629,2.7797,2.793,2.8186,2.82,2.82,2.82,2.82,2.82,2.82,2.82,2.8253,2.8326,2.8497,2.877,2.9143,2.9379,2.8984,2.794,2.6548,2.4899,2.2966,2.231,2.1365,2.0135,1.882,1.8199,1.8199,1.8199,1.8199,1.8199,1.8199,1.8199,1.8199,1.8199,1.8199,1.8199,1.8199,1.8199,1.8199,0.0,0.0,0.0,0.0,0.0,0.0,0.0,0.0,0.0,0.0,0.0,0.0,0.0,0.0,0.0,0.0,0.0,0.0,2.1093,2.1093,2.1093,2.1093,2.1093,2.1093,2.1093,2.1093,2.1093,2.1093,2.1093,2.1093,2.1093,2.1093,2.1093,2.1093,2.1093,2.1093,2.1093,2.1093,2.1093,2.1093,2.1093,2.1093,2.1093,0.0,0.0,0.0,0.0,0.0,0.0,0.0,2.1325,0.0,0.0,0.0,0.0,2.3629,2.3803,2.3852,2.4128,2.4013,0.0,0.0,0.0,0.0,0.0,0.0,0.0,0.0,0.0,0.0,2.6051,2.6219,0.0,2.6386,2.6901,2.7395,2.7669,2.8005,2.82,2.82,2.82,2.82,2.82,2.82,2.82,2.82,2.82,2.8326,2.8591,2.8604,2.8885,2.9481,2.9508,2.9633,2.9869,2.9869,2.8899,2.6944,2.4944,2.1965,1.8223,1.8199,1.8199,1.8199,1.8199,1.8199,1.8199,1.8199,1.8199,1.8199,1.8199,1.8199,1.8199,1.8199,1.8199,1.8199,0.0,0.0,0.0,0.0,0.0,0.0,0.0,0.0,0.0,0.0,0.0,0.0,0.0,0.0,0.0,0.0,0.0,0.0,2.1093,2.1093,2.1093,2.1093,2.1093,2.1093,2.1093,2.1093,2.1093,2.1093,2.1093,2.1093,2.1093,2.1093,2.1093,2.1093,2.1093,2.1093,2.1093,2.1093,2.1093,2.1093,2.1093,2.1093,2.1093,0.0,0.0,0.0,0.0,0.0,0.0,0.0,0.0,0.0,2.2205,0.0,2.326,2.3679,2.3803,2.3852,2.4128,2.4142,0.0,2.4075,0.0,0.0,0.0,0.0,0.0,0.0,2.6353,2.6326,2.6051,2.6379,2.6674,2.6674,2.7188,2.769,2.8005,2.8146,2.82,2.82,2.82,2.82,2.82,2.82,2.82,2.82,2.82,2.8326,2.8591,2.8783,2.9063,2.9495,2.9686,2.9158,2.7873,2.786,2.6865,2.4876,2.4282,2.2678,2.0196,1.882,1.8199,1.8199,1.8199,1.8199,1.8199,1.8199,1.8199,1.8199,1.8199,1.8199,1.8199,1.8199,1.8199,1.8199,0.0,0.0,0.0,0.0,0.0,0.0,0.0,0.0,0.0,0.0,0.0,0.0,0.0,0.0,0.0,0.0,0.0,0.0,0.0,2.1093,2.1093,2.1093,2.1093,2.1093,2.1093,2.1093,2.1093,2.1093,2.1093,2.1093,2.1093,2.1093,2.1093,2.1093,2.1093,2.1093,2.1093,2.1093,2.1093,2.1093,2.1093,2.1093,2.1093,0.0,0.0,0.0,0.0,0.0,0.0,0.0,0.0,0.0,2.2498,2.302,2.3541,2.3732,2.3866,2.3999,2.4155,2.4289,0.0,2.4516,2.4863,2.5291,2.5758,0.0,0.0,0.0,2.6406,2.6353,2.6179,2.6507,2.6834,2.6974,2.7388,2.7823,2.8138,2.82,2.82,2.82,2.82,2.82,2.82,2.82,2.82,2.82,2.82,2.8345,2.8729,2.8908,2.921,2.9646,2.982,2.9339,2.8166,2.8143,2.716,2.5195,2.5195,2.4168,2.2195,2.0242,1.8936,1.8199,1.8199,1.8199,1.8199,1.8199,1.8199,1.8199,1.8199,1.8199,1.8199,1.8199,1.8199,1.8199,0.0,0.0,0.0,0.0,0.0,0.0,0.0,0.0,0.0,0.0,0.0,0.0,0.0,0.0,0.0,0.0,0.0,0.0,0.0,0.0,2.1093,2.1093,2.1093,2.1093,2.1093,2.1093,2.1093,2.1093,2.1093,2.1093,2.1093,2.1093,2.1093,2.1093,2.1093,2.1093,2.1093,2.1093,2.1093,2.1093,2.1093,2.1093,2.1093,2.1093,0.0,0.0,0.0,0.0,0.0,0.0,0.0,0.0,2.2823,2.3348,2.3826,2.3817,2.3999,2.4195,2.4168,2.4377,2.4684,2.5029,2.5583,0.0,2.6353,2.6406,2.6406,2.6406,0.0,2.6419,2.6426,2.6667,2.6961,2.7275,2.7569,2.785,2.8173,2.82,2.82,2.82,2.82,2.82,2.82,2.82,2.8213,2.8219,2.8253,2.8465,2.9023,2.9063,2.9317,2.9878,2.9891,2.9891,2.9891,2.9891,2.9012,2.7273,2.7273,2.6219,2.4214,2.2241,2.0404,1.8727,1.8541,1.8447,1.8447,1.8269,1.8199,1.8199,1.8199,1.8199,1.8199,1.8199,1.8199,1.8199,0.0,0.0,0.0,0.0,0.0,0.0,0.0,0.0,0.0,0.0,0.0,0.0,0.0,0.0,0.0,0.0,0.0,0.0,0.0,0.0,2.1093,2.1093,2.1093,2.1093,2.1093,2.1093,2.1093,2.1093,2.1093,2.1093,2.1093,2.1093,2.1093,2.1093,2.1093,2.1093,2.1093,2.1093,2.1093,2.1093,2.1093,2.1093,2.1093,2.1093,2.1093,0.0,0.0,0.0,0.0,0.0,0.0,0.0,2.3109,2.3634,2.4062,2.3852,2.3999,2.4155,2.3946,2.4249,2.4684,2.5029,2.5711,2.6339,2.6393,2.6406,2.6406,2.6406,2.6406,2.6453,2.6694,2.6974,2.7288,2.7583,2.7877,2.8112,2.82,2.82,2.82,2.82,2.82,2.82,2.82,2.82,2.8286,2.8484,2.8511,2.8764,2.9352,2.9392,2.9553,2.9878,2.9891,2.9891,2.9891,2.9891,2.9689,2.9272,2.9272,2.8256,2.6287,2.4305,2.316,2.2678,2.1144,2.0473,2.0358,1.882,1.8199,1.8199,1.8199,1.8199,1.8199,1.8199,1.8199,1.8199,0.0,0.0,0.0,0.0,0.0,0.0,0.0,0.0,0.0,0.0,0.0,0.0,0.0,0.0,0.0,0.0,0.0,0.0,0.0,0.0,2.1093,2.1093,2.1093,2.1093,2.1093,2.1093,2.1093,2.1093,2.1093,2.1093,0.0,2.1093,2.1093,2.1093,2.1093,2.1093,2.1093,2.1093,2.1093,2.1093,2.1093,2.1093,2.1122,2.1285,2.1339,0.0,0.0,0.0,0.0,0.0,0.0,0.0,0.0,0.0,2.3986,2.3826,2.3892,2.4013,2.3999,2.4409,2.4983,2.5558,2.6052,2.6406,2.6406,2.6406,2.6406,2.6406,2.6406,2.648,2.6754,2.7068,2.7382,2.7655,2.797,2.82,2.82,2.82,2.82,2.82,2.82,2.82,2.82,2.8326,2.8452,2.8591,2.8716,2.9005,2.9481,2.9508,2.9619,2.9878,2.9891,2.9891,2.9891,2.9891,2.9891,2.9891,2.9891,2.9362,2.8279,2.5332,2.4008,2.3939,2.2931,2.2494,2.2402,2.1388,2.0427,1.9578,1.9578,1.9029,1.8199,1.8199,1.8199,1.8199,0.0,0.0,0.0,0.0,0.0,0.0,0.0,0.0,0.0,0.0,0.0,0.0,0.0,0.0,0.0,0.0,0.0,0.0,0.0,0.0,0.0,2.1093,2.1093,2.1093,2.1093,2.1093,2.1093,2.1093,2.1093,0.0,0.0,0.0,0.0,2.1093,2.1093,2.1093,2.1093,2.1093,2.1093,2.1109,2.1162,2.1189,2.1216,2.1542,0.0,0.0,0.0,0.0,0.0,0.0,0.0,0.0,0.0,0.0,2.379,2.3732,2.3785,2.3906,2.4075,2.4636,2.5377,2.6186,2.6406,2.6406,2.6406,2.6406,2.64,2.6453,2.6466,2.6547,2.682,2.7155,2.7462,2.7743,2.8031,2.82,2.82,2.82,2.82,2.82,2.82,2.8226,2.8259,2.8478,2.8644,2.8751,2.8956,2.9223,2.9539,2.9566,2.9673,2.9891,2.9891,2.9891,2.9891,2.9891,2.9891,2.9891,2.9891,2.9891,2.9801,2.6503,2.5013,2.499,2.4671,2.4534,2.4488,2.4145,2.3045,2.1596,2.1596,2.0612,1.9169,1.882,1.8704,1.8657,0.0,0.0,0.0,0.0,0.0,0.0,0.0,0.0,0.0,0.0,0.0,0.0,0.0,0.0,0.0,0.0,0.0,0.0,0.0,0.0,0.0,2.1093,2.1093,2.1093,2.1093,2.1093,2.1093,2.1093,0.0,0.0,0.0,0.0,0.0,2.1093,0.0,2.1093,2.1093,2.1093,2.1093,2.1136,2.1422,2.1529,2.1555,0.0,0.0,0.0,0.0,0.0,0.0,0.0,2.3269,0.0,0.0,0.0,2.3732,2.3443,2.3754,2.4102,2.3906,2.4623,2.5598,2.6226,2.6406,2.6406,2.6406,2.6406,2.6466,2.6687,2.674,2.6854,2.7168,2.7462,2.7756,2.8072,2.8186,2.82,2.82,2.82,2.82,2.82,2.82,2.8286,2.8524,2.8577,2.8818,2.9347,2.9406,2.9553,2.9824,2.986,2.9851,2.9891,2.9891,2.9891,2.9891,2.9891,2.9891,2.9891,2.9891,2.9891,2.9869,2.9339,2.9115,2.9025,2.7318,2.6604,2.6468,2.4716,2.3848,2.3619,2.3619,2.3458,2.3022,2.1329,2.0705,2.0473,0.0,0.0,0.0,0.0,0.0,0.0,0.0,0.0,0.0,0.0,0.0,0.0,0.0,0.0,0.0,0.0,0.0,0.0,0.0,0.0,0.0,2.1093,2.1093,2.1093,2.1093,2.1093,2.1093,2.1093,0.0,0.0,0.0,2.1379,2.1285,0.0,0.0,0.0,0.0,0.0,0.0,2.1617,2.1753,0.0,0.0,0.0,0.0,0.0,0.0,0.0,0.0,0.0,0.0,2.3612,2.3745,0.0,0.0,0.0,2.3496,2.3834,2.4374,2.5136,2.5885,2.6299,2.6406,2.6406,2.6406,2.652,2.6667,2.678,2.7061,2.7348,2.7502,2.7615,2.781,2.816,2.82,2.82,2.82,2.82,2.82,2.82,2.8339,2.8478,2.8591,2.8911,2.9205,2.9481,2.9633,2.978,2.9891,2.9891,2.9891,2.9891,2.9891,2.9891,2.9891,2.9891,2.9891,2.9891,2.9891,2.9891,2.9891,2.9891,2.9891,2.9846,2.8989,2.8629,2.8562,2.7669,2.6661,2.5582,2.4442,2.3344,2.2149,2.0196,1.9486,1.9346,0.0,0.0,0.0,0.0,0.0,0.0,0.0,0.0,0.0,0.0,0.0,0.0,0.0,0.0,0.0,0.0,0.0,0.0,0.0,0.0,0.0,2.1093,2.1093,2.1093,2.1093,2.1093,2.1149,0.0,0.0,0.0,2.1689,2.1689,2.1582,0.0,2.1596,0.0,0.0,0.0,0.0,0.0,0.0,0.0,0.0,0.0,0.0,0.0,0.0,0.0,0.0,0.0,0.0,0.0,0.0,2.3447,0.0,0.0,0.0,2.387,2.4917,2.559,2.6065,2.6339,2.6406,2.6433,2.648,2.6667,2.6847,2.6994,2.7388,2.7722,2.7823,2.7837,2.7903,2.8173,2.82,2.82,2.82,2.82,2.824,2.8286,2.8492,2.8671,2.8818,2.9254,2.9535,2.9615,2.9793,2.9891,2.9891,2.9891,2.9891,2.9891,2.9891,2.9891,2.9891,2.9891,2.9891,2.9891,2.9891,2.9891,2.9891,2.9891,2.9891,2.9891,2.9891,2.9891,2.9891,2.9891,2.9047,2.7589,2.6082,2.4625,2.3045,2.0589,1.9671,1.9532,0.0,0.0,0.0,0.0,0.0,0.0,0.0,0.0,0.0,0.0,0.0,0.0,0.0,0.0,0.0,2.1156,2.1093,2.1093,2.1093,2.1093,2.1093,2.1093,2.1093,0.0,2.1093,2.1093,0.0,0.0,0.0,0.0,2.1981,2.1981,2.1967,2.1954,2.1967,2.1981,2.1981,0.0,0.0,0.0,0.0,0.0,0.0,0.0,0.0,0.0,0.0,0.0,0.0,0.0,0.0,0.0,0.0,0.0,0.0,0.0,0.0,0.0,2.5298,2.5738,2.6065,2.6339,2.6406,2.6466,2.6714,2.6794,2.6954,2.7535,2.7682,2.781,2.8112,2.8165,2.8186,2.82,2.82,2.82,2.82,2.82,2.8299,2.8551,2.8591,2.8831,2.9401,2.9481,2.9606,2.9851,2.9891,2.9891,2.9891,2.9891,2.9891,2.9891,2.9891,2.9891,2.9891,2.9891,2.9891,2.9891,2.9891,2.9891,2.9891,2.9891,2.9891,2.9891,2.9891,2.9891,2.9891,2.9891,2.9846,2.9734,2.9622,2.9532,2.898,2.5127,2.371,2.316,0.0,0.0,0.0,0.0,0.0,0.0,0.0,0.0,0.0,0.0,0.0,0.0,0.0,2.2904,2.1915,2.1457,2.122,2.1093,2.1093,2.1093,2.1093,2.1093,2.1093,2.1093,2.1093,2.1312,0.0,0.0,0.0,2.1994,2.2258,2.2258,2.2365,2.2572,2.2352,2.2258,2.2271,2.2489,0.0,0.0,0.0,0.0,0.0,0.0,0.0,0.0,0.0,0.0,0.0,0.0,0.0,0.0,0.0,0.0,0.0,0.0,0.0,2.4791,2.5604,2.5917,2.6024,2.6131,2.6386,2.664,2.656,2.6987,2.7442,2.7655,2.7877,2.8058,2.8186,2.82,2.82,2.82,2.82,2.82,2.82,2.82,2.8299,2.8577,2.8756,2.9023,2.9468,2.9659,2.9806,2.9891,2.9891,2.9891,2.9891,2.9891,2.9891,2.9891,2.9891,2.9891,2.9891,2.9891,2.9891,2.9891,2.9891,2.9891,2.9891,2.9891,2.9891,2.9891,2.9891,2.9891,2.9891,2.9891,2.9891,2.9779,2.8539,2.8053,2.7702,2.499,2.4008,2.3802,0.0,0.0,0.0,0.0,0.0,0.0,0.0,0.0,0.0,0.0,0.0,0.0,0.0,0.0,2.259,2.1677,2.1409,2.122,2.1109,2.1093,2.1093,2.1093,2.1203,2.1272,2.1272,0.0,0.0,0.0,0.0,0.0,0.0,2.2565,2.2689,2.2893,2.2676,2.2565,0.0,0.0,0.0,2.2934,0.0,0.0,2.3803,0.0,0.0,0.0,0.0,0.0,0.0,0.0,0.0,0.0,0.0,0.0,0.0,0.0,0.0,0.0,2.5837,2.6065,2.6118,2.6024,2.6339,2.6633,2.656,2.7068,2.7623,2.7823,2.8045,2.82,2.82,2.82,2.82,2.82,2.82,2.82,2.82,2.8272,2.8438,2.8689,2.8983,2.9277,2.9593,2.9806,2.9891,2.9891,2.9891,2.9891,2.9891,2.9891,2.9891,2.9891,2.9891,2.9891,2.9891,2.9891,2.9891,2.9891,2.9891,2.9891,2.9891,2.9891,2.9891,2.9891,2.9891,2.9891,2.9891,2.9891,2.9891,2.9779,2.8481,2.7985,2.7725,2.5741,2.5013,2.4922,0.0,0.0,0.0,0.0,0.0,0.0,0.0,0.0,0.0,0.0,0.0,0.0,0.0,0.0,0.0,2.1853,2.1677,2.152,2.1141,2.1122,2.1122,2.1122,2.1419,2.1612,2.1612,0.0,0.0,0.0,0.0,0.0,0.0,0.0,2.2893,0.0,2.2893,2.2893,2.2893,0.0,2.2893,2.2947,0.0,2.3821,2.3874,0.0,0.0,0.0,2.3638,2.4533,0.0,0.0,0.0,0.0,0.0,0.0,0.0,0.0,0.0,0.0,0.0,0.0,0.0,2.6065,2.6205,2.6466,2.6727,2.7041,2.7469,2.8058,2.8186,2.82,2.82,2.82,2.82,2.82,2.82,2.82,2.82,2.8438,2.8689,2.8961,2.9299,2.9606,2.9864,2.9891,2.9891,2.9891,2.9891,2.9891,2.9891,2.9891,2.9891,2.9891,2.9891,2.9891,2.9891,2.9891,2.9891,2.9891,2.9891,2.9891,2.9891,2.9891,2.9891,2.9891,2.9891,2.9891,2.9891,2.9891,2.9891,2.9891,2.9891,2.9891,2.9667,2.777,2.7092,2.6808,0.0,0.0,0.0,0.0,0.0,0.0,0.0,0.0,0.0,0.0,0.0,0.0,0.0,0.0,0.0,2.3899,2.3558,2.2857,2.1551,2.1692,2.1718,2.1478,2.1743,2.1887,2.1887,2.2151,0.0,0.0,0.0,0.0,0.0,0.0,0.0,0.0,2.2893,2.2893,2.2893,2.2893,0.0,0.0,2.3562,2.4433,0.0,0.0,0.0,0.0,0.0,2.6225,0.0,0.0,2.4643,2.4802,0.0,0.0,0.0,0.0,0.0,0.0,2.6232,0.0,0.0,0.0,0.0,0.0,2.6533,2.6914,2.7395,2.777,2.7837,2.7903,2.816,2.82,2.82,2.82,2.82,2.82,2.82,2.8438,2.8689,2.8961,2.9299,2.9606,2.9864,2.9891,2.9891,2.9891,2.9891,2.9891,2.9891,2.9891,2.9891,2.9891,2.9891,2.9891,2.9891,2.9891,2.9891,2.9891,2.9891,2.9891,2.9891,2.9891,2.9891,2.9891,2.9891,2.9891,2.9891,2.9891,2.9891,2.9891,2.9891,2.9891,2.9824,2.9294,2.9115,2.9025,0.0,0.0,0.0,0.0,0.0,0.0,0.0,0.0,0.0,0.0,0.0,0.0,0.0,0.0,0.0,2.5982,2.5765,2.5172,2.4056,2.3614,2.3312,2.3119,2.2794,2.2563,2.2413,2.2677,0.0,0.0,0.0,0.0,0.0,0.0,0.0,0.0,0.0,0.0,0.0,0.0,0.0,0.0,2.4238,0.0,0.0,2.6673,2.7885,0.0,0.0,0.0,2.8015,2.7433,2.6595,0.0,0.0,0.0,0.0,0.0,0.0,0.0,0.0,0.0,0.0,0.0,0.0,0.0,2.6587,2.6954,2.7429,2.7823,2.7903,2.7978,2.8152,2.82,2.82,2.82,2.82,2.82,2.82,2.8438,2.8689,2.8961,2.9299,2.9606,2.9864,2.9891,2.9891,2.9891,2.9891,2.9891,2.9891,2.9891,2.9891,2.9891,2.9891,2.9891,2.9891,2.9891,2.9891,2.9891,2.9891,2.9891,2.9891,2.9891,2.9891,2.9891,2.9891,2.9891,2.9891,2.9891,2.9891,2.9891,2.9891,2.9891,2.9891,2.9891,2.9891,2.9891,0.0,0.0,0.0,0.0,0.0,0.0,0.0,0.0,0.0,0.0,0.0,0.0,0.0,0.0,0.0,0.0,2.807,2.7866,2.7391,2.6216,2.5526,2.5477,2.454,2.3883,2.3582,2.3612,2.4193,0.0,0.0,0.0,0.0,0.0,0.0,0.0,0.0,0.0,0.0,0.0,0.0,2.3477,2.533,2.6266,0.0,0.0,2.8586,0.0,2.8545,2.8979,3.0258,3.0753,2.9626,0.0,0.0,0.0,0.0,0.0,2.6194,0.0,0.0,0.0,0.0,0.0,0.0,0.0,2.6687,2.6994,2.7362,2.7924,2.8031,2.8079,2.8125,2.8138,2.8173,2.8179,2.82,2.82,2.82,2.8438,2.8689,2.8961,2.9299,2.9606,2.9864,2.9891,2.9891,2.9891,2.9891,2.9891,2.9891,2.9891,2.9891,2.9891,2.9891,2.9891,2.9891,2.9891,2.9891,2.9891,2.9891,2.9891,2.9891,2.9891,2.9891,2.9891,2.9891,2.9891,2.9891,2.9891,2.9891,2.9891,2.9891,2.9891,2.9891,2.9891,2.9891,2.9891,0.0,0.0,0.0,0.0,0.0,0.0,0.0,0.0,0.0,0.0,0.0,0.0,0.0,0.0,0.0,0.0,2.9725,2.915,2.7802,2.7643,2.7487,2.7213,2.7246,2.7241,2.7192,2.5822,2.5752,0.0,0.0,0.0,0.0,0.0,0.0,0.0,0.0,0.0,0.0,0.0,0.0,2.5999,2.6399,0.0,3.0214,3.1179,3.2541,3.3714,3.221,3.2045,3.2369,0.0,2.9742,2.8572,0.0,0.0,0.0,0.0,0.0,0.0,0.0,0.0,0.0,0.0,0.0,0.0,2.6466,2.652,2.6673,2.7001,2.7081,2.7228,2.7716,2.781,2.789,2.816,2.82,2.82,2.82,2.8438,2.8689,2.8961,2.9299,2.9606,2.9864,2.9891,2.9891,2.9891,2.9891,2.9891,2.9891,2.9891,2.9891,2.9891,2.9891,2.9891,2.9891,2.9891,2.9891,2.9891,2.9891,2.9891,2.9891,2.9891,2.9891,2.9891,2.9891,2.9891,2.9891,2.9891,2.9891,2.9891,2.9891,2.9891,2.9891,2.9891,2.9891,2.9891,0.0,0.0,0.0,0.0,0.0,0.0,0.0,0.0,0.0,0.0,0.0,0.0,0.0,0.0,0.0,0.0,0.0,0.0,0.0,3.0073,2.9665,2.9504,2.8981,2.8624,2.846,2.7569,2.7635,2.869,0.0,0.0,0.0,0.0,0.0,0.0,0.0,0.0,0.0,0.0,2.8752,2.9899,2.9395,0.0,3.1787,3.2624,3.3937,3.5121,3.3744,3.3862,3.4446,3.2896,3.169,0.0,0.0,3.086,2.8797,0.0,2.8498,2.7502,0.0,0.0,0.0,2.6379,0.0,0.0,0.0,2.66,2.6694,2.6987,2.7161,2.7348,2.7642,2.7837,2.8005,2.8186,2.82,2.82,2.82,2.8326,2.8537,2.8948,2.9157,2.941,2.9851,2.9891,2.9891,2.9891,2.9891,2.9891,2.9891,2.9891,2.9891,2.9891,2.9891,2.9891,2.9891,2.9891,2.9891,2.9891,2.9891,2.9891,2.9891,2.9891,2.9891,2.9891,2.9891,2.9891,2.9891,2.9891,2.9891,2.9891,2.9891,2.9891,2.9891,2.9891,2.9891,2.9891,0.0,0.0,0.0,0.0,0.0,0.0,0.0,0.0,0.0,0.0,0.0,0.0,0.0,0.0,0.0,0.0,0.0,0.0,0.0,0.0,3.18,3.1707,3.0613,2.9884,2.9606,2.9279,2.9524,3.0387,0.0,0.0,0.0,0.0,0.0,0.0,0.0,0.0,0.0,0.0,0.0,3.306,0.0,3.2524,3.289,3.353,3.4583,3.5595,3.4603,3.5155,3.6106,3.4726,0.0,3.3661,3.4478,3.3276,0.0,0.0,0.0,0.0,0.0,0.0,0.0,0.0,0.0,2.6453,0.0,0.0,0.0,2.7155,2.7436,2.7629,2.7682,2.7917,2.8098,2.8098,2.8173,2.8186,2.8112,2.8173,2.8379,2.8876,2.8961,2.9223,2.9757,2.9811,2.9838,2.9891,2.9838,2.986,2.9891,2.9891,2.9891,2.9891,2.9891,2.9891,2.9891,2.9891,2.9891,2.9891,2.9891,2.9891,2.9891,2.9891,2.9891,2.9891,2.9891,2.9891,2.9891,2.9891,2.9891,2.9891,2.9891,2.9891,2.9891,2.9891,2.9891,2.9891,0.0,0.0,0.0,0.0,0.0,0.0,0.0,0.0,0.0,0.0,0.0,0.0,0.0,0.0,0.0,0.0,0.0,0.0,3.4039,0.0,0.0,3.3165,3.3003,3.2912,3.2861,3.1352,3.1208,3.2546,3.0516,0.0,0.0,0.0,0.0,0.0,3.1114,0.0,0.0,0.0,3.302,0.0,3.4109,3.4648,0.0,3.5558,3.596,3.6108,3.5978,3.6271,3.6658,0.0,3.5184,3.4485,0.0,3.4082,3.2039,0.0,0.0,0.0,0.0,0.0,0.0,0.0,2.6406,0.0,0.0,0.0,2.6807,2.6847,0.0,2.7409,2.7655,0.0,0.0,2.7749,2.8005,2.8098,2.781,2.8018,2.8312,2.8617,2.8863,2.9143,2.9499,2.9561,2.9633,2.9878,2.9673,2.9646,2.9878,2.9891,2.9891,2.9891,2.9891,2.9891,2.9891,2.9891,2.9891,2.9891,2.9891,2.9891,2.9891,2.9891,2.9891,2.9891,2.9891,2.9891,2.9891,2.9891,2.9891,2.9891,2.9891,2.9891,2.9891,2.9891,2.9891,2.9891,0.0,0.0,0.0,0.0,0.0,0.0,0.0,0.0,0.0,3.3383,0.0,0.0,0.0,0.0,0.0,0.0,0.0,0.0,0.0,0.0,0.0,0.0,3.3402,0.0,3.3402,3.2667,3.2641,3.3312,3.2421,3.2304,0.0,0.0,0.0,0.0,3.2741,0.0,3.2983,0.0,3.4105,0.0,0.0,0.0,0.0,3.598,3.6347,3.6549,3.6549,3.6824,3.7116,0.0,3.6387,0.0,0.0,0.0,0.0,0.0,0.0,0.0,0.0,0.0,0.0,0.0,0.0,0.0,2.668,0.0,2.7081,0.0,0.0,0.0,0.0,0.0,0.0,0.0,2.8098,2.8138,2.8018,2.8112,2.8299,2.8577,2.8689,2.8965,2.9446,2.9508,2.9606,2.9878,2.9646,2.9606,2.9878,2.9891,2.9891,2.9891,2.9891,2.9891,2.9891,2.9891,2.9891,2.9891,2.9891,2.9891,2.9891,2.9891,2.9891,2.9891,2.9891,2.9891,2.9891,2.9891,2.9891,2.9891,2.9891,2.9891,2.9891,2.9891,2.9891,2.9891,0.0,0.0,0.0,0.0,0.0,0.0,0.0,0.0,0.0,0.0,0.0,0.0,3.3402,3.3617,0.0,0.0,0.0,3.4528,0.0,0.0,3.4118,0.0,0.0,0.0,0.0,0.0,3.3681,3.3901,3.3801,3.3721,0.0,0.0,0.0,0.0,0.0,3.4128,3.4403,0.0,3.4789,3.5156,3.5266,3.5577,3.5962,3.6255,3.6622,3.6951,3.6951,3.7208,3.7557,3.7447,3.7282,3.7227,3.7685,0.0,0.0,0.0,0.0,0.0,3.0743,0.0,0.0,0.0,0.0,0.0,0.0,0.0,0.0,0.0,0.0,0.0,0.0,0.0,0.0,0.0,0.0,2.8173,2.8072,2.8138,2.8272,2.8478,2.8551,2.8804,2.9312,2.9285,2.9392,2.9766,2.9526,2.9526,2.9878,2.9891,2.9891,2.9891,2.9891,2.9891,2.9891,2.9891,2.9891,2.9891,2.9891,2.9891,2.9891,2.9891,2.9891,2.9891,2.9891,2.9891,2.9891,2.9891,2.9891,2.9891,2.9891,2.9891,2.9891,2.9891,2.9891,2.9891,0.0,3.3363,0.0,0.0,0.0,0.0,0.0,0.0,0.0,0.0,0.0,0.0,0.0,0.0,0.0,0.0,0.0,3.5569,3.4726,0.0,3.4668,0.0,0.0,0.0,0.0,0.0,0.0,3.4652,3.4343,3.4393,0.0,0.0,0.0,0.0,0.0,3.4385,3.4422,3.4826,3.5211,3.5614,3.5999,3.6402,3.6768,0.0,3.7024,3.7392,3.7392,3.7648,3.7923,3.7538,3.7648,3.7887,3.7538,3.7667,0.0,0.0,0.0,0.0,0.0,0.0,0.0,2.7697,0.0,0.0,0.0,0.0,2.7682,0.0,0.0,0.0,0.0,0.0,0.0,0.0,0.0,0.0,0.0,2.8005,2.8213,2.8226,2.8452,2.8703,2.8988,2.8783,2.8871,2.9481,2.9197,2.9268,2.9864,2.9891,2.9891,2.9891,2.9891,2.9891,2.9891,2.9891,2.9891,2.9891,2.9891,2.9891,2.9891,2.9891,2.9891,2.9891,2.9891,2.9891,2.9891,2.9891,2.9891,2.9891,2.9891,2.9891,2.9891,2.9891,2.9891,2.9891,0.0,0.0,0.0,0.0,0.0,0.0,0.0,3.3402,0.0,0.0,0.0,0.0,0.0,0.0,3.4941,0.0,0.0,3.5881,3.5569,3.555,0.0,0.0,0.0,3.4629,0.0,0.0,0.0,0.0,0.0,0.0,3.4867,0.0,0.0,0.0,0.0,3.4939,0.0,0.0,0.0,0.0,0.0,3.6604,3.7172,3.6896,3.7043,3.7428,3.7703,3.807,3.838,3.8234,3.8107,3.8015,3.8142,3.7904,3.763,3.7758,3.7335,3.6397,3.462,3.3849,3.281,2.978,0.0,0.0,0.0,0.0,0.0,0.0,0.0,0.0,0.0,0.0,0.0,0.0,0.0,0.0,0.0,2.8125,2.82,2.82,2.8438,2.8644,2.8729,2.881,2.9037,2.9481,2.9392,2.9499,2.9878,2.9891,2.9891,2.9891,2.9891,2.9891,2.9891,2.9891,2.9891,2.9891,2.9891,2.9891,2.9891,2.9891,2.9891,2.9891,2.9891,2.9891,2.9891,2.9891,2.9891,2.9891,2.9891,2.9891,2.9891,2.9891,2.9891,2.9891,3.3402,0.0,0.0,0.0,0.0,0.0,0.0,0.0,0.0,0.0,3.4313,0.0,3.5098,0.0,3.5642,0.0,3.6387,3.633,3.6018,3.6172,0.0,3.5876,3.541,0.0,0.0,0.0,0.0,0.0,0.0,3.5508,3.5299,3.5282,0.0,0.0,0.0,3.5171,3.5823,3.5823,3.6292,0.0,0.0,3.6805,3.7373,3.7098,3.7244,3.7667,3.807,3.838,3.86,3.86,3.8417,3.8272,3.8527,3.8234,3.7887,3.8143,3.8033,3.7482,3.5804,3.5483,3.4905,3.1887,3.143,3.1212,2.9257,0.0,2.8943,0.0,0.0,0.0,0.0,0.0,0.0,0.0,0.0,0.0,0.0,2.82,2.82,2.82,2.8345,2.8505,2.8591,2.8671,2.8885,2.9299,2.9325,2.9446,2.9753,2.986,2.9891,2.9891,2.9891,2.9891,2.9891,2.9891,2.9891,2.9891,2.9891,2.9891,2.9891,2.9891,2.9891,2.9891,2.9891,2.9891,2.9891,2.9891,2.9891,2.9891,2.9891,2.9891,2.9891,2.9891,2.9891,2.9891,0.0,0.0,0.0,0.0,3.3461,0.0,0.0,0.0,3.3773,0.0,3.4766,3.5098,3.5979,3.6462,3.6753,3.6773,3.7107,0.0,3.6155,3.6504,0.0,0.0,3.6309,3.6643,3.7873,0.0,0.0,0.0,0.0,0.0,3.5964,3.5264,3.5164,0.0,3.4787,0.0,3.627,3.627,3.6701,3.7394,3.7007,3.7099,3.7429,3.7428,3.7686,3.8091,3.8453,3.86,3.86,3.86,3.86,3.86,3.86,3.86,3.86,3.86,3.86,3.8244,3.6574,3.6115,3.5712,3.3969,3.354,3.3049,3.1224,3.0809,3.0309,0.0,0.0,0.0,0.0,0.0,0.0,0.0,0.0,0.0,0.0,2.82,2.82,2.82,2.82,2.8299,2.8564,2.8358,2.8425,2.8948,2.9001,2.9157,2.9508,2.9753,2.9878,2.9891,2.9891,2.9891,2.9891,2.9891,2.9891,2.9891,2.9891,2.9891,2.9891,2.9891,2.9891,2.9891,2.9891,2.9891,2.9891,2.9891,2.9891,2.9891,2.9891,2.9891,2.9891,2.9891,2.9891,2.9891,3.3864,3.416,3.4375,0.0,3.4121,3.402,0.0,0.0,0.0,0.0,3.5667,3.5999,3.6875,3.707,3.7266,3.7578,3.7677,0.0,0.0,0.0,0.0,3.758,3.7187,3.7248,3.7892,3.6992,0.0,3.6714,0.0,0.0,3.5624,3.5692,3.5677,3.5586,3.5637,3.6206,3.7084,3.7084,3.7382,3.784,3.7724,3.7796,3.7926,3.7856,3.8137,3.8538,3.8572,3.86,3.86,3.86,3.86,3.86,3.86,3.86,3.86,3.86,3.86,3.8501,3.8046,3.7946,3.751,3.5773,3.5329,3.4538,3.1478,3.0809,3.0309,2.8558,2.82,0.0,0.0,0.0,0.0,0.0,0.0,0.0,0.0,0.0,0.0,2.82,2.82,2.824,2.8299,2.8425,2.8644,2.8961,2.9001,2.9237,2.978,2.9673,2.9686,2.9891,2.9891,2.9891,2.9891,2.9891,2.9891,2.9891,2.9891,2.9891,2.9891,2.9891,2.9891,2.9891,2.9891,2.9891,2.9891,2.9891,2.9891,2.9891,2.9891,2.9891,2.9891,2.9891,2.9891,2.9891,3.4313,0.0,0.0,3.4961,0.0,0.0,3.5,3.4824,0.0,3.6172,3.6309,0.0,3.748,3.7734,3.7949,3.8184,3.8203,0.0,0.0,0.0,0.0,3.7912,3.7871,3.7969,3.8203,3.7559,0.0,3.697,0.0,0.0,3.6017,3.6032,3.6143,3.6339,3.6356,3.6836,3.7682,3.7851,3.8065,3.8311,3.8307,3.8322,0.0,3.8312,3.8457,3.8642,3.8606,3.86,3.86,3.86,3.86,3.86,3.86,3.86,3.86,3.86,3.8728,3.8856,3.8856,3.9005,3.8932,3.7948,3.7687,3.6977,3.423,3.2964,3.1891,3.0135,2.9121,2.8559,2.8559,2.8452,0.0,0.0,0.0,0.0,0.0,0.0,0.0,0.0,2.82,2.82,2.82,2.8339,2.8524,2.881,2.8836,2.897,2.9304,2.9432,2.9566,2.9726,2.9726,2.978,2.9891,2.9793,2.9793,2.9891,2.9891,2.9891,2.9891,2.9891,2.9891,2.9891,2.9891,2.9891,2.9891,2.9891,2.9891,2.9904,3.006,3.0194,3.0301,3.0301,3.0221,3.015,0.0,0.0,0.0,0.0,0.0,0.0,0.0,3.5293,0.0,3.6697,0.0,3.7146,3.7912,3.8377,3.8592,3.8592,0.0,3.8436,3.8009,3.8359,3.8416,3.8009,3.8379,3.8592,3.8592,3.8203,0.0,0.0,0.0,0.0,3.6775,3.6425,3.6658,3.7365,3.701,3.7332,3.8181,3.8538,3.8706,3.8785,3.8779,3.8792,3.8773,3.8712,3.8718,3.8771,3.8693,3.8637,3.8618,3.8655,3.8673,3.8692,3.8747,3.8765,3.8765,3.8765,3.9003,3.928,3.9298,3.9595,3.9911,3.9911,3.9911,3.9443,3.7619,3.5937,3.4192,3.2216,3.0507,2.9292,2.9067,2.8783,2.8524,0.0,0.0,0.0,0.0,0.0,0.0,0.0,0.0,0.0,2.8213,2.82,2.8312,2.8577,2.8564,2.8604,2.8711,2.9165,2.9459,2.9561,2.9539,2.9646,2.986,2.9646,2.9646,2.986,2.9878,2.9891,2.9891,2.9891,2.9891,2.9891,2.9891,2.9891,2.9891,2.9953,2.9993,3.006,3.0337,3.0591,3.0795,3.0835,3.0711,3.0524,0.0,0.0,0.0,0.0,0.0,3.6677,3.6914,3.6894,3.7051,3.7637,3.7677,3.7891,3.8416,3.8553,3.8592,3.8592,3.8592,0.0,0.0,0.0,0.0,3.8475,3.8553,3.8592,3.8592,3.8514,3.8242,0.0,0.0,0.0,0.0,3.7117,3.7332,3.7795,3.7723,3.8155,3.8972,3.9057,3.9141,3.9184,3.9183,3.918,3.9141,3.8755,3.9045,3.9614,3.9235,3.8875,3.8655,3.8985,3.9095,3.917,3.954,3.9671,3.9671,3.9671,3.9667,3.9701,3.976,3.9856,3.9911,3.9911,3.9911,3.9443,3.7619,3.6938,3.579,3.2494,3.1546,3.0851,2.9292,2.8783,2.8591,0.0,0.0,0.0,0.0,0.0,0.0,0.0,0.0,2.8452,2.8205,2.82,2.8312,2.8577,2.8385,2.8593,2.9285,2.917,2.9317,2.9797,2.9847,2.9753,2.9566,2.9753,2.9753,2.9566,2.9806,2.9891,2.9891,2.9891,2.9891,2.9891,2.9891,2.9891,2.9918,3.0203,3.0444,3.0648,3.0725,3.0755,3.0822,3.1039,3.1092,3.1026,0.0,0.0,0.0,0.0,0.0,0.0,0.0,3.7812,3.7949,3.7912,3.7912,3.799,3.8223,3.8456,3.8592,3.8592,3.8592,3.8592,3.8592,3.8592,3.869,3.8905,3.8925,0.0,3.9276,3.9276,3.8926,3.8262,0.0,0.0,0.0,3.7599,3.7851,3.8281,3.8496,3.8809,3.922,3.9462,3.9697,3.993,3.9913,4.0083,4.0254,4.0031,4.021,4.0507,4.0043,3.9751,3.9582,3.9564,3.9558,3.9595,3.9817,3.9911,3.9911,3.9911,4.0017,4.0182,4.0203,4.035,4.0515,4.0515,4.0515,4.004,3.8183,3.7026,3.5563,3.283,3.1495,3.0496,2.9439,2.901,2.881,2.881,0.0,0.0,0.0,0.0,0.0,0.0,0.0,0.0,0.0,2.8286,2.8245,2.8371,2.8272,2.8446,2.8991,2.901,2.9223,2.9673,2.9686,2.97,2.9713,2.97,2.97,2.9713,2.9847,2.9891,2.9891,2.9891,2.9891,2.9904,3.0074,3.0163,3.019,3.0484,3.0778,3.1022,3.1022,3.1116,3.1286,3.141,3.145,3.1436,0.0,3.6077,0.0,0.0,3.7088,3.7441,3.7834,3.8301,3.8475,3.8105,3.8048,3.8048,3.8048,3.8377,3.8631,3.871,3.8729,3.8768,3.8866,3.8885,3.9022,3.9336,3.9355,3.9512,3.9883,3.998,3.9648,0.0,0.0,0.0,3.8165,3.8087,3.8301,3.8749,3.9062,3.9297,3.9512,3.9872,4.0317,4.0762,4.0666,4.0914,4.1338,4.1219,4.1247,4.1284,4.0796,4.0689,4.0702,4.0292,4.0113,4.0058,4.0132,4.0168,4.0168,4.0168,4.0387,4.0644,4.0644,4.0864,4.1102,4.1102,4.1102,4.0705,3.9224,3.7435,3.5543,3.3666,3.1479,2.982,2.9561,2.9285,2.9068,2.9001,2.8876,0.0,0.0,0.0,0.0,0.0,0.0,0.0,2.8676,2.8385,2.8219,2.8272,2.8286,2.8398,2.8663,2.889,2.9157,2.9495,2.9508,2.9566,2.9704,2.9633,2.9659,2.982,2.9864,2.9891,2.9891,2.9958,3.0007,3.002,3.035,3.0511,3.0591,3.0795,3.1062,3.1316,3.1316,3.1463,3.1687,3.1687,3.1687,3.1687,0.0,0.0,0.0,0.0,0.0,3.7441,3.7834,3.8301,3.8573,3.8534,3.8534,3.8534,3.8534,3.8573,3.8749,3.9101,3.9141,3.9316,3.9746,3.9766,3.9785,3.9824,3.9824,3.9844,3.9902,4.0273,4.0234,0.0,0.0,3.9531,3.9082,3.871,3.8749,3.9141,3.918,3.9648,4.0391,4.0431,4.0918,4.164,4.1284,4.1376,4.17,4.1337,4.1423,4.1681,4.1208,4.1285,4.1521,4.1121,4.0754,4.0515,4.0864,4.0992,4.0992,4.0992,4.1011,4.1047,4.1047,4.1066,4.1102,4.1102,4.1102,4.106,4.0892,3.9395,3.75,3.5624,3.2373,2.982,2.9561,2.9459,2.9352,2.9041,2.9223,0.0,0.0,0.0,0.0,0.0,0.0,0.0,2.8961,2.8505,2.8299,2.8537,2.8564,2.8684,2.8956,2.8988,2.9157,2.9495,2.9508,2.9366,2.9081,2.9597,2.9753,2.9548,2.9793,2.9891,2.9904,3.0217,3.0337,3.0386,3.0644,3.0902,3.1119,3.1146,3.1356,3.1647,3.1647,3.166,3.1687,3.1687,3.1687,3.1687,0.0,0.0,3.6973,3.756,3.7658,3.7892,3.8594,3.8848,3.9061,3.9336,3.8925,3.869,3.8926,3.8945,3.9139,3.957,3.9609,3.9707,3.9883,3.9902,4.0019,4.0235,4.0254,4.0391,4.0683,4.0839,4.0703,0.0,0.0,0.0,3.9609,3.9179,3.9199,3.9629,3.9864,4.0332,4.0937,4.1191,4.1621,4.2167,4.1969,4.2201,4.2569,4.2387,4.2596,4.2881,4.2447,4.2396,4.2425,4.1693,4.1202,4.0901,4.1047,4.1102,4.1102,4.1102,4.1102,4.1102,4.1102,4.1102,4.1102,4.1102,4.1102,4.0807,3.9671,3.8823,3.7457,3.4432,3.1723,2.9887,2.9766,2.9606,2.9499,2.953,2.9526,2.9561,0.0,0.0,0.0,0.0,0.0,0.0,0.0,2.8519,2.8312,2.8577,2.8452,2.8478,2.8743,2.8908,2.9055,2.9197,2.9566,2.9606,2.9312,2.9691,2.986,2.9753,3.0047,3.0203,3.0217,3.0511,3.0738,3.0889,3.0996,3.1223,3.149,3.149,3.158,3.1687,3.1687,3.1687,3.1687,3.1687,3.1687,3.1687,3.7461,3.748,3.7656,3.8185,3.8283,3.8536,3.9297,3.9414,3.9531,3.9863,3.9374,3.91,3.9375,3.9414,3.959,4.0039,4.0078,4.0137,4.0254,4.0273,4.041,4.0684,4.0723,0.0,4.1191,4.1191,4.1035,4.0723,4.0293,0.0,4.0078,3.9609,3.9726,4.0293,4.0586,4.1016,4.1562,4.1855,4.2226,4.2617,4.2617,4.2871,4.3282,4.3282,4.3437,4.3649,4.3235,4.3109,4.2985,4.2174,4.163,4.1271,4.1145,4.1102,4.1102,4.1102,4.1102,4.1102,4.1102,4.1102,4.1102,4.1102,4.1102,4.0747,3.9437,3.8695,3.7392,3.417,3.2019,3.0714,3.0714,3.0118,2.9646,2.9766,2.9686,2.9659,0.0,2.9838,0.0,0.0,2.9197,2.9028,2.9143,2.8652,2.8465,2.8831,2.8599,2.8519,2.8703,2.8903,2.9063,2.9143,2.9544,2.9686,2.9508,2.986,3.0047,3.0047,3.0364,3.0511,3.0524,3.0795,3.1076,3.1356,3.1356,3.1476,3.1687,3.1687,3.1687,3.1687,3.1687,3.1687,3.1687,3.1687,3.1687,3.1687,3.7814,3.7874,3.8165,3.9043,3.918,3.9336,3.9824,3.9883,3.9883,3.9902,3.9883,3.9883,3.9883,3.9883,4.0059,4.045,4.0489,4.0684,4.1152,4.1172,4.1191,4.1191,4.1191,4.1191,4.1191,4.1191,4.1191,4.1191,0.0,4.0489,4.0489,4.0078,4.0351,4.1172,4.1191,4.1621,4.2382,4.2402,4.2676,4.3087,4.3087,4.332,4.3691,4.3691,4.3691,4.3649,4.3235,4.3109,4.3026,4.2548,4.207,4.1612,4.1229,4.1102,4.1102,4.1102,4.1102,4.1102,4.1102,4.1102,4.1102,4.1102,4.1102,4.1102,4.1081,3.9628,3.7757,3.5863,3.3973,3.2668,3.2668,3.1145,2.982,2.9561,2.9726,2.9784,2.9548,2.974,0.0,2.9526,2.9197,2.913,2.9446,2.8951,2.8845,2.9454,2.917,2.8988,2.8988,2.8988,2.9157,2.9495,2.9508,2.9508,2.9508,3.0083,3.0377,3.04,3.0671,3.0795,3.0795,3.1066,3.1383,3.1687,3.1687,3.1687,3.1687,3.1687,3.1687,3.1687,3.1687,3.1687,3.1687,3.1687,3.1687,3.1687,3.918,3.9277,3.9355,3.9629,3.9668,3.9824,4.0235,4.0313,4.043,4.0742,4.0781,4.0781,4.0781,4.0508,4.0508,4.0937,4.0996,4.1054,4.1191,4.1191,4.1191,4.1191,4.1191,4.1191,4.1191,4.1191,4.1328,4.1601,4.1172,4.1113,4.1406,4.1543,4.1738,4.2031,4.2031,4.2344,4.2871,4.2871,4.3125,4.3496,4.3496,4.3594,4.3711,4.3711,4.3711,4.369,4.3546,4.3318,4.3026,4.2569,4.2091,4.1612,4.1229,4.1102,4.1102,4.1102,4.1102,4.1102,4.1102,4.1102,4.1102,4.1102,4.1102,4.1102,4.1102,3.965,3.8139,3.7521,3.5928,3.4213,3.2933,3.2219,3.1362,2.998,2.9838,2.9864,2.9793,2.9686,2.9513,2.9197,2.8903,2.8836,2.913,2.881,2.8764,2.913,2.889,2.881,2.8988,2.921,2.9285,2.9157,2.9544,2.978,2.978,3.019,3.0484,3.0684,3.0942,3.1196,3.142,3.1513,3.1607,3.1687,3.1687,3.1687,3.1687,3.1687,3.1687,3.1687,3.1687,3.1687,3.1687,3.1687,3.1687,3.1687,3.9844,4.0019,4.0137,4.0137,4.0273,4.0469,4.0723,4.0762,4.0859,4.1152,4.1191,4.1191,4.1191,4.1074,4.1055,4.1191,4.1191,4.1269,4.1426,4.1426,4.1504,4.1641,4.1641,4.1641,4.1641,4.1641,4.1777,4.2031,4.1777,4.1777,4.2031,4.2285,4.2499,4.2676,4.2676,4.291,4.3341,4.3341,4.3457,4.3711,4.3711,4.3711,4.3711,4.3711,4.3711,4.3711,4.3711,4.3546,4.3296,4.2986,4.2591,4.2174,4.1923,4.1628,4.1294,4.1145,4.1102,4.1102,4.1102,4.1102,4.1102,4.1102,4.1102,4.1102,4.1102,4.0198,3.9143,3.8439,3.6794,3.4928,3.3065,3.213,3.1257,3.0093,2.9891,2.9851,2.9766,2.9606,2.9379,2.9028,2.8863,2.8863,2.9157,2.9045,2.9058,2.933,2.9183,2.9157,2.933,2.9317,2.9379,2.9504,2.9887,3.014,3.0247,3.0541,3.0768,3.0955,3.1249,3.149,3.1687,3.1687,3.1687,3.1687,3.1687,3.1687,3.1687,3.1687,3.1687,3.1687,3.1687,3.1687,3.1687,3.1687,3.1687,3.1701,3.998,4.0274,4.0547,4.0547,4.0898,4.1191,4.1191,4.1191,4.1191,4.1191,4.1211,4.123,4.123,4.1602,4.168,4.1308,4.1269,4.1445,4.1816,4.1836,4.2012,4.2382,4.2402,4.2402,4.2402,4.2402,4.2421,4.246,4.248,4.2499,4.2499,4.2499,4.2714,4.3145,4.3145,4.336,4.3711,4.3711,4.3711,4.3711,4.3711,4.3711,4.3711,4.3711,4.3711,4.3711,4.3711,4.369,4.367,4.367,4.338,4.3047,4.3047,4.2445,4.1672,4.1252,4.1123,4.1102,4.1102,4.1102,4.1102,4.1102,4.1102,4.1102,4.1102,4.1102,4.0599,3.8845,3.7112,3.5282,3.3263,3.1479,3.0191,2.9936,2.999,2.9927,2.9548,2.9591,2.9484,2.905,2.9001,2.913,2.9481,2.9508,2.9593,2.9838,2.9878,2.9891,2.9891,2.9397,2.9513,3.0386,3.0426,3.0551,3.0822,3.1066,3.1213,3.1239,3.1554,3.1687,3.1687,3.1687,3.1687,3.1687,3.1687,3.1687,3.1687,3.1687,3.1687,3.1687,3.1687,3.1701,3.1727,3.1727,3.1741,3.1794,4.082,4.0976,4.1035,4.1035,4.1133,4.1191,4.1191,4.1191,4.1191,4.1191,4.1465,4.166,4.166,4.2031,4.2226,4.2109,4.2109,4.2148,4.2246,4.2265,4.2304,4.2402,4.2402,4.2402,4.2402,4.2402,4.2577,4.293,4.3242,4.3378,4.3378,4.3378,4.3457,4.3555,4.3555,4.3613,4.3711,4.3711,4.3711,4.3711,4.3711,4.3711,4.3711,4.3711,4.3711,4.3711,4.3711,4.3504,4.3254,4.3254,4.2943,4.2569,4.2569,4.2423,4.2132,4.1693,4.1336,4.1102,4.1102,4.1102,4.1102,4.1102,4.1102,4.1102,4.1102,4.1102,4.0976,4.0536,4.0074,3.8763,3.5435,3.4469,3.3256,3.037,3.0832,3.1091,2.9707,3.0461,3.0648,2.9175,2.9001,2.913,2.9481,2.9508,2.9535,2.9579,2.9793,2.9891,2.9891,2.9993,3.0163,3.04,3.0604,3.0822,3.1092,3.1173,3.1343,3.1594,3.166,3.1687,3.1687,3.1687,3.1687,3.1687,3.1687,3.1687,3.1687,3.1687,3.1687,3.1687,3.1687,3.1834,3.1998,3.1998,3.2169,3.2393,4.1152,4.1191,4.1191,4.1191,4.1191,4.1191,4.1191,4.1367,4.1484,4.1484,4.1816,4.207,4.207,4.2461,4.2715,4.2715,4.2519,4.248,4.2715,4.2715,4.2812,4.2987,4.2987,4.2987,4.2987,4.2987,4.3125,4.3359,4.3594,4.3711,4.3711,4.3711,4.3711,4.3711,4.3711,4.3711,4.3711,4.3711,4.3711,4.3711,4.3711,4.3711,4.3711,4.3711,4.3711,4.3711,4.3711,4.3566,4.3359,4.3359,4.3194,4.2986,4.2986,4.2881,4.2711,4.2652,4.2031,4.1357,4.1357,4.1358,4.1412,4.1595,4.1653,4.1653,4.1653,4.1653,4.1418,4.0547,4.0232,3.9212,3.6306,3.4912,3.3549,3.1501,3.1117,3.0712,2.9654,3.0181,3.0332,2.9355,2.9223,2.9352,2.9646,2.9829,2.9909,2.9909,3.0154,3.0314,3.0314,3.0595,3.0778,3.0778,3.0902,3.1129,3.1423,3.1423,3.1517,3.1687,3.1687,3.1687,3.1687,3.1687,3.1687,3.1687,3.1687,3.1687,3.1701,3.1834,3.1888,3.1901,3.2035,3.2195,3.2329,3.2329,3.2436,3.2607,4.1191,4.1191,4.1191,4.1191,4.125,4.1289,4.1289,4.1621,4.1894,4.1894,4.2246,4.2499,4.2499,4.291,4.3204,4.3204,4.2832,4.2773,4.3165,4.3204,4.334,4.3691,4.3711,4.3711,4.3711,4.3711,4.3711,4.3711,4.3711,4.3711,4.3711,4.3711,4.3711,4.3711,4.3711,4.3711,4.3711,4.3711,4.3711,4.3711,4.3711,4.3711,4.3711,4.3711,4.3711,4.3711,4.3711,4.3711,4.3711,4.3711,4.3711,4.3711,4.3789,4.3579,4.3366,4.379,4.3027,4.2071,4.2008,4.1949,4.1975,4.2241,4.2292,4.2292,4.2292,4.2292,4.184,4.0237,3.9648,3.8835,3.6964,3.5036,3.3515,3.2874,3.164,3.0467,2.9668,2.9783,2.9862,2.965,2.9682,2.9802,2.9998,3.0297,3.0467,3.0467,3.0725,3.0862,3.0862,3.1106,3.1266,3.1266,3.1266,3.141,3.1687,3.1687,3.1687,3.1687,3.1687,3.1687,3.1687,3.1687,3.1714,3.1754,3.1754,3.1781,3.1848,3.2088,3.2171,3.2198,3.25,3.2621,3.2661,3.2661,3.2688,3.2755,4.1191,4.1191,4.1191,4.1191,4.1484,4.1699,4.1699,4.205,4.2304,4.2304,4.2715,4.2989,4.2989,4.3359,4.3613,4.3613,4.3535,4.3535,4.3594,4.3613,4.3633,4.3711,4.3711,4.3711,4.3711,4.3711,4.3711,4.3711,4.3711,4.3711,4.3711,4.3711,4.3711,4.3711,4.3711,4.3711,4.3711,4.3711,4.3711,4.3711,4.3711,4.3711,4.3711,4.3711,4.3711,4.3711,4.3711,4.3711,4.3711,4.3711,4.3711,4.3769,4.416,4.4255,4.427,4.4678,4.4375,4.383,4.3486,4.3093,4.2716,4.2382,4.2292,4.2292,4.2292,4.2292,4.2206,4.1945,4.1825,4.1188,3.9321,3.8681,3.7314,3.3769,3.3994,3.3512,3.0293,3.1112,3.1596,3.0397,3.0471,3.0608,3.0648,3.0702,3.0751,3.0751,3.0996,3.1132,3.1132,3.1436,3.162,3.162,3.162,3.1647,3.1687,3.1687,3.1687,3.1687,3.1687,3.1687,3.1687,3.1687,3.1821,3.2038,3.2038,3.2195,3.246,3.25,3.2527,3.2527,3.2581,3.2741,3.2931,3.2931,3.3091,3.328,4.1484,4.1523,4.1582,4.1816,4.1992,4.2109,4.2109,4.25,4.2773,4.2773,4.3144,4.3418,4.3418,4.3594,4.3711,4.3711,4.3711,4.3711,4.3711,4.3711,4.3711,4.3711,4.3711,4.3711,4.3711,4.3711,4.3711,4.3711,4.3711,4.3711,4.3711,4.3711,4.3711,4.3711,4.3711,4.3711,4.3711,4.3711,4.3711,4.3711,4.3711,4.3711,4.3711,4.3711,4.3711,4.3711,4.3711,4.3711,4.375,4.3984,4.4082,4.416,4.459,4.4705,4.4803,4.5254,4.4703,4.3885,4.3701,4.3301,4.2943,4.2942,4.2953,4.2953,4.2953,4.2953,4.2953,4.2953,4.2769,4.2364,4.1495,4.0333,3.8803,3.6661,3.6211,3.5479,3.3516,3.4125,3.4112,3.2387,3.2301,3.1964,3.0897,3.0929,3.1022,3.1022,3.1303,3.1463,3.1463,3.162,3.1687,3.1687,3.1687,3.1687,3.1687,3.1687,3.1687,3.1687,3.1687,3.1687,3.1701,3.1861,3.1971,3.2104,3.2302,3.2474,3.2607,3.2768,3.2835,3.2824,3.2971,3.3118,3.3213,3.3213,3.3293,3.3414,4.1855,4.1953,4.2051,4.2343,4.248,4.2558,4.2558,4.2949,4.3243,4.3243,4.3496,4.3711,4.3711,4.3711,4.3711,4.3711,4.3711,4.3711,4.3711,4.3711,4.3711,4.3711,4.3711,4.3711,4.3711,4.3711,4.3711,4.3711,4.3711,4.3711,4.3711,4.3711,4.3711,4.3711,4.3711,4.3711,4.3711,4.3711,4.3711,4.3711,4.3711,4.3711,4.3711,4.3711,4.3711,4.3711,4.3828,4.3867,4.3926,4.4394,4.4551,4.4609,4.5018,4.5154,4.5254,4.5725,4.4919,4.3884,4.3768,4.3467,4.3251,4.3452,4.3499,4.3499,4.3499,4.3499,4.3499,4.3499,4.3265,4.3026,4.3026,4.1612,4.0157,3.9315,3.823,3.7207,3.6444,3.6591,3.6236,3.4773,3.4606,3.4027,3.2541,3.2566,3.2496,3.2042,3.2238,3.2185,3.1711,3.1687,3.1687,3.1687,3.1687,3.1687,3.1687,3.1687,3.1687,3.1687,3.1767,3.1794,3.1808,3.2102,3.2238,3.2318,3.257,3.2741,3.2784,3.3011,3.308,3.3106,3.332,3.3414,3.3414,3.3414,3.3414,3.3414,4.2285,4.2363,4.2382,4.2402,4.2754,4.3048,4.3048,4.3379,4.3652,4.3652,4.3691,4.3711,4.3711,4.3711,4.3711,4.3711,4.3711,4.3711,4.3711,4.3711,4.3711,4.3711,4.3711,4.3711,4.3711,4.3711,4.3711,4.3711,4.3711,4.3711,4.3711,4.3711,4.3711,4.3711,4.3711,4.3711,4.3711,4.3711,4.3711,4.3711,4.3711,4.3711,4.3711,4.3711,4.3711,4.3769,4.4199,4.4355,4.4414,4.4822,4.4959,4.5037,4.5488,4.5646,4.5725,4.6133,4.5574,4.4697,4.427,4.4134,4.4,4.3593,4.3499,4.3499,4.3499,4.3499,4.3499,4.3499,4.3463,4.3444,4.3444,4.3315,4.2509,4.0351,3.9916,3.92,3.7304,3.7049,3.7131,3.7281,3.7312,3.7243,3.7121,3.7114,3.6367,3.4499,3.4373,3.3605,3.1806,3.1687,3.1687,3.1687,3.1687,3.1687,3.1687,3.1687,3.1687,3.1701,3.1944,3.2064,3.2078,3.2396,3.2714,3.2944,3.2957,3.3118,3.3347,3.3374,3.3374,3.3387,3.3375,3.3414,3.3414,3.3414,3.3414,3.3414,4.2754,4.2832,4.291,4.3144,4.3359,4.3457,4.3457,4.3594,4.3711,4.3711,4.3711,4.3711,4.3711,4.3711,4.3711,4.3711,4.3711,4.3711,4.3711,4.3711,4.3711,4.3711,4.3711,4.3711,4.3711,4.3711,4.3711,4.3711,4.3711,4.3711,4.3711,4.3711,4.3711,4.3711,4.3711,4.3711,4.3711,4.3711,4.3711,4.3711,4.3711,4.3711,4.3711,4.3711,4.3887,4.416,4.4336,4.457,4.4822,4.5273,4.543,4.5508,4.5937,4.6055,4.6028,4.59,4.5607,4.5233,4.4769,4.4215,4.3704,4.3544,4.3499,4.3499,4.3499,4.3499,4.3499,4.3499,4.3499,4.3499,4.3499,4.3499,4.313,4.203,4.204,4.1844,4.0827,4.0912,4.0649,3.9544,3.9401,3.8425,3.5981,3.5725,3.4925,3.2937,3.2795,3.2479,3.1735,3.1687,3.1687,3.1687,3.1861,3.1874,3.1687,3.1874,3.1955,3.1944,3.2262,3.2396,3.2409,3.2703,3.2904,3.3011,3.3173,3.3307,3.3414,3.3414,3.3414,3.3414,3.3414,3.3414,3.3414,3.3414,3.3414,3.3414,4.3204,4.3302,4.338,4.3652,4.3711,4.3711,4.3711,4.3711,4.3711,4.3711,4.3711,4.3711,4.3711,4.3711,4.3711,4.3711,4.3711,4.3711,4.3711,4.3711,4.3711,4.3711,4.3711,4.3711,4.3711,4.3711,4.3711,4.3711,4.3711,4.3711,4.3711,4.3711,4.3711,4.3711,4.3711,4.3711,4.3711,4.3711,4.3711,4.3711,4.3711,4.3789,4.3926,4.3926,4.4199,4.4609,4.4746,4.498,4.5293,4.5723,4.59,4.594,4.6211,4.6308,4.6243,4.5914,4.5717,4.5541,4.5211,4.4548,4.3882,4.3767,4.3704,4.3678,4.3544,4.3499,4.3499,4.3499,4.3499,4.3499,4.3499,4.3499,4.3408,4.3136,4.332,4.3389,4.3118,4.3338,4.299,4.1611,4.1454,4.0396,3.7667,3.6814,3.5647,3.3699,3.296,3.2337,3.1735,3.1781,3.1834,3.1834,3.2115,3.2169,3.1968,3.2169,3.2262,3.2276,3.2594,3.2728,3.2741,3.3011,3.3145,3.3158,3.332,3.3414,3.3414,3.3414,3.3414,3.3414,3.3414,3.3414,3.3414,3.3414,3.3414,3.3414,4.3633,4.3711,4.3711,4.3711,4.3711,4.3711,4.3711,4.3711,4.3711,4.3711,4.3711,4.3711,4.3711,4.3711,4.3711,4.3711,4.3711,4.3711,4.3711,4.3711,4.3711,4.3711,4.3711,4.3711,4.3711,4.3711,4.3711,4.3711,4.3711,4.3711,4.3711,4.3711,4.3711,4.3711,4.3711,4.3711,4.3711,4.3711,4.3711,4.3711,4.3711,4.3984,4.4394,4.4394,4.4647,4.5057,4.5527,4.5705,4.5764,4.6152,4.6308,4.6308,4.6308,4.6308,4.6308,4.6308,4.598,4.5607,4.5607,4.5277,4.4791,4.4326,4.4193,4.4082,4.3611,4.3522,4.3499,4.3499,4.3499,4.3499,4.3499,4.3499,4.3499,4.3499,4.3499,4.3499,4.3499,4.3499,4.3499,4.3499,4.3499,4.3499,4.3477,4.1657,3.9698,3.7713,3.5717,3.3746,3.1806,3.1968,3.2104,3.2104,3.2423,3.2594,3.2594,3.2594,3.2594,3.2607,3.2864,3.3011,3.3011,3.328,3.3414,3.3414,3.3414,3.3414,3.3414,3.3414,3.3414,3.3414,3.3414,3.3414,3.3414,3.3414,3.3414,3.3414,4.3691,4.3711,4.3711,4.3711,4.3711,4.3711,4.3711,4.3711,4.3711,4.3711,4.3711,4.3711,4.3711,4.3711,4.3711,4.3711,4.3711,4.3711,4.3711,4.3711,4.3711,4.3711,4.3711,4.3711,4.3711,4.3711,4.3711,4.3711,4.3711,4.3711,4.3711,4.3711,4.3711,4.3711,4.3711,4.3711,4.3711,4.3711,4.3887,4.4199,4.4199,4.4432,4.4822,4.4822,4.5098,4.5529,4.5646,4.5881,4.6133,4.6269,4.6308,4.6308,4.6308,4.6308,4.6308,4.6308,4.6199,4.609,4.609,4.6002,4.5695,4.488,4.4681,4.457,4.4104,4.3993,4.3882,4.3566,4.3499,4.3499,4.3499,4.3499,4.3499,4.3499,4.3499,4.3499,4.3499,4.3499,4.3499,4.3499,4.3499,4.2967,4.1521,4.0849,3.9128,3.5749,3.3851,3.2579,3.2019,3.2276,3.246,3.246,3.2717,3.2877,3.2877,3.2877,3.2877,3.2877,3.3146,3.328,3.328,3.3374,3.3414,3.3414,3.3414,3.3414,3.3414,3.3414,3.3414,3.3414,3.3414,3.3414,3.3414,3.3414,3.3414,3.3414,4.3711,4.3711,4.3711,4.3711,4.3711,4.3711,4.3711,4.3711,4.3711,4.3711,4.3711,4.3711,4.3711,4.3711,4.3711,4.3711,4.3711,4.3711,4.3711,4.3711,4.3711,4.3711,4.3711,4.3711,4.3711,4.3711,4.3711,4.3711,4.3711,4.3711,4.3711,4.3711,4.3711,4.3711,4.3711,4.3711,4.3711,4.3906,4.4141,4.4414,4.457,4.4881,4.5293,4.5293,4.5547,4.594,4.594,4.6094,4.6308,4.6308,4.6308,4.6308,4.6308,4.6308,4.6308,4.6308,4.6308,4.6308,4.6308,4.6308,4.6155,4.5607,4.5321,4.5012,4.4348,4.4193,4.406,4.3611,4.3499,4.3499,4.3499,4.3499,4.3499,4.3499,4.3499,4.3499,4.3499,4.3499,4.3499,4.3499,4.3499,4.3034,4.1792,4.1123,3.9162,3.5318,3.4097,3.3168,3.2351,3.2583,3.2768,3.2768,3.3024,3.3146,3.3146,3.3146,3.3146,3.3146,3.3334,3.3414,3.3414,3.3414,3.3414,3.3414,3.3414,3.3414,3.3414,3.3414,3.3414,3.3414,3.3414,3.3414,3.3414,3.3414,3.3414,3.3414,4.3731,4.3711,4.3711,4.3711,4.3711,4.3711,4.3711,4.3711,4.3711,4.3711,4.3711,4.3711,4.3711,4.3711,4.3711,4.3711,4.3711,4.3711,4.3711,4.3711,4.3711,4.3711,4.3711,4.3711,4.3711,4.3711,4.3711,4.3711,4.3711,4.3711,4.3711,4.3711,4.3711,4.3711,4.3711,4.373,4.3789,4.4219,4.4433,4.4551,4.4901,4.5351,4.5744,4.5744,4.5976,4.6308,4.6308,4.6308,4.6308,4.6308,4.6308,4.6308,4.6308,4.6308,4.6308,4.6308,4.6308,4.6308,4.6308,4.6308,4.6308,4.6308,4.598,4.5431,4.4526,4.4282,4.4126,4.3655,4.3544,4.3499,4.3499,4.3499,4.3499,4.3499,4.3499,4.3499,4.3499,4.3518,4.3554,4.3554,4.3573,4.3609,4.3609,4.2124,3.9722,3.6214,3.5818,3.4836,3.2756,3.2891,3.3038,3.3038,3.328,3.3414,3.3414,3.3414,3.3414,3.3414,3.3414,3.3414,3.3414,3.3414,3.3414,3.3414,3.3414,3.3414,3.3414,3.3414,3.3414,3.3414,3.3414,3.3414,3.3414,3.3414,3.3414,3.3414,4.3959,4.3711,4.3711,4.3711,4.3711,4.3711,4.3711,4.3711,4.3711,4.3711,4.3711,4.3711,4.3711,4.3711,4.3711,4.3711,4.3711,4.3711,4.3711,4.3711,4.3711,4.3711,4.3711,4.3711,4.3711,4.3711,4.3711,4.3711,4.3711,4.3711,4.3711,4.3711,4.3711,4.3711,4.3711,4.3906,4.4258,4.4355,4.4785,4.5432,4.5529,4.5803,4.6172,4.6172,4.623,4.6308,4.6308,4.6308,4.6308,4.6308,4.6308,4.6308,4.6308,4.6308,4.6308,4.6308,4.6308,4.6308,4.6308,4.6308,4.6308,4.6308,4.6221,4.6002,4.5431,4.5012,4.4614,4.4149,4.3767,4.3499,4.3499,4.3499,4.3499,4.3499,4.3499,4.3499,4.3499,4.3756,4.398,4.398,4.4256,4.4439,4.4439,4.2693,4.0571,3.8143,3.6748,3.5107,3.3027,3.316,3.332,3.332,3.3374,3.3414,3.3414,3.3414,3.3414,3.3414,3.3414,3.3414,3.3414,3.3414,3.3414,3.3414,3.3414,3.3414,3.3414,3.3414,3.3414,3.3414,3.3414,3.3414,3.3414,3.3414,3.3414,3.3414,4.3877,4.3711,4.3711,4.3711,4.3711,4.3711,4.3711,4.3711,4.3711,4.3711,4.3711,4.3711,4.3711,4.3711,4.3711,4.3711,4.3711,4.3711,4.3711,4.3711,4.3711,4.3711,4.3711,4.3711,4.3711,4.3711,4.3711,4.3711,4.3711,4.3711,4.3711,4.3711,4.3711,4.3711,4.3926,4.418,4.4433,4.4824,4.5295,4.5725,4.592,4.6113,4.6308,4.6308,4.6308,4.6308,4.6308,4.6308,4.6308,4.6308,4.6308,4.6308,4.6308,4.6308,4.6308,4.6308,4.6445,4.6601,4.6601,4.6758,4.6914,4.6914,4.6914,4.6706,4.5794,4.5233,4.4769,4.4304,4.3815,4.3554,4.3738,4.3797,4.3852,4.4054,4.4072,4.4072,4.4072,4.4256,4.4384,4.4384,4.4568,4.4769,4.4971,4.4029,4.2222,3.934,3.8302,3.6476,3.3361,3.3334,3.3414,3.3414,3.3414,3.3414,3.3414,3.3414,3.3414,3.3414,3.3414,3.3414,3.3414,3.3414,3.3414,3.3414,3.3414,3.3414,3.3414,3.3414,3.3414,3.3414,3.3414,3.3414,3.3414,3.3414,3.3414,3.3414,4.3773,4.3711,4.3711,4.3711,4.3711,4.3711,4.3711,4.3711,4.3711,4.3711,4.3711,4.3711,4.3711,4.3711,4.3711,4.3711,4.3711,4.3711,4.3711,4.3711,4.3711,4.3711,4.3711,4.3711,4.3711,4.3711,4.3711,4.3711,4.3711,4.3711,4.3711,4.3711,4.375,4.3848,4.4219,4.4473,4.4668,4.5392,4.5744,4.5842,4.6152,4.6308,4.6308,4.6308,4.6308,4.6308,4.6308,4.6308,4.6308,4.6308,4.6308,4.6308,4.6308,4.6348,4.6406,4.6406,4.6719,4.7028,4.7028,4.7305,4.76,4.76,4.76,4.7313,4.6194,4.5575,4.5132,4.4732,4.4238,4.3928,4.4259,4.4246,4.4311,4.4641,4.4696,4.4696,4.4696,4.4751,4.4806,4.4806,4.4861,4.5045,4.537,4.5407,4.3974,4.0481,3.9891,3.8013,3.415,3.3589,3.3414,3.3414,3.3414,3.3414,3.3414,3.3414,3.3414,3.3414,3.3414,3.3414,3.3414,3.3414,3.3414,3.3414,3.3414,3.3414,3.3414,3.3414,3.3414,3.3414,3.3414,3.3414,3.3414,3.3414,3.3414,3.3414,4.4,4.3711,4.3711,4.3711,4.3711,4.3711,4.3711,4.3711,4.3711,4.3711,4.3711,4.3711,4.3711,4.3711,4.3711,4.3711,4.3711,4.3711,4.3711,4.3711,4.3711,4.3711,4.3711,4.3711,4.3711,4.3711,4.3711,4.3711,4.3711,4.3711,4.3711,4.3711,4.3926,4.4316,4.4375,4.4805,4.5529,4.5646,4.59,4.623,4.6289,4.6308,4.6308,4.6308,4.6308,4.6308,4.6308,4.6308,4.6308,4.6308,4.6308,4.6308,4.6308,4.654,4.6814,4.6814,4.7148,4.7522,4.7522,4.7561,4.76,4.76,4.76,4.7558,4.7374,4.6976,4.6594,4.6549,4.5781,4.5164,4.522,4.4878,4.4623,4.4678,4.4696,4.4696,4.4696,4.5008,4.5223,4.5223,4.554,4.5778,4.581,4.581,4.485,4.256,4.0715,3.8649,3.6208,3.4374,3.3414,3.3414,3.3414,3.3414,3.3414,3.3414,3.3414,3.3414,3.3414,3.3414,3.3414,3.3414,3.3414,3.3414,3.3414,3.3414,3.3414,3.3414,3.3414,3.3414,3.3414,3.3414,3.3414,3.3414,3.3414,3.3414,4.6707,4.6546,4.6244,4.5312,4.5148,4.4822,4.3836,4.3711,4.3711,4.3711,4.3711,4.3711,4.3711,4.3711,4.3711,4.3711,4.3711,4.3711,4.3711,4.3711,4.3711,4.3711,4.3711,4.3711,4.3711,4.3711,4.3711,4.3711,4.3711,4.3828,4.4082,4.4082,4.4336,4.4766,4.5,4.5334,4.5705,4.594,4.6133,4.6308,4.6308,4.6308,4.6308,4.6308,4.6308,4.6308,4.6308,4.6308,4.6308,4.6308,4.6465,4.6638,4.6638,4.6953,4.7285,4.7285,4.7598,4.793,4.793,4.8128,4.8346,4.8346,4.8346,4.8346,4.8346,4.8187,4.7799,4.7044,4.611,4.546,4.568,4.5344,4.5118,4.5338,4.5375,4.5375,4.5375,4.5517,4.5627,4.5627,4.5773,4.5883,4.5883,4.5883,4.504,4.2943,4.086,3.8747,3.6603,3.4524,3.3414,3.3414,3.3414,3.3414,3.3414,3.3414,3.3414,3.3414,3.3414,3.3414,3.3414,3.3414,3.3414,3.3414,3.3414,3.3414,3.3414,3.3414,3.3414,3.3414,3.3414,3.3414,3.3414,3.3414,3.3414,3.3414]}]]